[[{"header":{"parameterUnit":"m.s-1","parameterCategory":1,"la1":31.0,"la2":29.5877,"lo1":-88.7671,"lo2":-86.6584,"dy":0.0162,"dx":0.0185,"nx":115,"ny":88,"refTime":"2026-04-22T12:00:00:Z","depth":0,"parameterNumber":2,"parameterNumberName":"U-component_of_WINDS"},"data":[0.0,0.0,0.0,0.0,0.0,0.0,0.0,0.0,0.0,0.0,0.0,0.0,0.0,0.0,0.0,0.0,0.0,0.0,0.0,0.0,0.0,0.0,0.0,0.0,0.0,0.0,0.0,0.0,0.0,0.0,0.0,0.0,0.0,0.0,0.0,0.0,0.0,0.0,0.0,0.0,0.0,0.0,0.0,0.0,0.0,0.0,0.0,0.0,0.0,0.0,0.0,0.0,0.0,0.0,0.0,0.0,0.0,0.0,0.0,0.0,0.0,0.0,0.0,0.0,0.0,0.0,0.0,0.0,0.0,0.0,0.0,0.0,0.0,0.0,0.0,0.0,0.0,0.0,0.0,0.0,0.0,0.0,0.0,0.0,0.0,0.0,0.0,0.0,0.0,0.0,0.0,0.0,0.0,0.0,0.0,0.0,0.0,0.0,0.0,0.0,0.0,0.0,0.0,0.0,0.0,0.0,0.0,0.0,0.0,0.0,0.0,0.0,0.0,0.0,0.0,0.0,0.0,0.0,0.0,0.0,0.0,0.0,0.0,0.0,0.0,0.0,0.0,0.0,0.0,0.0,0.0,0.0,0.0,0.0,0.0,0.0,0.0,0.0,0.0,0.0,0.0,0.0,0.0,0.0,0.0,0.0,0.0,0.0,0.0,0.0,0.0,0.0,0.0,0.0,0.0,0.0,0.0,0.0,0.0,0.0,0.0,0.0,0.0,0.0,0.0,0.0,0.0,0.0,0.0,0.0,0.0,0.0,0.0,0.0,0.0,0.0,0.0,0.0,0.0,0.0,0.0,0.0,0.0,0.0,0.0,0.0,0.0,0.0,0.0,0.0,0.0,0.0,0.0,0.0,0.0,0.0,0.0,0.0,0.0,0.0,0.0,0.0,0.0,0.0,0.0,0.0,0.0,0.0,0.0,0.0,0.0,0.0,0.0,0.0,0.0,0.0,0.0,0.0,0.0,0.0,0.0,0.0,0.0,0.0,0.0,0.0,0.0,0.0,0.0,0.0,0.0,0.0,0.0,0.0,0.0,0.0,0.0,0.0,0.0,0.0,0.0,0.0,0.0,0.0,0.0,0.0,0.0,0.0,0.0,0.0,0.0,0.0,0.0,0.0,0.0,0.0,0.0,0.0,0.0,0.0,0.0,0.0,0.0,0.0,0.0,0.0,0.0,0.0,0.0,0.0,0.0,0.0,0.0,0.0,0.0,0.0,0.0,0.0,0.0,0.0,0.0,0.0,0.0,0.0,0.0,0.0,0.0,0.0,0.0,0.0,0.0,0.0,0.0,0.0,0.0,0.0,0.0,0.0,0.0,0.0,0.0,0.0,0.0,0.0,0.0,0.0,0.0,0.0,0.0,0.0,0.0,0.0,0.0,0.0,0.0,0.0,0.0,0.0,0.0,0.0,0.0,0.0,0.0,0.0,0.0,0.0,0.0,0.0,0.0,0.0,0.0,0.0,0.0,0.0,0.0,0.0,0.0,0.0,0.0,0.0,0.0,0.0,0.0,0.0,0.0,0.0,0.0,0.0,0.0,0.0,0.0,0.0,0.0,0.0,0.0,0.0,0.0,0.0,0.0,0.0,0.0,0.0,0.0,0.0,0.0,0.0,0.0,0.0,0.0,0.0,0.0,0.0,0.0,0.0,0.0,0.0,0.0,0.0,0.0,0.0,0.0,0.0,0.0,0.0,0.0,0.0,0.0,0.0,0.0,0.0,0.0,0.0,0.0,0.0,0.0,0.0,0.0,0.0,0.0,0.0,0.0,0.0,0.0,0.0,0.0,0.0,0.0,0.0,0.0,0.0,0.0,0.0,0.0,0.0,0.0,0.0,0.0,0.0,0.0,0.0,0.0,0.0,0.0,0.0,0.0,0.0,0.0,0.0,0.0,0.0,0.0,0.0,0.0,0.0,0.0,0.0,0.0,0.0,0.0,0.0,0.0,0.0,0.0,0.0,0.0,0.0,0.0,0.0,0.0,0.0,0.0,0.0,0.0,0.0,0.0,0.0,0.0,0.0,0.0,0.0,0.0,0.0,0.0,0.0,0.0,0.0,0.0,0.0,0.0,0.0,0.0,0.0,0.0,0.0,0.0,0.0,0.0,0.0,0.0,0.0,0.0,0.0,0.0,0.0,0.0,0.0,0.0,0.0,0.0,0.0,0.0,0.0,0.0,0.0,0.0,0.0,0.0,0.0,0.0,0.0,0.0,0.0,0.0,0.0,0.0,0.0,0.0,0.0,0.0,0.0,0.0,0.0,0.0,0.0,0.0,0.0,0.0,0.0,0.0,0.0,0.0,0.0,0.0,0.0,0.0,0.0,0.0,0.0,0.0,0.0,0.0,0.0,0.0,0.0,0.0,0.0,0.0,0.0,0.0,0.0,0.0,0.0,0.0,0.0,0.0,0.0,0.0,0.0,0.0,0.0,0.0,0.0,0.0,0.0,0.0,0.0,0.0,0.0,0.0,0.0,0.0,0.0,0.0,0.0,0.0,0.0,0.0,0.0,0.0,0.0,0.0,0.0,0.0,0.0,0.0,0.0,0.0,0.0,0.0,0.0,0.0,0.0,0.0,0.0,0.0,0.0,0.0,0.0,0.0,0.0,0.0,0.0,0.0,0.0,0.0,0.0,0.0,0.0,0.0,0.0,0.0,0.0,0.0,0.0,0.0,0.0,0.0,0.0,0.0,0.0,0.0,0.0,0.0,0.0,0.0,0.0,0.0,0.0,0.0,0.0,0.0,0.0,0.0,0.0,0.0,0.0,0.0,0.0,0.0,0.0,0.0,0.0,0.0,0.0,0.0,0.0,0.0,0.0,0.0,0.0,0.0,0.0,0.0,0.0,0.0,0.0,0.0,0.0,0.0,0.0,0.0,0.0,0.0,0.0,0.0,0.0,0.0,0.0,0.0,0.0,0.0,0.0,0.0,0.0,0.0,0.0,0.0,0.0,0.0,0.0,0.0,0.0,0.0,0.0,0.0,0.0,0.0,0.0,0.0,0.0,0.0,0.0,0.0,0.0,0.0,0.0,0.0,0.0,0.0,0.0,0.0,0.0,0.0,0.0,0.0,0.0,0.0,0.0,0.0,0.0,0.0,0.0,0.0,0.0,0.0,0.0,0.0,0.0,0.0,0.0,0.0,0.0,0.0,0.0,0.0,0.0,0.0,0.0,0.0,0.0,0.0,0.0,0.0,0.0,0.0,0.0,0.0,0.0,0.0,0.0,0.0,0.0,0.0,0.0,0.0,0.0,0.0,0.0,0.0,0.0,0.0,0.0,0.0,0.0,0.0,0.0,0.0,0.0,0.0,0.0,0.0,0.0,0.0,0.0,0.0,0.0,0.0,0.0,0.0,0.0,0.0,0.0,0.0,0.0,0.0,0.0,0.0,0.0,0.0,0.0,0.0,0.0,0.0,0.0,0.0,0.0,0.0,0.0,0.0,0.0,0.0,0.0,0.0,0.0,0.0,0.0,0.0,0.0,0.0,0.0,0.0,0.0,0.0,0.0,0.0,0.0,0.0,0.0,0.0,0.0,0.0,0.0,0.0,0.0,0.0,0.0,0.0,0.0,0.0,0.0,0.0,0.0,0.0,0.0,0.0,0.0,0.0,0.0,0.0,0.0,0.0,0.0,0.0,0.0,0.0,0.0,0.0,0.0,0.0,0.0,0.0,0.0,0.0,0.0,0.0,0.0,0.0,0.0,0.0,0.0,0.0,0.0,0.0,0.0,0.0,0.0,0.0,0.0,0.0,0.0,0.0,0.0,0.0,0.0,0.0,0.0,0.0,0.0,0.0,0.0,0.0,0.0,0.0,0.0,0.0,0.0,0.0,0.0,0.0,0.0,0.0,0.0,0.0,0.0,0.0,0.0,0.0,0.0,0.0,0.0,0.0,0.0,0.0,0.0,0.0,0.0,0.0,0.0,0.0,0.0,0.0,0.0,0.0,0.0,0.0,0.0,0.0,0.0,0.0,0.0,0.0,0.0,0.0,0.0,0.0,0.0,0.0,0.0,0.0,0.0,0.0,0.0,0.0,0.0,0.0,0.0,0.0,0.0,0.0,0.0,0.0,0.0,0.0,0.0,0.0,0.0,0.0,0.0,0.0,0.0,0.0,0.0,0.0,0.0,0.0,0.0,0.0,0.0,0.0,0.0,0.0,0.0,0.0,0.0,0.0,0.0,0.0,0.0,0.0,0.0,0.0,0.0,0.0,0.0,0.0,0.0,0.0,0.0,0.0,0.0,0.0,0.0,0.0,0.0,0.0,0.0,-6.3545,0.0,0.0,0.0,0.0,0.0,0.0,0.0,0.0,0.0,0.0,0.0,0.0,0.0,0.0,0.0,0.0,0.0,0.0,0.0,0.0,0.0,0.0,0.0,0.0,0.0,0.0,0.0,0.0,0.0,0.0,0.0,0.0,0.0,0.0,0.0,0.0,0.0,0.0,0.0,0.0,0.0,0.0,0.0,0.0,0.0,0.0,0.0,0.0,0.0,0.0,0.0,0.0,0.0,0.0,0.0,0.0,0.0,0.0,0.0,0.0,0.0,0.0,0.0,0.0,0.0,0.0,0.0,0.0,0.0,0.0,0.0,0.0,0.0,0.0,0.0,0.0,0.0,0.0,0.0,0.0,0.0,0.0,0.0,0.0,0.0,0.0,0.0,0.0,0.0,0.0,0.0,0.0,0.0,0.0,0.0,0.0,0.0,0.0,0.0,0.0,0.0,0.0,0.0,0.0,0.0,0.0,0.0,0.0,0.0,0.0,-6.6364,-6.6176,-6.5412,-6.458,-6.37,0.0,0.0,0.0,0.0,0.0,0.0,0.0,0.0,0.0,0.0,0.0,0.0,0.0,0.0,0.0,0.0,0.0,0.0,0.0,0.0,0.0,0.0,0.0,0.0,0.0,0.0,0.0,0.0,0.0,0.0,0.0,0.0,0.0,0.0,0.0,0.0,0.0,0.0,0.0,0.0,0.0,0.0,0.0,0.0,0.0,0.0,0.0,0.0,0.0,0.0,0.0,0.0,0.0,0.0,0.0,0.0,0.0,0.0,0.0,0.0,0.0,0.0,0.0,0.0,0.0,0.0,0.0,0.0,0.0,0.0,0.0,0.0,0.0,0.0,0.0,0.0,0.0,0.0,0.0,0.0,0.0,0.0,0.0,0.0,0.0,0.0,0.0,0.0,0.0,0.0,0.0,0.0,0.0,0.0,0.0,0.0,0.0,0.0,0.0,0.0,0.0,0.0,0.0,0.0,0.0,0.0,0.0,0.0,0.0,0.0,0.0,0.0,-6.5702,-6.458,-6.312,0.0,0.0,0.0,0.0,0.0,0.0,0.0,0.0,0.0,0.0,0.0,0.0,0.0,0.0,0.0,0.0,0.0,0.0,0.0,0.0,0.0,0.0,0.0,0.0,0.0,0.0,0.0,0.0,0.0,0.0,0.0,0.0,0.0,0.0,0.0,0.0,0.0,0.0,0.0,0.0,0.0,0.0,0.0,0.0,0.0,0.0,0.0,0.0,0.0,0.0,0.0,0.0,0.0,0.0,0.0,0.0,0.0,0.0,0.0,0.0,0.0,0.0,0.0,0.0,0.0,0.0,0.0,0.0,0.0,0.0,0.0,0.0,0.0,0.0,0.0,0.0,0.0,0.0,0.0,0.0,0.0,0.0,0.0,0.0,0.0,0.0,0.0,0.0,0.0,0.0,0.0,0.0,0.0,0.0,0.0,0.0,0.0,0.0,0.0,0.0,0.0,0.0,0.0,0.0,0.0,0.0,0.0,0.0,0.0,0.0,-6.6769,-6.7356,-6.6533,0.0,-6.1485,0.0,0.0,0.0,0.0,0.0,0.0,0.0,0.0,0.0,0.0,0.0,0.0,0.0,0.0,0.0,0.0,0.0,0.0,0.0,0.0,0.0,0.0,0.0,0.0,0.0,0.0,0.0,0.0,0.0,0.0,0.0,0.0,0.0,0.0,0.0,0.0,0.0,0.0,0.0,0.0,0.0,0.0,0.0,0.0,0.0,0.0,0.0,0.0,0.0,0.0,0.0,0.0,0.0,0.0,0.0,0.0,0.0,0.0,0.0,0.0,0.0,0.0,0.0,0.0,0.0,0.0,0.0,0.0,0.0,0.0,0.0,0.0,0.0,0.0,0.0,0.0,0.0,0.0,0.0,0.0,0.0,0.0,0.0,0.0,0.0,0.0,0.0,0.0,0.0,0.0,0.0,0.0,0.0,0.0,0.0,0.0,0.0,0.0,0.0,0.0,0.0,0.0,0.0,0.0,0.0,0.0,0.0,0.0,0.0,0.0,-6.7545,-6.8255,-6.6456,-6.3884,0.0,0.0,0.0,0.0,0.0,0.0,0.0,0.0,0.0,0.0,0.0,0.0,0.0,0.0,0.0,0.0,0.0,0.0,0.0,0.0,0.0,0.0,0.0,0.0,0.0,0.0,0.0,0.0,0.0,0.0,0.0,0.0,0.0,0.0,0.0,0.0,0.0,0.0,0.0,0.0,0.0,0.0,0.0,0.0,0.0,0.0,0.0,0.0,0.0,0.0,0.0,0.0,0.0,0.0,0.0,0.0,0.0,0.0,0.0,0.0,0.0,0.0,0.0,0.0,0.0,0.0,0.0,0.0,0.0,0.0,0.0,0.0,0.0,0.0,0.0,0.0,0.0,0.0,0.0,0.0,0.0,0.0,0.0,0.0,0.0,0.0,0.0,0.0,0.0,0.0,0.0,0.0,0.0,0.0,0.0,0.0,0.0,0.0,0.0,0.0,0.0,0.0,0.0,0.0,0.0,0.0,0.0,0.0,0.0,0.0,-6.6659,-6.7487,-6.7627,-6.5508,-6.2801,-5.9629,0.0,0.0,0.0,0.0,0.0,0.0,0.0,0.0,0.0,0.0,0.0,0.0,0.0,0.0,0.0,0.0,0.0,0.0,0.0,0.0,0.0,0.0,0.0,0.0,0.0,0.0,0.0,0.0,0.0,0.0,0.0,0.0,0.0,0.0,0.0,0.0,0.0,0.0,0.0,0.0,0.0,0.0,0.0,0.0,0.0,0.0,0.0,0.0,0.0,0.0,0.0,0.0,0.0,0.0,0.0,0.0,0.0,0.0,0.0,0.0,0.0,0.0,0.0,0.0,0.0,0.0,0.0,0.0,0.0,0.0,0.0,0.0,0.0,0.0,0.0,0.0,0.0,0.0,0.0,0.0,0.0,0.0,0.0,0.0,0.0,0.0,0.0,0.0,0.0,0.0,0.0,0.0,0.0,0.0,0.0,0.0,0.0,0.0,0.0,0.0,0.0,0.0,0.0,0.0,0.0,0.0,0.0,0.0,0.0,-6.6114,-6.6118,-6.5248,-6.3458,-6.1292,0.0,0.0,0.0,0.0,0.0,0.0,0.0,0.0,0.0,0.0,0.0,0.0,0.0,0.0,0.0,0.0,0.0,0.0,0.0,0.0,0.0,0.0,0.0,0.0,0.0,0.0,0.0,0.0,0.0,0.0,0.0,0.0,0.0,0.0,0.0,0.0,0.0,0.0,0.0,0.0,0.0,0.0,0.0,0.0,0.0,0.0,0.0,0.0,0.0,0.0,0.0,0.0,0.0,0.0,0.0,0.0,0.0,0.0,0.0,0.0,0.0,0.0,0.0,0.0,0.0,0.0,0.0,0.0,0.0,0.0,0.0,0.0,0.0,0.0,0.0,0.0,0.0,0.0,0.0,0.0,0.0,0.0,0.0,0.0,0.0,0.0,0.0,0.0,0.0,0.0,0.0,0.0,0.0,0.0,0.0,0.0,0.0,0.0,0.0,0.0,0.0,0.0,0.0,0.0,0.0,0.0,0.0,0.0,0.0,-6.3721,-6.5371,-6.5896,-6.4996,-6.3323,-6.0944,0.0,0.0,0.0,0.0,0.0,0.0,0.0,0.0,0.0,0.0,0.0,0.0,0.0,0.0,0.0,0.0,0.0,0.0,0.0,0.0,0.0,0.0,0.0,0.0,0.0,0.0,0.0,0.0,0.0,0.0,0.0,0.0,0.0,0.0,0.0,0.0,0.0,0.0,0.0,0.0,0.0,0.0,0.0,0.0,0.0,0.0,0.0,0.0,0.0,0.0,0.0,0.0,0.0,0.0,0.0,0.0,0.0,0.0,0.0,0.0,0.0,0.0,0.0,0.0,0.0,0.0,0.0,0.0,0.0,0.0,0.0,0.0,0.0,0.0,0.0,0.0,0.0,0.0,0.0,0.0,0.0,0.0,0.0,0.0,0.0,0.0,0.0,0.0,0.0,0.0,0.0,0.0,0.0,0.0,0.0,0.0,0.0,0.0,0.0,0.0,0.0,0.0,0.0,0.0,0.0,0.0,0.0,0.0,0.0,-6.3993,0.0,-6.5712,0.0,-6.2907,-6.0354,0.0,0.0,0.0,0.0,0.0,0.0,0.0,0.0,0.0,0.0,0.0,0.0,0.0,0.0,0.0,0.0,0.0,0.0,0.0,0.0,0.0,0.0,0.0,0.0,0.0,0.0,0.0,0.0,0.0,0.0,0.0,0.0,0.0,0.0,0.0,0.0,0.0,0.0,0.0,0.0,0.0,0.0,0.0,0.0,0.0,0.0,0.0,0.0,0.0,0.0,0.0,0.0,0.0,0.0,0.0,0.0,0.0,0.0,0.0,0.0,0.0,0.0,0.0,0.0,0.0,0.0,0.0,0.0,0.0,0.0,0.0,0.0,0.0,0.0,0.0,0.0,0.0,0.0,0.0,0.0,0.0,0.0,0.0,0.0,0.0,0.0,0.0,0.0,0.0,0.0,0.0,0.0,0.0,0.0,0.0,0.0,0.0,0.0,0.0,0.0,0.0,0.0,0.0,0.0,0.0,0.0,0.0,0.0,-6.501,-6.6438,-6.6361,-6.5544,-6.3863,-6.2075,-5.9513,0.0,0.0,0.0,0.0,0.0,0.0,0.0,0.0,0.0,0.0,0.0,0.0,0.0,0.0,0.0,0.0,0.0,0.0,0.0,0.0,0.0,0.0,0.0,0.0,0.0,0.0,0.0,0.0,0.0,0.0,0.0,0.0,0.0,0.0,0.0,0.0,0.0,0.0,0.0,0.0,0.0,0.0,0.0,0.0,0.0,0.0,0.0,0.0,0.0,0.0,0.0,0.0,0.0,0.0,0.0,0.0,0.0,0.0,0.0,0.0,0.0,0.0,0.0,0.0,0.0,0.0,0.0,0.0,0.0,0.0,0.0,0.0,0.0,0.0,0.0,0.0,0.0,0.0,0.0,0.0,0.0,0.0,0.0,0.0,0.0,0.0,0.0,0.0,0.0,0.0,0.0,0.0,0.0,0.0,0.0,0.0,0.0,0.0,0.0,0.0,0.0,0.0,0.0,0.0,0.0,0.0,0.0,0.0,0.0,-6.5742,-6.6171,-6.5824,-6.4662,-6.1822,-5.9203,0.0,0.0,0.0,0.0,0.0,0.0,0.0,0.0,0.0,0.0,0.0,0.0,0.0,0.0,0.0,0.0,0.0,0.0,0.0,0.0,0.0,0.0,0.0,0.0,0.0,0.0,0.0,0.0,0.0,0.0,0.0,0.0,0.0,0.0,0.0,0.0,0.0,0.0,0.0,0.0,0.0,0.0,0.0,0.0,0.0,0.0,0.0,0.0,0.0,0.0,0.0,0.0,0.0,0.0,0.0,0.0,0.0,0.0,0.0,0.0,0.0,0.0,0.0,0.0,0.0,0.0,0.0,0.0,0.0,0.0,0.0,0.0,0.0,0.0,0.0,0.0,0.0,0.0,0.0,0.0,0.0,0.0,0.0,0.0,0.0,0.0,0.0,0.0,0.0,0.0,0.0,0.0,0.0,0.0,0.0,0.0,0.0,0.0,0.0,0.0,0.0,0.0,0.0,0.0,0.0,0.0,0.0,0.0,0.0,-6.7321,-6.7737,-6.7189,-6.5673,-6.284,-6.0069,-5.7392,0.0,0.0,0.0,0.0,0.0,0.0,0.0,0.0,0.0,0.0,0.0,0.0,0.0,0.0,0.0,0.0,0.0,0.0,0.0,0.0,0.0,0.0,0.0,0.0,0.0,0.0,0.0,0.0,0.0,0.0,0.0,0.0,0.0,0.0,0.0,0.0,0.0,0.0,0.0,0.0,0.0,0.0,0.0,0.0,0.0,0.0,0.0,0.0,0.0,0.0,0.0,0.0,0.0,0.0,0.0,0.0,0.0,0.0,0.0,0.0,0.0,0.0,0.0,0.0,0.0,0.0,0.0,0.0,0.0,0.0,0.0,0.0,0.0,0.0,0.0,0.0,0.0,0.0,0.0,0.0,0.0,0.0,0.0,0.0,0.0,0.0,0.0,0.0,0.0,0.0,0.0,0.0,0.0,0.0,0.0,0.0,0.0,0.0,0.0,0.0,0.0,0.0,0.0,0.0,0.0,0.0,0.0,0.0,-7.0673,-7.0754,-6.9501,-6.6821,-6.4815,-6.1868,0.0,0.0,0.0,0.0,0.0,0.0,0.0,0.0,0.0,0.0,0.0,0.0,0.0,0.0,0.0,0.0,0.0,0.0,0.0,0.0,0.0,0.0,0.0,0.0,0.0,0.0,0.0,0.0,0.0,0.0,0.0,0.0,0.0,0.0,0.0,0.0,0.0,0.0,0.0,0.0,0.0,0.0,0.0,0.0,0.0,0.0,0.0,0.0,0.0,0.0,0.0,0.0,0.0,0.0,0.0,0.0,0.0,0.0,0.0,0.0,0.0,0.0,0.0,0.0,0.0,0.0,0.0,0.0,0.0,0.0,0.0,0.0,0.0,0.0,0.0,0.0,0.0,0.0,0.0,0.0,0.0,0.0,0.0,0.0,0.0,0.0,0.0,0.0,0.0,0.0,0.0,0.0,0.0,0.0,0.0,0.0,0.0,0.0,0.0,0.0,0.0,0.0,0.0,0.0,0.0,0.0,0.0,0.0,0.0,-7.0679,-7.3123,-7.2841,-6.9521,-6.5829,-6.275,0.0,0.0,0.0,0.0,0.0,0.0,0.0,0.0,0.0,0.0,0.0,0.0,0.0,0.0,0.0,0.0,0.0,0.0,0.0,0.0,0.0,0.0,0.0,0.0,0.0,0.0,0.0,0.0,0.0,0.0,0.0,0.0,0.0,0.0,0.0,0.0,0.0,0.0,0.0,0.0,0.0,0.0,0.0,0.0,0.0,0.0,0.0,0.0,0.0,0.0,0.0,0.0,0.0,0.0,0.0,0.0,0.0,0.0,0.0,0.0,0.0,0.0,0.0,0.0,0.0,0.0,0.0,0.0,0.0,0.0,0.0,0.0,0.0,0.0,0.0,0.0,0.0,0.0,0.0,0.0,0.0,0.0,0.0,0.0,0.0,0.0,0.0,0.0,0.0,0.0,0.0,0.0,0.0,0.0,0.0,0.0,0.0,0.0,0.0,0.0,0.0,0.0,0.0,0.0,0.0,0.0,0.0,0.0,-6.9355,-7.0702,-7.406,-7.4316,-7.1156,-6.7498,-6.4045,0.0,0.0,0.0,0.0,0.0,0.0,0.0,0.0,0.0,0.0,0.0,0.0,0.0,0.0,0.0,0.0,0.0,0.0,0.0,0.0,0.0,0.0,0.0,0.0,0.0,0.0,0.0,0.0,0.0,0.0,0.0,0.0,0.0,0.0,0.0,0.0,0.0,0.0,0.0,0.0,0.0,0.0,0.0,0.0,0.0,0.0,0.0,0.0,0.0,0.0,0.0,0.0,0.0,0.0,0.0,0.0,0.0,0.0,0.0,0.0,0.0,0.0,0.0,0.0,0.0,0.0,0.0,0.0,0.0,0.0,0.0,0.0,0.0,0.0,0.0,0.0,0.0,0.0,0.0,0.0,0.0,0.0,0.0,0.0,0.0,0.0,0.0,0.0,0.0,0.0,0.0,0.0,0.0,0.0,0.0,0.0,0.0,0.0,0.0,0.0,0.0,0.0,0.0,0.0,0.0,0.0,0.0,0.0,-6.9746,-7.0722,-7.4004,-7.4508,-7.1858,-6.9202,-6.5524,0.0,0.0,0.0,0.0,0.0,0.0,0.0,0.0,0.0,0.0,0.0,0.0,0.0,0.0,0.0,0.0,0.0,0.0,0.0,0.0,0.0,0.0,0.0,0.0,0.0,0.0,0.0,0.0,0.0,0.0,0.0,0.0,0.0,0.0,0.0,0.0,0.0,0.0,0.0,0.0,0.0,0.0,0.0,0.0,0.0,0.0,0.0,0.0,0.0,0.0,0.0,0.0,0.0,0.0,0.0,0.0,0.0,0.0,0.0,0.0,0.0,0.0,0.0,0.0,0.0,0.0,0.0,0.0,0.0,0.0,0.0,0.0,0.0,0.0,0.0,0.0,0.0,0.0,0.0,0.0,0.0,0.0,0.0,0.0,0.0,0.0,0.0,0.0,0.0,0.0,0.0,0.0,0.0,0.0,0.0,0.0,0.0,0.0,0.0,0.0,0.0,0.0,0.0,0.0,0.0,0.0,0.0,0.0,-6.9199,-7.0703,-7.3437,-7.3611,-7.1013,-6.8948,-6.6382,0.0,0.0,0.0,0.0,0.0,0.0,0.0,0.0,0.0,0.0,0.0,0.0,0.0,0.0,0.0,0.0,0.0,0.0,0.0,0.0,0.0,0.0,0.0,0.0,0.0,0.0,0.0,0.0,0.0,0.0,0.0,0.0,0.0,0.0,0.0,0.0,0.0,0.0,0.0,0.0,0.0,0.0,0.0,0.0,0.0,0.0,0.0,0.0,-5.5194,0.0,0.0,0.0,0.0,0.0,0.0,0.0,0.0,0.0,0.0,0.0,0.0,0.0,0.0,0.0,0.0,0.0,0.0,0.0,0.0,0.0,0.0,0.0,0.0,0.0,0.0,0.0,0.0,0.0,0.0,0.0,0.0,0.0,0.0,0.0,0.0,0.0,0.0,0.0,0.0,0.0,0.0,0.0,0.0,0.0,0.0,0.0,0.0,0.0,0.0,0.0,0.0,0.0,0.0,0.0,0.0,0.0,0.0,0.0,-6.9198,-7.0116,-7.2636,-7.2929,-7.0791,-6.9308,-6.6921,0.0,0.0,0.0,0.0,0.0,0.0,0.0,0.0,0.0,0.0,0.0,0.0,0.0,0.0,0.0,0.0,0.0,0.0,0.0,0.0,0.0,0.0,0.0,0.0,0.0,0.0,0.0,0.0,0.0,0.0,0.0,0.0,0.0,0.0,0.0,0.0,0.0,0.0,0.0,0.0,0.0,0.0,0.0,0.0,0.0,0.0,0.0,0.0,0.0,0.0,0.0,0.0,0.0,0.0,0.0,0.0,0.0,0.0,0.0,0.0,0.0,0.0,0.0,0.0,0.0,0.0,0.0,0.0,0.0,0.0,0.0,0.0,0.0,0.0,0.0,0.0,0.0,0.0,0.0,0.0,0.0,0.0,0.0,0.0,0.0,0.0,0.0,0.0,0.0,0.0,0.0,0.0,0.0,0.0,0.0,0.0,0.0,0.0,0.0,0.0,0.0,0.0,0.0,0.0,0.0,0.0,0.0,-6.6483,-6.8962,-6.9274,-7.1501,-7.1874,-7.0174,-6.922,-6.673,-6.2474,0.0,0.0,0.0,0.0,0.0,0.0,0.0,0.0,0.0,0.0,0.0,0.0,0.0,0.0,0.0,0.0,0.0,0.0,0.0,0.0,0.0,0.0,0.0,0.0,0.0,0.0,0.0,0.0,0.0,0.0,0.0,0.0,0.0,0.0,0.0,0.0,0.0,0.0,-5.2871,-5.5039,0.0,0.0,0.0,0.0,0.0,0.0,0.0,0.0,-5.3284,0.0,0.0,0.0,0.0,0.0,0.0,0.0,0.0,0.0,0.0,0.0,0.0,0.0,0.0,0.0,0.0,0.0,0.0,0.0,0.0,0.0,0.0,0.0,0.0,0.0,0.0,0.0,0.0,0.0,0.0,0.0,0.0,0.0,0.0,0.0,0.0,0.0,0.0,0.0,0.0,0.0,0.0,0.0,0.0,0.0,0.0,0.0,0.0,0.0,0.0,0.0,0.0,0.0,0.0,0.0,0.0,-6.2752,-6.5056,-6.689,-6.8291,-6.9449,-6.9237,-6.7597,-6.6653,-6.4484,-6.0861,0.0,0.0,0.0,0.0,0.0,0.0,0.0,0.0,0.0,0.0,0.0,0.0,0.0,0.0,0.0,0.0,0.0,0.0,0.0,0.0,0.0,0.0,0.0,0.0,0.0,0.0,0.0,0.0,0.0,0.0,0.0,0.0,0.0,0.0,0.0,0.0,0.0,0.0,0.0,-5.541,-5.6621,0.0,0.0,0.0,0.0,0.0,0.0,0.0,0.0,-5.3302,0.0,0.0,0.0,0.0,0.0,0.0,0.0,0.0,0.0,0.0,0.0,0.0,0.0,0.0,0.0,0.0,0.0,0.0,0.0,0.0,0.0,0.0,0.0,0.0,0.0,0.0,0.0,0.0,0.0,0.0,0.0,0.0,0.0,0.0,0.0,0.0,0.0,0.0,0.0,0.0,0.0,0.0,0.0,0.0,0.0,0.0,0.0,0.0,0.0,0.0,0.0,0.0,0.0,0.0,0.0,-6.1596,-6.4679,-6.6628,-6.7445,-6.8717,-6.8389,-6.6283,-6.4941,-6.2594,0.0,0.0,0.0,0.0,0.0,0.0,0.0,0.0,0.0,0.0,0.0,0.0,0.0,0.0,0.0,0.0,0.0,0.0,0.0,0.0,0.0,0.0,0.0,0.0,0.0,0.0,0.0,0.0,0.0,0.0,0.0,0.0,0.0,0.0,0.0,0.0,0.0,0.0,0.0,0.0,-5.5879,-5.7265,-5.7265,0.0,0.0,0.0,0.0,0.0,0.0,-5.2671,-5.253,0.0,0.0,0.0,0.0,0.0,0.0,0.0,0.0,0.0,0.0,0.0,0.0,0.0,0.0,0.0,0.0,0.0,0.0,0.0,0.0,0.0,0.0,0.0,0.0,0.0,0.0,0.0,0.0,0.0,0.0,0.0,0.0,0.0,0.0,0.0,0.0,0.0,0.0,0.0,0.0,0.0,0.0,0.0,0.0,0.0,0.0,0.0,0.0,0.0,0.0,0.0,0.0,0.0,0.0,0.0,-6.0146,-6.4044,-6.6108,-6.634,-6.7652,-6.7242,-6.4882,-6.3137,-6.0605,0.0,0.0,0.0,0.0,0.0,0.0,0.0,0.0,0.0,0.0,0.0,0.0,0.0,0.0,0.0,0.0,0.0,0.0,0.0,0.0,0.0,0.0,0.0,0.0,0.0,0.0,0.0,0.0,0.0,0.0,0.0,0.0,0.0,0.0,0.0,0.0,0.0,0.0,0.0,0.0,0.0,-5.789,-5.789,-5.789,0.0,0.0,0.0,0.0,-5.2968,-5.2381,0.0,0.0,0.0,0.0,0.0,0.0,0.0,0.0,0.0,0.0,0.0,0.0,0.0,0.0,0.0,0.0,0.0,0.0,0.0,0.0,0.0,0.0,0.0,0.0,0.0,0.0,0.0,0.0,0.0,0.0,0.0,0.0,0.0,0.0,0.0,0.0,0.0,0.0,0.0,0.0,0.0,0.0,0.0,0.0,0.0,0.0,0.0,0.0,0.0,0.0,0.0,0.0,0.0,0.0,0.0,0.0,-5.92,-6.201,-6.38,-6.4536,-6.4798,-6.4001,-6.2186,-6.052,-5.8007,0.0,0.0,0.0,0.0,0.0,0.0,0.0,0.0,0.0,0.0,0.0,0.0,0.0,0.0,0.0,0.0,0.0,0.0,0.0,0.0,0.0,0.0,0.0,0.0,0.0,0.0,0.0,0.0,0.0,0.0,0.0,0.0,0.0,0.0,0.0,0.0,0.0,0.0,0.0,0.0,0.0,-5.789,-5.789,-5.789,-5.7285,0.0,0.0,-5.3848,-5.3847,-5.3769,0.0,0.0,0.0,0.0,0.0,0.0,0.0,0.0,0.0,0.0,0.0,0.0,0.0,0.0,0.0,0.0,0.0,0.0,0.0,0.0,0.0,0.0,0.0,0.0,0.0,0.0,0.0,0.0,0.0,0.0,0.0,0.0,0.0,0.0,0.0,0.0,0.0,0.0,0.0,0.0,0.0,0.0,0.0,0.0,0.0,0.0,0.0,0.0,0.0,0.0,0.0,0.0,0.0,0.0,0.0,-5.4236,-5.7647,-6.0712,-6.2701,-6.3535,-6.403,-6.3232,-6.1026,-5.9301,-5.6553,0.0,0.0,0.0,0.0,0.0,0.0,0.0,0.0,0.0,0.0,0.0,0.0,0.0,0.0,0.0,0.0,0.0,0.0,0.0,0.0,0.0,0.0,0.0,0.0,0.0,0.0,0.0,0.0,0.0,0.0,0.0,0.0,0.0,0.0,0.0,0.0,0.0,0.0,0.0,0.0,0.0,0.0,-5.789,-5.832,0.0,0.0,0.0,-5.5625,-5.6133,0.0,0.0,0.0,0.0,0.0,0.0,0.0,0.0,0.0,0.0,0.0,0.0,0.0,0.0,0.0,0.0,0.0,0.0,0.0,0.0,0.0,0.0,0.0,0.0,0.0,0.0,0.0,0.0,0.0,0.0,0.0,0.0,0.0,0.0,0.0,0.0,0.0,0.0,0.0,0.0,0.0,0.0,0.0,0.0,0.0,0.0,0.0,0.0,0.0,0.0,0.0,0.0,0.0,0.0,0.0,0.0,0.0,-5.5942,-5.9317,-6.1369,-6.1993,-6.2676,-6.1954,-5.9807,-5.8295,0.0,0.0,0.0,0.0,0.0,0.0,0.0,0.0,0.0,0.0,0.0,0.0,0.0,0.0,0.0,0.0,0.0,0.0,0.0,0.0,0.0,0.0,0.0,0.0,0.0,0.0,0.0,-4.334,0.0,0.0,0.0,0.0,0.0,0.0,0.0,0.0,0.0,0.0,0.0,0.0,0.0,0.0,-5.7578,-5.7578,-5.8672,-5.9043,0.0,0.0,-5.6738,-5.7168,-5.6523,-5.5566,0.0,0.0,0.0,0.0,0.0,0.0,0.0,0.0,0.0,0.0,0.0,0.0,0.0,0.0,0.0,0.0,0.0,0.0,0.0,0.0,0.0,0.0,0.0,0.0,0.0,0.0,0.0,0.0,0.0,0.0,0.0,0.0,0.0,0.0,0.0,0.0,0.0,0.0,0.0,0.0,0.0,0.0,0.0,0.0,0.0,0.0,0.0,0.0,0.0,0.0,0.0,0.0,0.0,0.0,0.0,-5.4225,-5.7541,-5.9317,-5.9375,-5.9417,-5.8968,-5.7992,-5.7124,-5.5018,0.0,0.0,0.0,0.0,0.0,0.0,0.0,0.0,0.0,0.0,0.0,0.0,0.0,0.0,0.0,0.0,0.0,0.0,0.0,0.0,0.0,0.0,0.0,0.0,0.0,0.0,0.0,0.0,0.0,0.0,0.0,0.0,0.0,0.0,0.0,0.0,0.0,0.0,0.0,0.0,0.0,-5.668,-5.6699,-5.8769,-5.9453,0.0,0.0,-5.6328,-5.5605,-5.4765,-5.3594,-5.1933,0.0,0.0,0.0,0.0,0.0,0.0,0.0,0.0,0.0,0.0,0.0,0.0,0.0,0.0,0.0,0.0,0.0,0.0,0.0,0.0,0.0,0.0,0.0,0.0,0.0,0.0,0.0,0.0,0.0,0.0,0.0,0.0,0.0,0.0,0.0,0.0,0.0,0.0,0.0,0.0,0.0,0.0,0.0,0.0,0.0,0.0,0.0,0.0,0.0,0.0,0.0,0.0,0.0,-5.0692,-5.3971,-5.6352,-5.805,-5.9063,-5.9122,-5.8695,-5.7836,-5.702,-5.4972,0.0,0.0,0.0,0.0,0.0,0.0,0.0,0.0,0.0,0.0,0.0,0.0,0.0,0.0,0.0,0.0,0.0,0.0,0.0,0.0,0.0,0.0,0.0,0.0,0.0,0.0,0.0,0.0,-4.3808,-4.3906,-4.373,0.0,0.0,0.0,0.0,0.0,0.0,0.0,0.0,0.0,0.0,-5.6172,-5.7246,-5.9121,0.0,0.0,-5.8203,-5.791,-5.7031,-5.5703,-5.4219,-5.248,-4.9922,0.0,0.0,0.0,0.0,0.0,0.0,0.0,0.0,0.0,0.0,0.0,0.0,0.0,0.0,0.0,0.0,0.0,0.0,0.0,0.0,0.0,0.0,0.0,0.0,0.0,0.0,0.0,0.0,0.0,0.0,0.0,0.0,0.0,0.0,0.0,0.0,0.0,0.0,0.0,0.0,0.0,0.0,0.0,0.0,0.0,0.0,0.0,0.0,0.0,0.0,0.0,0.0,-4.9293,-5.2765,-5.4772,-5.6352,-5.7526,-5.7548,-5.726,-5.666,-5.6116,-5.4303,0.0,0.0,0.0,0.0,0.0,0.0,0.0,0.0,0.0,0.0,0.0,0.0,0.0,0.0,0.0,0.0,0.0,0.0,0.0,0.0,0.0,0.0,0.0,0.0,0.0,0.0,0.0,0.0,-4.4238,-4.3984,-4.3379,0.0,0.0,0.0,0.0,0.0,0.0,0.0,0.0,0.0,0.0,-5.6132,-5.7362,-5.9608,-6.0702,-5.9354,-5.9179,-5.869,-5.7323,-5.5663,-5.3847,-5.1874,0.0,0.0,0.0,0.0,0.0,0.0,0.0,0.0,0.0,0.0,0.0,0.0,0.0,0.0,0.0,0.0,0.0,0.0,0.0,0.0,0.0,0.0,0.0,0.0,0.0,0.0,0.0,-5.1297,0.0,0.0,-4.8738,0.0,0.0,0.0,0.0,0.0,0.0,0.0,0.0,0.0,0.0,0.0,0.0,0.0,0.0,0.0,0.0,0.0,0.0,0.0,0.0,0.0,0.0,-4.8362,-5.0108,-5.2699,-5.4009,-5.4086,-5.404,-5.4114,-5.4131,-5.4064,-5.2819,-5.0143,0.0,0.0,0.0,0.0,0.0,0.0,0.0,0.0,0.0,0.0,0.0,0.0,0.0,0.0,0.0,0.0,0.0,0.0,0.0,0.0,0.0,0.0,0.0,0.0,0.0,0.0,-4.2598,-4.2461,-4.248,0.0,0.0,0.0,0.0,0.0,0.0,0.0,0.0,0.0,0.0,-5.3859,-5.6573,-5.6671,-6.0225,-6.1864,-5.9404,-5.9073,-5.8194,-5.5752,-5.3878,-5.1887,0.0,0.0,0.0,0.0,0.0,0.0,0.0,0.0,0.0,0.0,0.0,0.0,0.0,0.0,0.0,0.0,0.0,0.0,0.0,0.0,0.0,0.0,0.0,0.0,0.0,0.0,0.0,-5.2426,-5.2152,0.0,0.0,0.0,0.0,0.0,0.0,0.0,0.0,0.0,0.0,0.0,-5.2132,-5.1319,0.0,0.0,0.0,0.0,0.0,0.0,0.0,0.0,0.0,0.0,0.0,0.0,-4.7673,-4.9908,-5.1858,-5.3142,-5.3749,-5.3802,-5.3852,-5.3919,-5.3416,-5.1375,-4.7686,0.0,0.0,0.0,0.0,0.0,0.0,0.0,0.0,0.0,0.0,0.0,0.0,0.0,0.0,0.0,0.0,0.0,0.0,0.0,0.0,0.0,0.0,0.0,0.0,0.0,-4.3357,0.0,0.0,0.0,0.0,0.0,0.0,0.0,0.0,0.0,0.0,0.0,-4.8652,-5.2048,-5.4258,-5.5939,-5.7093,-5.8988,-5.9557,0.0,0.0,0.0,0.0,0.0,0.0,0.0,0.0,0.0,0.0,0.0,0.0,0.0,0.0,-4.831,-4.8021,-4.6846,-4.587,-4.587,0.0,0.0,0.0,0.0,0.0,0.0,0.0,0.0,0.0,0.0,0.0,0.0,0.0,0.0,-5.4022,0.0,-5.2869,0.0,0.0,0.0,0.0,0.0,0.0,0.0,0.0,-5.4434,-5.4495,-5.4186,-5.3386,-5.2401,0.0,-5.0992,-4.9749,0.0,0.0,0.0,0.0,0.0,0.0,0.0,0.0,-4.6863,-4.9351,-5.0712,-5.1819,-5.2714,-5.2825,-5.2897,-5.2937,-5.1882,-4.9869,-4.6784,-4.448,-4.2314,0.0,0.0,0.0,0.0,0.0,0.0,0.0,0.0,0.0,0.0,0.0,0.0,0.0,0.0,0.0,0.0,0.0,0.0,0.0,0.0,0.0,0.0,0.0,-4.3276,0.0,0.0,0.0,0.0,0.0,0.0,0.0,0.0,0.0,-4.8402,-4.8678,-4.99,-5.3253,-5.4699,-5.5969,-5.74,0.0,0.0,0.0,0.0,0.0,0.0,0.0,-5.0345,-5.0337,-4.8911,-4.7743,-4.7743,-4.8529,-4.9335,-4.9918,0.0,0.0,-4.9802,-4.8584,-4.7549,-4.7217,-4.6261,-4.5382,-4.5129,-4.5285,-4.548,0.0,0.0,0.0,0.0,0.0,0.0,0.0,0.0,-5.5985,-5.5423,0.0,-5.3624,0.0,0.0,0.0,0.0,0.0,-5.2608,0.0,0.0,-5.6171,-5.6503,-5.5656,-5.4829,-5.4472,-5.4395,-5.3472,-5.2252,-5.0619,-4.7604,0.0,0.0,0.0,0.0,0.0,0.0,-4.5953,-4.8373,-4.9202,-5.0015,-5.0893,-5.0985,-5.105,-5.1074,-4.9538,-4.8277,-4.7377,-4.574,-4.3692,-4.1195,-4.0279,0.0,0.0,0.0,0.0,0.0,0.0,0.0,0.0,0.0,0.0,0.0,0.0,0.0,0.0,0.0,0.0,0.0,0.0,0.0,0.0,-4.3512,0.0,0.0,0.0,0.0,0.0,0.0,0.0,0.0,0.0,0.0,-4.8588,-5.0194,-5.1857,-5.3583,0.0,0.0,0.0,0.0,-5.8746,-5.8682,-5.7301,-5.6191,-5.6186,-5.336,-5.1118,-5.121,0.0,0.0,-4.8677,-4.9409,-5.0026,-5.0037,-5.0768,-5.1381,-5.1352,-5.0561,-4.9737,-4.8976,-4.8665,-4.8488,-4.7861,-4.7922,-4.8429,-6.2551,0.0,0.0,0.0,0.0,-5.9224,-5.9057,-5.9263,-5.8007,-5.7579,-5.7727,-5.6449,0.0,0.0,0.0,0.0,0.0,0.0,-5.4101,-5.5441,-5.588,-5.5945,-5.5665,-5.4876,-5.4184,-5.3549,-5.2683,-5.1751,-5.0662,-4.8596,-4.6756,-4.5204,0.0,0.0,0.0,0.0,-4.6078,-4.7384,-4.8152,-4.872,-4.908,-4.9105,-4.9168,-4.9259,-4.82,-4.7524,-4.7252,-4.5609,-4.4088,-4.2762,-4.1357,0.0,0.0,0.0,0.0,0.0,0.0,0.0,0.0,0.0,0.0,0.0,0.0,0.0,0.0,0.0,0.0,0.0,0.0,0.0,-4.1662,-4.2774,-4.2903,0.0,0.0,0.0,0.0,0.0,0.0,0.0,0.0,0.0,-5.0035,-5.1236,-5.2766,0.0,0.0,-5.5525,-5.6339,-5.6191,-5.5978,-5.5978,-5.5028,0.0,-5.5137,-5.2346,-5.0544,-5.1726,-5.0498,-4.9561,-5.0143,-5.0494,-5.0728,-5.0758,-5.1043,-5.1268,-5.1205,-5.0625,-5.0034,-4.9739,-4.9269,-4.8836,-4.8602,-4.8246,-4.7951,-6.4012,-6.3012,-6.2147,-6.1781,-6.1743,-6.1278,-6.0908,-6.0624,-6.0136,-5.9743,-5.932,-5.8201,-5.6435,-5.4226,-5.274,0.0,0.0,0.0,-5.4486,-5.5756,-5.5378,-5.5222,-5.5184,-5.4376,-5.3549,-5.2683,-5.2154,-5.1308,-5.0192,-4.9179,-4.7871,-4.6305,0.0,0.0,-4.4595,-4.4972,-4.5762,-4.6921,-4.7391,-4.7834,-4.8249,-4.8272,-4.8358,-4.8438,-4.7623,-4.7151,-4.7151,-4.5826,-4.4696,-4.3856,-4.2257,-4.0766,0.0,0.0,0.0,0.0,0.0,0.0,0.0,0.0,0.0,0.0,0.0,-3.7973,-3.7962,0.0,0.0,0.0,-4.1035,-4.1766,-4.1379,-4.2867,0.0,0.0,0.0,0.0,0.0,0.0,0.0,-4.6228,-4.7463,-4.9025,-5.1176,-5.1908,-5.2898,-5.4774,-5.4581,-5.4465,-5.4929,0.0,-5.4291,-5.4291,-5.3536,-5.3285,-5.4097,-5.1989,-5.0531,-5.1505,-5.0887,-5.0357,-5.0782,-5.094,-5.0901,-5.0672,-5.0636,-5.0548,-5.0217,-4.982,-4.9562,-4.9548,-4.9453,-4.9141,-4.8515,-4.8201,-4.8081,-6.4666,-6.4512,-6.3743,-6.332,-6.3205,-6.3192,-6.2743,-6.2024,-6.1985,-6.1543,-6.0685,-5.905,-5.73,-5.5472,-5.3164,0.0,-5.4511,-5.4568,-5.4934,-5.5568,-5.4838,-5.4472,-5.4337,-5.351,-5.2683,-5.1904,-5.1769,-5.0904,-4.9452,-4.926,-4.8432,-4.6894,-4.5357,-4.4578,-4.4561,-4.4523,-4.5255,-4.6763,-4.6796,-4.719,-4.7955,-4.805,-4.8106,-4.8133,-4.7417,-4.6965,-4.6965,-4.6211,-4.5418,-4.4599,-4.3047,-4.1829,-4.0965,0.0,0.0,0.0,0.0,0.0,0.0,0.0,0.0,0.0,0.0,0.0,0.0,0.0,0.0,0.0,-4.1803,0.0,-4.2177,-4.348,0.0,0.0,0.0,-4.3238,-4.3388,-4.4852,-4.6232,-4.7096,0.0,0.0,-5.1873,-5.2086,-5.2395,-5.3188,-5.3343,-5.342,-5.3498,-5.3478,-5.342,-5.3517,-5.2782,-5.2539,-5.3362,-5.2028,-5.0763,-5.0654,-5.0705,-5.0569,-5.0589,-5.0646,-5.0433,-4.9795,-4.9677,-4.9499,-4.8725,-4.8712,-4.8665,-4.8604,-4.927,-4.9398,-4.8097,-4.816,-4.8535,-6.5205,-6.4589,-6.4378,-6.3551,-6.2377,-6.2377,-6.1897,-6.1127,-6.1108,-6.0993,-6.0685,-5.9031,-5.6992,-5.4761,-5.4164,-5.4107,-5.453,-5.5145,-5.5184,-5.478,-5.4607,-5.4145,-5.3491,-5.2615,-5.2096,-5.1827,-5.0606,-4.9798,-4.9356,-4.8105,-4.7298,-4.6874,-4.586,-4.5318,-4.5329,-4.5321,-4.5505,-4.5911,-4.5902,-4.5998,-4.6208,-4.6226,-4.6262,-4.626,-4.6086,-4.5943,-4.5943,-4.575,-4.5539,-4.5307,-4.3798,-4.2549,-4.168,-3.9309,0.0,0.0,0.0,0.0,0.0,0.0,0.0,0.0,0.0,-3.6375,-3.6969,0.0,-3.8646,0.0,-4.177,-4.3134,-4.2944,-4.3809,0.0,0.0,-4.3209,-4.3482,-4.4146,-4.5167,-4.6406,-4.7908,-4.9049,-5.0074,-5.1099,-5.1207,-5.1293,-5.1505,-5.2105,-5.2743,-5.3362,-5.2917,-5.2751,-5.3246,-5.2693,-5.2519,-5.3091,-5.2047,-5.0453,-4.9204,-4.901,-4.901,-4.8991,-4.9018,-4.8936,-4.8783,-4.8732,-4.865,-4.8444,-4.849,-4.8289,-4.7855,-4.8406,-4.8992,-4.8553,-4.8149,-4.7825,-6.5007,-6.457,-6.4185,-6.3262,-6.212,-6.2474,-6.2166,-6.1389,-6.1377,-6.1166,-6.0704,-5.9031,-5.7088,-5.5068,-5.5049,-5.503,-5.503,-5.5126,-5.4914,-5.4453,-5.3703,-5.3087,-5.2587,-5.176,-5.1164,-5.076,-4.9837,-4.9009,-4.8259,-4.7336,-4.6701,-4.6317,-4.5845,-4.5594,-4.5594,-4.5594,-4.5594,-4.5594,-4.5594,-4.5594,-4.5594,-4.5594,-4.5594,-4.5594,-4.5229,-4.5037,-4.5037,-4.469,-4.4652,-4.496,-4.3497,-4.2587,-4.2437,-3.974,-3.7586,0.0,0.0,0.0,0.0,0.0,0.0,0.0,0.0,0.0,0.0,0.0,-3.9818,-4.1,-4.2676,-4.3694,-4.367,-4.4421,-4.4784,-4.4357,-4.4322,-4.4492,-4.4978,-4.58,-4.673,-4.7712,-4.8562,-4.9413,-5.0241,-5.0357,-5.0511,-5.084,-5.1003,-5.1389,-5.2124,-5.1912,-5.1815,-5.2221,-5.1621,-5.108,-5.1254,-5.0422,-4.9494,-4.8643,-4.8411,-4.8411,-4.8411,-4.8411,-4.8295,-4.7927,-4.7811,-4.7676,-4.7335,-4.7313,-4.7184,-4.6951,-4.7192,-4.7564,-4.7635,-4.7257,-4.694,-6.4494,-6.4224,-6.3474,-6.2685,-6.2005,-6.2685,-6.257,-6.1947,-6.1928,-6.1358,-6.0377,-5.8819,-5.7223,-5.5703,-5.5684,-5.5626,-5.5491,-5.4818,-5.4376,-5.4087,-5.2596,-5.1846,-5.1722,-5.0914,-5.0125,-4.9394,-4.9183,-4.8317,-4.6923,-4.6778,-4.6336,-4.5614,-4.5594,-4.5594,-4.5594,-4.5498,-4.5413,-4.5441,-4.5441,-4.5364,-4.5287,-4.5287,-4.5287,-4.5248,-4.4547,-4.4143,-4.4124,-4.347,-4.3412,-4.4047,-4.2702,-4.2233,-4.2899,-4.0003,-3.7893,0.0,-3.6217,0.0,0.0,0.0,0.0,0.0,0.0,0.0,0.0,-4.0235,-4.1462,-4.3113,-4.3893,-4.4335,-4.4451,-4.5171,-4.5631,-4.5684,-4.5693,-4.5679,-4.5711,-4.6479,-4.7036,-4.7094,-4.7809,-4.8616,-4.939,-4.9533,-4.9815,-5.0299,-4.9958,-4.9861,-5.0415,-5.055,-5.055,-5.0569,-4.9997,-4.9397,-4.8662,-4.8333,-4.8217,-4.8082,-4.7927,-4.8063,-4.7966,-4.7985,-4.7773,-4.7134,-4.6922,-4.6697,-4.5923,-4.59,-4.5969,-4.6044,-4.6046,-4.6089,-4.6263,-4.6174,-4.6053,-6.4302,-6.2582,-6.2397,-6.182,-6.1069,-6.1204,-6.1185,-6.1031,-6.1031,-6.0204,-5.8723,-5.7684,-5.6676,-5.5722,-5.5684,-5.5338,-5.4722,-5.4568,-5.3741,-5.2365,-5.2038,-5.1548,-5.0894,-5.0048,-4.9567,-4.9317,-4.8029,-4.7221,-4.6885,-4.6182,-4.5768,-4.5594,-4.5594,-4.5594,-4.5556,0.0,0.0,0.0,-4.4528,-4.422,-4.3605,-4.3585,-4.3566,-4.3566,-4.3412,0.0,-4.3316,-4.3181,-4.3162,-4.3278,-4.2362,0.0,0.0,0.0,0.0,0.0,0.0,0.0,0.0,0.0,0.0,0.0,-3.845,-3.901,-3.9392,-4.0742,-4.2274,-4.3893,-4.422,-4.4586,-4.5287,-4.5498,-4.5594,-4.5603,-4.5676,-4.5682,-4.5717,-4.6475,-4.7016,-4.7113,-4.7809,-4.8365,-4.8577,-4.8643,-4.872,-4.8914,-4.874,-4.8701,-4.8856,-4.8933,-4.8914,-4.8836,-4.874,-4.8333,-4.7482,-4.7347,-4.7103,-4.6523,-4.629,-4.6348,-4.6406,-4.6368,-4.6322,-4.6078,-4.6058,-4.6,-4.5807,-4.5841,-4.5803,-4.5917,-4.5445,-4.5274,-4.6006,-4.5613,-4.5163,-6.2946,0.0,-6.153,-6.1132,0.0,-6.0697,-6.0479,-6.015,-6.0596,-5.9858,-5.8242,-5.7376,-5.6511,-5.5684,-5.528,-5.4895,-5.4453,-5.3606,-5.276,-5.1865,-5.1048,-5.0452,-5.0029,-4.9163,-4.8548,-4.8144,-4.7298,-4.6682,-4.624,-4.5825,-4.5594,-4.5594,-4.5171,-4.4951,-4.494,-4.4143,-4.3701,-4.3701,-4.3701,-4.3508,-4.3124,-4.3085,-4.3085,-4.3085,-4.2681,0.0,0.0,0.0,0.0,0.0,0.0,0.0,0.0,0.0,0.0,-3.8661,-3.7815,-3.718,-3.6788,-3.7507,-3.818,-3.863,-3.9438,-4.0281,-4.1158,-4.1966,-4.3143,-4.4767,-4.494,-4.5114,-4.5537,-4.5594,-4.5594,-4.5594,-4.5631,-4.5648,-4.5706,-4.6031,-4.6323,-4.6418,-4.6781,-4.7191,-4.7688,-4.7753,-4.7947,-4.8295,-4.8005,-4.7753,-4.7792,-4.814,-4.8275,-4.785,-4.7753,-4.7444,-4.667,-4.6464,-4.6368,-4.5904,-4.5807,-4.5807,-4.5807,-4.5807,-4.5807,-4.5768,-4.549,-4.52,-4.5188,-4.4918,-4.4666,-4.4627,-4.4364,-4.4253,-4.4781,-4.4518,-4.4253,-6.1563,-6.1475,-6.0799,-6.0482,-6.0405,-6.0374,-5.9907,-5.9182,0.0,0.0,0.0,-5.7146,-5.6387,-5.5645,-5.4857,-5.4414,-5.4164,-5.2626,-5.1827,-5.1615,-5.0106,-4.9413,-4.9356,-4.8355,-4.7548,-4.6904,-4.6759,-4.6297,-4.5614,-4.5594,-4.5518,-4.5325,-4.4652,-4.4162,-4.3835,-4.3201,-4.2797,-4.2643,-4.2777,-4.2797,-4.2662,-4.2643,-4.2643,-4.2643,-4.195,-4.1566,-4.1566,-4.0881,-4.0816,-4.1508,-4.0893,-4.0816,-4.147,-4.0277,-3.9515,-3.9477,-3.8834,-3.845,-3.845,-3.9111,-3.9515,-3.9515,-4.0131,-4.117,-4.2758,-4.3008,-4.372,-4.5248,-4.5518,-4.5594,-4.5594,-4.5594,-4.5594,-4.5594,-4.5594,-4.5594,-4.5594,-4.5594,-4.5667,-4.5665,-4.5766,-4.597,-4.674,-4.6864,-4.7096,-4.7637,-4.727,-4.6883,-4.6941,-4.7405,-4.756,-4.7006,-4.6864,-4.6619,-4.6039,-4.5865,-4.5807,-4.5826,-4.5807,-4.5768,-4.5626,-4.5594,-4.5555,-4.5239,-4.4775,-4.4446,-4.433,-4.3905,-4.3408,-4.3389,-4.3269,-4.3188,-4.3238,-4.319,-4.3167,-6.1218,-6.0089,-6.0156,-5.9808,-5.9245,-5.935,-5.8949,-5.8157,-5.7685,-5.7309,-5.704,-5.6239,-5.5799,-5.5665,-5.4857,-5.4087,-5.3318,-5.2346,-5.1529,-5.0837,-4.9837,-4.9413,-4.9317,-4.7817,-4.7009,-4.6855,-4.6124,-4.5729,-4.5614,-4.5594,-4.5229,-4.4547,-4.4355,-4.3566,-4.2258,-4.2019,-4.1623,-4.092,-4.1623,-4.1623,-4.0881,-4.0862,-4.0862,-4.0862,-4.0766,-4.0669,-4.0669,-4.0573,-4.0554,-4.0669,-4.0573,-4.0554,-4.065,-4.0458,-4.0323,-4.0323,-4.0208,-4.015,-4.015,-4.0285,-4.0342,-4.0342,-4.0439,-4.0912,-4.1893,-4.2662,-4.3489,-4.4412,-4.5143,-4.5594,-4.5594,-4.5594,-4.5594,-4.5594,-4.5594,-4.5594,-4.5594,-4.5594,-4.5629,-4.5673,-4.5688,-4.5758,-4.6005,-4.6039,-4.6109,-4.6174,-4.6245,-4.6039,-4.6097,-4.6078,-4.6116,-4.6,-4.5981,-4.5923,-4.5845,-4.5807,-4.5807,-4.5807,-4.5761,-4.5517,-4.4949,-4.4794,-4.4562,-4.3846,-4.3614,-4.3498,-4.3479,-4.3401,-4.3176,-4.3086,-4.2691,-4.2341,-4.2374,-4.1944,-4.1696,-6.0184,-5.9696,-5.9828,-5.9509,-5.883,-5.799,-5.7371,-5.6896,-5.623,-5.6294,-5.6752,-5.6036,-5.5472,-5.4991,-5.4164,-5.3318,-5.2442,-5.1625,-5.1048,-5.0616,-4.9298,-4.8702,-4.8548,-4.699,-4.6201,-4.6163,-4.5806,-4.5594,-4.5556,-4.5152,-4.4682,-4.4239,-4.3393,-4.2335,-4.1181,-4.1085,-4.0893,-4.0516,-4.0893,-4.0893,-4.0516,-4.0496,-4.0496,-4.0496,-4.0496,-4.0496,-4.0496,-4.0496,-4.0496,-4.0496,-4.0496,-4.0496,-4.0496,-4.0496,-4.0496,-4.0496,-4.0496,-4.0496,-4.0496,-4.0496,-4.0496,-4.0496,-4.0496,-4.0669,-4.1066,-4.1893,-4.2931,-4.4143,-4.469,-4.5114,-4.5537,-4.5594,-4.5594,-4.5594,-4.5594,-4.5594,-4.5594,-4.5594,-4.5629,-4.5692,-4.5688,-4.5719,-4.58,-4.5807,-4.5807,-4.5807,-4.5807,-4.5807,-4.5807,-4.5807,-4.5807,-4.5807,-4.5807,-4.5807,-4.5807,-4.5807,-4.5807,-4.5807,-4.5413,-4.5045,-4.4594,-4.4284,-4.3762,-4.3363,-4.2957,-4.2647,-4.2589,-4.2202,-4.2009,-4.1899,-4.171,-4.1438,-4.1402,-4.1196,-4.1193,-5.9103,-5.9062,-5.9224,-5.8824,-5.7966,-5.6504,-5.5803,-5.5689,-5.5173,-5.5369,-5.5957,-5.5585,-5.5047,-5.4413,-5.3385,-5.2538,-5.1846,-5.1048,-5.0587,-5.0231,-4.8798,-4.8001,-4.7645,-4.626,-4.5577,-4.5577,-4.5586,-4.5594,-4.5498,-4.472,-4.4085,-4.3624,-4.2239,-4.1162,-4.0516,-4.0496,-4.0496,-4.0496,-4.0496,-4.0496,-4.0496,-4.0496,-4.0496,-4.0496,-4.0496,-4.0496,-4.0496,-4.0496,-4.0496,-4.0496,-4.0496,-4.0496,-4.0496,-4.0496,-4.0496,-4.0496,-4.0496,-4.0496,-4.0496,-4.0496,-4.0496,-4.0496,-4.0496,-4.0496,-4.0554,-4.1104,-4.2104,-4.3489,-4.4085,-4.4605,-4.5171,-4.5498,-4.5594,-4.5594,-4.5594,-4.5594,-4.5594,-4.5594,-4.564,-4.5676,-4.568,-4.5719,-4.5771,-4.58,-4.5807,-4.5807,-4.5807,-4.5807,-4.5807,-4.5807,-4.5807,-4.5807,-4.5807,-4.5684,-4.5587,-4.549,-4.5394,-4.5323,-4.4717,-4.4233,-4.3917,-4.3363,-4.2918,-4.2647,-4.2164,-4.1796,-4.168,-4.13,-4.0971,-4.0971,-4.0936,-4.0884,-4.097,-4.0982,-4.1002,-5.8334,-5.776,-5.7902,-5.7208,-5.5984,-5.4959,-5.4599,-5.4651,-5.4453,-5.4182,-5.405,-5.4329,-5.4444,-5.4205,-5.2749,-5.1981,-5.1808,-5.1068,-5.0259,-4.9432,-4.8519,-4.7645,-4.6839,-4.5918,-4.5504,-4.5513,-4.5568,-4.5594,-4.5556,-4.471,-4.3528,-4.2104,-4.1066,-4.0612,-4.0496,-4.0496,-4.0496,-4.0496,-4.0496,-4.0496,-4.0496,-4.0496,-4.0496,-4.0496,-4.0496,-4.0496,-4.0496,-4.0496,-4.0496,-4.0496,-4.0496,-4.0496,-4.0496,-4.0496,-4.0496,-4.0496,-4.0496,-4.0496,-4.0496,-4.0496,-4.0496,-4.0496,-4.0496,-4.0496,-4.0496,-4.0593,-4.1008,-4.2066,-4.3412,-4.4259,-4.4451,-4.5133,-4.5594,-4.5594,-4.5594,-4.5594,-4.5594,-4.5594,-4.5612,-4.5682,-4.5684,-4.5723,-4.5781,-4.5798,-4.58,-4.58,-4.58,-4.5807,-4.5807,-4.5807,-4.5807,-4.5807,-4.5807,-4.551,-4.5045,-4.4736,-4.4581,-4.3904,-4.3518,-4.3189,-4.2686,-4.2318,-4.1951,-4.1583,-4.1177,-4.1042,-4.1003,-4.0816,-4.0835,-4.0797,-4.0808,-4.0829,-4.0903,-4.0963,-4.1,-5.7528,-5.6803,-5.6925,-5.6407,-5.5393,-5.4587,-5.4249,-5.4231,-5.3742,-5.3499,-5.3339,-5.2831,-5.2652,-5.2768,-5.2143,-5.1645,-5.1164,-5.0846,-5.0202,-4.9259,-4.8304,-4.7429,-4.6615,-4.5744,-4.5371,-4.5438,-4.5559,-4.5594,-4.5364,-4.4239,-4.272,-4.1181,-4.0669,-4.0496,-4.0496,-4.0496,-4.0496,-4.0496,-4.0496,-4.0496,-4.0496,-4.0496,-4.0496,-4.0496,-4.0496,-4.0496,-4.0496,-4.0496,-4.0496,-4.0496,-4.0496,-4.0496,-4.0496,-4.0496,-4.0496,-4.0496,-4.0496,-4.0496,-4.0496,-4.0496,-4.0496,-4.0496,-4.0496,-4.0496,-4.0496,-4.0496,-4.0669,-4.1162,-4.2566,-4.3758,-4.4278,-4.5094,-4.5594,-4.5594,-4.5594,-4.5594,-4.5594,-4.5594,-4.5631,-4.5673,-4.5679,-4.5722,-4.5743,-4.5769,-4.5791,-4.5817,-4.5805,-4.58,-4.5807,-4.5807,-4.5807,-4.5807,-4.5807,-4.5691,-4.5297,-4.4871,-4.4465,-4.4001,-4.3169,-4.2318,-4.2086,-4.1525,-4.1158,-4.0835,-4.0816,-4.0797,-4.0835,-4.0797,-4.0797,-4.0803,-4.0802,-4.0823,-4.0888,-4.0931,-4.0943,-5.6692,-5.5967,-5.5767,-5.5379,-5.482,-5.4073,-5.3737,-5.3607,-5.2877,-5.2549,-5.2392,-5.1504,-5.1096,-5.1162,-5.1404,-5.1182,-5.0701,-5.0653,-5.0038,-4.892,-4.8056,-4.7169,-4.6186,-4.5524,-4.5231,-4.5341,-4.5476,-4.53,-4.482,-4.3705,-4.2176,-4.0742,-4.0484,-4.0484,-4.0492,-4.0484,-4.0476,-4.0476,-4.0476,-4.0484,-4.0492,-4.05,-4.0404,-4.0208,-4.0169,-4.0073,-3.9823,-3.9823,-3.9804,-3.9796,-3.9823,-3.9823,-3.9823,-4.0035,-4.0265,-4.0477,-4.0496,-4.0496,-4.0496,-4.0496,-4.0496,-4.0496,-4.0496,-4.0496,-4.0496,-4.0496,-4.0612,-4.0989,-4.222,-4.3393,-4.3912,-4.494,-4.5556,-4.5594,-4.5594,-4.5594,-4.5594,-4.5594,-4.5622,-4.5657,-4.5693,-4.5679,-4.57,-4.5731,-4.5773,-4.5788,-4.581,-4.5819,-4.58,-4.5807,-4.5807,-4.5807,-4.5807,-4.5671,-4.549,-4.4987,-4.4555,-4.373,-4.2667,-4.2028,-4.1777,-4.1106,-4.0835,-4.0816,-4.0816,-4.0797,-4.0797,-4.0797,-4.0797,-4.0803,-4.0796,-4.08,-4.0846,-4.0863,-4.0898,-5.5837,-5.5001,-5.4258,-5.398,-5.3813,-5.307,-5.268,-5.2717,-5.1843,-5.1151,-5.0723,-5.0606,-5.0289,-4.983,-5.0362,-5.0538,-5.0511,-5.0514,-4.963,-4.8118,-4.775,-4.6774,-4.5228,-4.5114,-4.5136,-4.5184,-4.5311,-4.4605,-4.3195,-4.2974,-4.208,-4.0589,-4.0422,-4.0441,-4.0466,-4.0413,-4.0388,-4.036,-4.036,-4.0413,-4.0502,-4.0491,-4.0142,-3.9508,-3.9381,-3.9053,-3.8354,-3.8142,-3.8161,-3.8142,-3.8219,-3.818,-3.8219,-3.8931,-3.9727,-4.0342,-4.0496,-4.0496,-4.0496,-4.0496,-4.0496,-4.0496,-4.0496,-4.0496,-4.0516,-4.0593,-4.0912,-4.1635,-4.2585,-4.3258,-4.3451,-4.4748,-4.5575,-4.5594,-4.5594,-4.5594,-4.5594,-4.5594,-4.5594,-4.5622,-4.5667,-4.5682,-4.5673,-4.5688,-4.5743,-4.5792,-4.5807,-4.5803,-4.5812,-4.58,-4.5807,-4.5807,-4.5749,-4.5529,-4.4865,-4.4671,-4.3917,-4.3073,-4.255,-4.1777,-4.1222,-4.0797,-4.0797,-4.0797,-4.0797,-4.0797,-4.0797,-4.0797,-4.0797,-4.0797,-4.0797,-4.0821,-4.0818,-4.0815,-4.0848,-5.5001,-5.424,-5.3943,-5.3813,-5.372,-5.294,-5.2605,-5.2475,-5.1156,-5.0503,-5.0271,-4.9931,-4.9646,-4.9484,-4.9781,-5.0006,-5.0128,-4.9774,-4.8955,-4.781,-4.706,-4.6067,-4.5069,-4.477,-4.4695,-4.4826,-4.495,-4.4162,-4.2707,-4.2588,-4.1858,-4.0556,-4.0325,-4.0325,-4.0297,-4.0223,-4.0158,-4.0051,-4.0101,-4.0196,-4.0325,-4.0396,-4.0079,-3.9354,-3.9304,-3.915,-3.8834,-3.8315,-3.8007,-3.8007,-3.7988,-3.8007,-3.8084,-3.8834,-3.9419,-3.9746,-4.0227,-4.0496,-4.0496,-4.0496,-4.0496,-4.0496,-4.0496,-4.0496,-4.0593,-4.0989,-4.147,-4.1962,-4.3124,-4.3816,-4.4066,-4.4932,-4.5594,-4.5594,-4.5594,-4.5594,-4.5594,-4.5594,-4.5594,-4.5594,-4.565,-4.564,-4.5646,-4.5671,-4.5706,-4.575,-4.5777,-4.5788,-4.581,-4.5805,-4.5807,-4.5807,-4.5807,-4.5703,-4.5471,-4.4891,-4.4194,-4.3227,-4.2454,-4.1738,-4.1126,-4.0855,-4.0797,-4.0797,-4.0797,-4.0797,-4.0797,-4.0797,-4.0797,-4.0797,-4.0797,-4.0803,-4.0814,-4.0806,-4.0821,-5.4296,-5.3793,-5.3534,-5.3404,-5.3292,-5.2271,-5.1806,-5.1639,-5.032,-4.978,-4.9738,-4.9372,-4.9193,-4.9182,-4.9049,-4.9114,-4.9308,-4.9042,-4.8471,-4.7605,-4.6581,-4.5603,-4.4865,-4.4503,-4.4448,-4.4589,-4.4701,-4.4007,-4.277,-4.2492,-4.1759,-4.0616,-4.032,-4.0177,-4.0139,-4.0041,-3.9929,-3.9824,-3.9878,-4.0011,-4.0129,-4.028,-4.0147,-3.9661,-3.9165,-3.8712,-3.845,-3.7642,-3.7173,-3.7199,-3.7199,-3.7315,-3.7603,-3.8142,-3.8726,-3.9284,-3.9804,-4.0246,-4.0458,-4.0496,-4.0496,-4.0496,-4.0496,-4.0496,-4.0573,-4.1296,-4.1854,-4.2423,-4.3412,-4.4355,-4.4767,-4.5287,-4.5594,-4.5594,-4.5594,-4.5594,-4.5594,-4.5594,-4.5594,-4.5594,-4.5594,-4.5594,-4.5594,-4.564,-4.5684,-4.5682,-4.5746,-4.5765,-4.5788,-4.5798,-4.5807,-4.5807,-4.5807,-4.5807,-4.5684,-4.5316,-4.4485,-4.3498,-4.2899,-4.2067,-4.1203,-4.0951,-4.0797,-4.0797,-4.0797,-4.0797,-4.0797,-4.0797,-4.0797,-4.0797,-4.0797,-4.0803,-4.0796,-4.0802,-4.0823,-5.3813,-5.3627,-5.294,-5.2642,-5.2401,-5.0989,-5.0209,-5.0153,-4.9373,-4.902,-4.9056,-4.8926,-4.8942,-4.8776,-4.825,-4.7907,-4.8193,-4.8372,-4.8049,-4.7207,-4.6309,-4.5436,-4.4605,-4.4383,-4.4341,-4.4468,-4.4619,-4.4182,-4.3283,-4.2661,-4.198,-4.1203,-4.039,-4.004,-3.9992,-3.9843,-3.977,-3.9693,-3.9728,-3.9832,-3.9982,-4.0109,-4.0252,-4.02,-3.8911,-3.7763,-3.6923,-3.6096,-3.5731,-3.5673,-3.5654,-3.5923,-3.6596,-3.6865,-3.7546,-3.8911,-3.9304,-3.9727,-4.0381,-4.0496,-4.0496,-4.0496,-4.0496,-4.0496,-4.0612,-4.1373,-4.2212,-4.2912,-4.3835,-4.4662,-4.5344,-4.5556,-4.5594,-4.5594,-4.5594,-4.5594,-4.5594,-4.5594,-4.5594,-4.5594,-4.5594,-4.5594,-4.5594,-4.5594,-4.5631,-4.5693,-4.5703,-4.5723,-4.5773,-4.5798,-4.58,-4.5807,-4.5807,-4.5807,-4.5807,-4.5691,-4.4717,-4.3827,-4.3382,-4.2705,-4.1564,-4.1023,-4.0835,-4.0797,-4.0797,-4.0797,-4.0797,-4.0797,-4.0797,-4.0797,-4.0797,-4.0797,-4.0803,-4.0796,-4.08,-5.3497,-5.2977,-5.2717,-5.2271,-5.1676,-5.0562,-5.0116,-5.0023,-4.9262,-4.8909,-4.889,-4.889,-4.889,-4.8723,-4.8073,-4.7768,-4.7788,-4.7049,-4.6468,-4.6156,-4.5343,-4.4772,-4.4421,-4.4181,-4.4109,-4.414,-4.4203,-4.3803,-4.3123,-4.2847,-4.2175,-4.1048,-4.0651,-4.0217,-3.9693,-3.9575,-3.9452,-3.9324,-3.9401,-3.952,-3.9656,-3.9892,-4.009,-4.0155,-3.9267,-3.8373,-3.7596,-3.6257,-3.5538,-3.55,-3.55,-3.5615,-3.5904,-3.6404,-3.7212,-3.8296,-3.9008,-3.9669,-4.0342,-4.0496,-4.0496,-4.0496,-4.0496,-4.0496,-4.0669,-4.1854,-4.2739,-4.3239,-4.4344,-4.5364,-4.5537,-4.5594,-4.5594,-4.5594,-4.5594,-4.5594,-4.5594,-4.5594,-4.5594,-4.5594,-4.5594,-4.5594,-4.5594,-4.5594,-4.5603,-4.564,-4.5679,-4.5708,-4.5731,-4.5783,-4.58,-4.5807,-4.5807,-4.5807,-4.5807,-4.5749,-4.52,-4.4407,-4.3885,-4.3073,-4.1951,-4.1216,-4.1023,-4.0797,-4.0797,-4.0797,-4.0797,-4.0797,-4.0797,-4.0797,-4.0797,-4.0797,-4.0797,-4.0809,-4.0814,-5.307,-5.2549,-5.1936,-5.1398,-5.0841,-5.0005,-4.9652,-4.9577,-4.9132,-4.889,-4.889,-4.889,-4.889,-4.8667,-4.7757,-4.7289,-4.715,-4.5699,-4.5058,-4.5086,-4.4674,-4.4336,-4.4258,-4.4079,-4.4005,-4.4005,-4.4005,-4.3745,-4.3262,-4.301,-4.2338,-4.1314,-4.0871,-4.0303,-3.9527,-3.9382,-3.9251,-3.9142,-3.9205,-3.9343,-3.9458,-3.9682,-3.9914,-3.9976,-3.9393,-3.8659,-3.7886,-3.6569,-3.5739,-3.5551,-3.55,-3.55,-3.5538,-3.6,-3.6776,-3.7853,-3.8527,-3.9284,-4.0304,-4.0496,-4.0496,-4.0496,-4.0496,-4.0689,-4.1123,-4.2354,-4.3124,-4.3682,-4.4759,-4.5594,-4.5594,-4.5594,-4.5594,-4.5594,-4.5594,-4.5594,-4.5594,-4.5594,-4.5594,-4.5594,-4.5594,-4.5594,-4.5594,-4.5594,-4.5594,-4.5622,-4.5654,-4.5692,-4.5696,-4.5742,-4.5771,-4.5819,-4.5807,-4.5807,-4.5807,-4.571,-4.5594,-4.5007,-4.4427,-4.3343,-4.2183,-4.1699,-4.139,-4.0945,-4.0797,-4.0797,-4.0797,-4.0797,-4.0797,-4.0797,-4.0797,-4.0797,-4.0797,-4.0797,-4.0796,-5.2587,-5.2327,-5.0803,-5.0153,-4.9968,-4.928,-4.9002,-4.8946,-4.8909,-4.889,-4.889,-4.889,-4.889,-4.8556,-4.7441,-4.6845,-4.6343,-4.5247,-4.4479,-4.4429,-4.4349,-4.4393,-4.4199,-4.4051,-4.4005,-4.4005,-4.4005,-4.3986,-4.3838,-4.3323,-4.257,-4.1786,-4.1049,-4.0208,-3.9524,-3.9232,-3.917,-3.9129,-3.917,-3.9264,-3.9363,-3.9514,-3.9682,-3.9905,-3.9295,-3.8556,-3.7712,-3.6706,-3.5986,-3.5568,-3.5467,-3.5493,-3.5512,-3.5519,-3.6462,-3.7892,-3.8046,-3.9027,-4.0112,-4.0496,-4.0496,-4.0496,-4.0535,-4.0854,-4.1662,-4.2508,-4.3393,-4.4105,-4.5047,-4.5594,-4.5594,-4.5594,-4.5594,-4.5594,-4.5594,-4.5594,-4.5594,-4.5594,-4.5594,-4.5594,-4.5594,-4.5594,-4.5594,-4.5594,-4.5594,-4.5603,-4.5657,-4.5679,-4.5692,-4.5739,-4.5795,-4.5798,-4.5812,-4.5807,-4.5807,-4.5787,-4.5671,-4.5471,-4.4891,-4.3904,-4.255,-4.1951,-4.1448,-4.1042,-4.0797,-4.0797,-4.0797,-4.0797,-4.0797,-4.0797,-4.0797,-4.0797,-4.0797,-4.0797,-4.0803,-5.2252,-5.1621,-5.0543,-4.9763,-4.9243,-4.8964,-4.889,-4.889,-4.889,-4.889,-4.889,-4.889,-4.889,-4.8779,-4.7868,-4.7386,-4.707,-4.6271,-4.5454,-4.5024,-4.5015,-4.4622,-4.4182,-4.402,-4.4005,-4.4005,-4.4005,-4.4005,-4.4005,-4.376,-4.2988,-4.1715,-4.1417,-4.0565,-3.9412,-3.9156,-3.9129,-3.9082,-3.9115,-3.9124,-3.921,-3.9311,-3.9439,-3.9532,-3.946,-3.8693,-3.7412,-3.6046,-3.5372,-3.538,-3.5405,-3.5439,-3.5516,-3.6024,-3.6846,-3.7892,-3.8623,-3.9354,-4.0227,-4.0496,-4.0496,-4.0496,-4.0496,-4.0893,-4.1731,-4.2604,-4.3431,-4.4239,-4.5066,-4.5594,-4.5594,-4.5594,-4.5594,-4.5594,-4.5594,-4.5594,-4.5594,-4.5594,-4.5594,-4.5594,-4.5594,-4.5594,-4.5594,-4.5594,-4.5594,-4.5622,-4.5648,-4.5682,-4.5695,-4.5735,-4.58,-4.5803,-4.5798,-4.5812,-4.5807,-4.5807,-4.5787,-4.5761,-4.5316,-4.4697,-4.3208,-4.1912,-4.1351,-4.0835,-4.0816,-4.0797,-4.0797,-4.0797,-4.0797,-4.0797,-4.0797,-4.0797,-4.0797,-4.0797,-4.0803,-5.1268,-5.0785,-4.9949,-4.9336,-4.8909,-4.889,-4.889,-4.889,-4.889,-4.889,-4.889,-4.889,-4.889,-4.8816,-4.8073,-4.7701,-4.759,-4.6865,-4.6048,-4.5305,-4.4875,-4.4432,-4.4079,-4.4005,-4.4005,-4.4005,-4.4005,-4.4005,-4.4005,-4.4005,-4.3095,-4.1883,-4.1605,-4.0717,-3.9208,-3.9101,-3.9101,-3.9101,-3.9101,-3.9101,-3.9115,-3.9192,-3.9285,-3.9288,-3.9195,-3.8293,-3.6732,-3.5472,-3.4945,-3.5147,-3.5281,-3.548,-3.5909,-3.6383,-3.7269,-3.8411,-3.9053,-3.965,-4.0304,-4.0496,-4.0496,-4.0496,-4.0496,-4.1162,-4.2104,-4.2874,-4.3489,-4.4759,-4.5325,-4.5537,-4.5594,-4.5594,-4.5594,-4.5594,-4.5594,-4.5594,-4.5594,-4.5594,-4.5594,-4.5594,-4.5594,-4.5594,-4.5594,-4.5594,-4.5594,-4.5594,-4.5631,-4.5657,-4.569,-4.573,-4.577,-4.5773,-4.5795,-4.5798,-4.5793,-4.5793,-4.58,-4.578,-4.5316,-4.4813,-4.3692,-4.2106,-4.128,-4.0855,-4.0816,-4.0797,-4.0797,-4.0797,-4.0797,-4.0797,-4.0797,-4.0797,-4.0797,-4.0797,-4.0803,-5.0116,-5.0042,-4.9224,-4.889,-4.889,-4.889,-4.889,-4.889,-4.889,-4.889,-4.889,-4.889,-4.889,-4.8853,-4.8073,-4.7757,-4.7831,-4.7125,-4.6271,-4.5454,-4.4674,-4.4042,-4.4042,-4.4005,-4.4005,-4.4005,-4.4005,-4.4005,-4.4005,-4.4005,-4.3132,-4.1962,-4.1605,-4.068,-3.9417,-3.9101,-3.9101,-3.9101,-3.9101,-3.9087,-3.9087,-3.9124,-3.9117,-3.8827,-3.8065,-3.726,-3.6058,-3.5139,-3.4781,-3.5068,-3.524,-3.5769,-3.6481,-3.6692,-3.7639,-3.8896,-3.9396,-3.9846,-4.0335,-4.0508,-4.0496,-4.0496,-4.0496,-4.1258,-4.2566,-4.3085,-4.3739,-4.5306,-4.5575,-4.5594,-4.5594,-4.5594,-4.5594,-4.5594,-4.5594,-4.5594,-4.5594,-4.5594,-4.5594,-4.5594,-4.5594,-4.5594,-4.5594,-4.5594,-4.5594,-4.5594,-4.5603,-4.5612,-4.5657,-4.5709,-4.573,-4.575,-4.5773,-4.5776,-4.5771,-4.5786,-4.5793,-4.5761,-4.5123,-4.4543,-4.3846,-4.255,-4.1454,-4.0874,-4.0835,-4.0797,-4.0797,-4.0797,-4.0797,-4.0797,-4.0797,-4.0797,-4.0797,-4.0797,-4.0803,-5.0172,-5.0116,-4.9243,-4.889,-4.889,-4.889,-4.889,-4.889,-4.889,-4.889,-4.889,-4.889,-4.889,-4.8853,-4.8129,-4.8036,-4.8351,-4.7627,-4.7014,-4.6104,-4.4636,-4.4079,-4.4005,-4.4005,-4.4005,-4.4005,-4.4005,-4.4005,-4.4005,-4.3838,-4.3188,-4.1813,-4.1423,-4.0754,-3.9342,-3.9101,-3.9101,-3.9101,-3.9101,-3.9073,-3.9031,-3.9069,-3.8822,-3.8141,-3.6939,-3.6074,-3.5541,-3.4764,-3.4715,-3.5337,-3.5883,-3.6319,-3.6742,-3.777,-3.864,-3.9155,-3.986,-4.0279,-4.0449,-4.0492,-4.0496,-4.0496,-4.0573,-4.1239,-4.2854,-4.3085,-4.3893,-4.519,-4.5594,-4.5594,-4.5594,-4.5594,-4.5594,-4.5594,-4.5594,-4.5594,-4.5594,-4.5594,-4.5594,-4.5594,-4.5594,-4.5594,-4.5594,-4.5594,-4.5594,-4.5594,-4.5594,-4.5594,-4.564,-4.5676,-4.5709,-4.573,-4.5727,-4.575,-4.5754,-4.5757,-4.5798,-4.5793,-4.5232,-4.462,-4.3904,-4.3169,-4.2144,-4.1377,-4.0816,-4.0797,-4.0797,-4.0797,-4.0797,-4.0797,-4.0797,-4.0797,-4.0797,-4.0797,-4.0797,-4.9577,-4.954,-4.9076,-4.889,-4.889,-4.889,-4.889,-4.889,-4.889,-4.889,-4.889,-4.889,-4.889,-4.8834,-4.811,-4.798,-4.7943,-4.7088,-4.6345,-4.5677,-4.4581,-4.4042,-4.4005,-4.4005,-4.4005,-4.4005,-4.4005,-4.4005,-4.3949,-4.3559,-4.2797,-4.1646,-4.1256,-4.0346,-3.9287,-3.9101,-3.9101,-3.9101,-3.9101,-3.9073,-3.9064,-3.9055,-3.8697,-3.7928,-3.6978,-3.6461,-3.6067,-3.5696,-3.5709,-3.6172,-3.6772,-3.7215,-3.7393,-3.828,-3.8975,-3.9574,-3.9971,-4.0377,-4.043,-4.0476,-4.0496,-4.0496,-4.0496,-4.1508,-4.2585,-4.3085,-4.3912,-4.5114,-4.5594,-4.5594,-4.5594,-4.5594,-4.5594,-4.5594,-4.5594,-4.5594,-4.5594,-4.5594,-4.5594,-4.5594,-4.5594,-4.5594,-4.5594,-4.5594,-4.5594,-4.5594,-4.5594,-4.5594,-4.5594,-4.564,-4.5676,-4.5709,-4.5687,-4.5703,-4.5715,-4.5746,-4.5795,-4.5771,-4.5573,-4.5019,-4.442,-4.3692,-4.2918,-4.2048,-4.1139,-4.0835,-4.0797,-4.0797,-4.0797,-4.0797,-4.0797,-4.0797,-4.0797,-4.0797,-4.0797,-4.889,-4.889,-4.889,-4.889,-4.889,-4.889,-4.889,-4.889,-4.889,-4.889,-4.889,-4.889,-4.889,-4.8686,-4.785,-4.7497,-4.6977,-4.6197,-4.5472,-4.5287,-4.4469,-4.4061,-4.4005,-4.4005,-4.4005,-4.4005,-4.4005,-4.4005,-4.3801,-4.3188,-4.2482,-4.159,-4.0806,-4.003,-3.9305,-3.9101,-3.9101,-3.9101,-3.9101,-3.9087,-3.9073,-3.9069,-3.8679,-3.7992,-3.7509,-3.7132,-3.6681,-3.6532,-3.6694,-3.7,-3.7729,-3.8202,-3.8496,-3.8723,-3.9069,-3.9925,-4.0101,-4.0242,-4.0377,-4.0452,-4.0496,-4.0496,-4.0681,-4.145,-4.2681,-4.3355,-4.4162,-4.4979,-4.5594,-4.5594,-4.5594,-4.5594,-4.5594,-4.5594,-4.5594,-4.5594,-4.5594,-4.5586,-4.5577,-4.5594,-4.5594,-4.5594,-4.5594,-4.5594,-4.5594,-4.5594,-4.5594,-4.5594,-4.5594,-4.5594,-4.5631,-4.5667,-4.5646,-4.569,-4.5695,-4.5719,-4.577,-4.5776,-4.5701,-4.5399,-4.4903,-4.4311,-4.3498,-4.2299,-4.1525,-4.1197,-4.0893,-4.0797,-4.0797,-4.0797,-4.0797,-4.0797,-4.0797,-4.0797,-4.0797,-4.889,-4.889,-4.889,-4.889,-4.889,-4.889,-4.889,-4.889,-4.889,-4.889,-4.889,-4.889,-4.889,-4.8537,-4.7293,-4.6401,-4.5825,-4.5268,-4.5175,-4.5064,-4.4395,-4.4023,-4.4005,-4.4005,-4.4005,-4.4005,-4.4005,-4.4005,-4.3819,-4.3188,-4.237,-4.159,-4.0806,-3.9955,-3.9324,-3.9101,-3.9101,-3.9101,-3.9101,-3.9073,-3.9045,-3.9036,-3.8785,-3.8042,-3.7596,-3.7182,-3.6922,-3.6798,-3.6996,-3.7642,-3.7859,-3.8327,-3.8837,-3.925,-3.9562,-3.9819,-4.0021,-4.0139,-4.0297,-4.0425,-4.0481,-4.0669,-4.1104,-4.1931,-4.297,-4.3701,-4.4451,-4.5171,-4.5594,-4.5594,-4.5594,-4.5594,-4.5594,-4.5594,-4.5594,-4.5594,-4.5586,-4.5568,-4.5522,-4.5531,-4.5568,-4.5586,-4.5577,-4.5577,-4.5586,-4.5577,-4.5577,-4.5577,-4.5577,-4.5577,-4.5586,-4.5594,-4.5603,-4.5648,-4.5682,-4.5717,-4.5742,-4.5765,-4.5757,-4.5778,-4.5322,-4.4884,-4.404,-4.2995,-4.2086,-4.1545,-4.1255,-4.0971,-4.0797,-4.0797,-4.0797,-4.0797,-4.0797,-4.0797,-4.0797,-4.889,-4.889,-4.889,-4.889,-4.889,-4.889,-4.889,-4.889,-4.889,-4.889,-4.889,-4.889,-4.889,-4.8481,-4.7218,-4.5844,-4.4896,-4.4636,-4.4636,-4.4469,-4.4209,-4.4005,-4.4005,-4.4005,-4.4005,-4.4005,-4.4005,-4.4005,-4.3931,-4.3188,-4.2389,-4.159,-4.0791,-3.9955,-3.9287,-3.9101,-3.9101,-3.9101,-3.9101,-3.9087,-3.9045,-3.9087,-3.8822,-3.8507,-3.8172,-3.7968,-3.7931,-3.7949,-3.8116,-3.8451,-3.8557,-3.8748,-3.9021,-3.9272,-3.9471,-3.9675,-3.9857,-4.0051,-4.0243,-4.0419,-4.0681,-4.1181,-4.1615,-4.2431,-4.3374,-4.4124,-4.472,-4.5336,-4.5594,-4.5594,-4.5594,-4.5586,-4.5594,-4.5594,-4.5594,-4.5586,-4.5577,-4.5541,-4.5476,-4.5429,-4.5429,-4.5476,-4.555,-4.5559,-4.5568,-4.5568,-4.5568,-4.5559,-4.555,-4.5504,-4.5466,-4.5485,-4.5495,-4.554,-4.5603,-4.5657,-4.5698,-4.5735,-4.5781,-4.5803,-4.5728,-4.529,-4.4717,-4.3885,-4.3034,-4.2144,-4.1564,-4.1255,-4.1048,-4.0816,-4.0797,-4.0797,-4.0797,-4.0797,-4.0797,-4.889,-4.889,-4.889,-4.889,-4.889,-4.889,-4.889,-4.889,-4.889,-4.889,-4.889,-4.889,-4.889,-4.8481,-4.7218,-4.5639,-4.4098,-4.4042,-4.4079,-4.4079,-4.4042,-4.4005,-4.4005,-4.4005,-4.4005,-4.4005,-4.4005,-4.4005,-4.3838,-4.3188,-4.2389,-4.159,-4.0791,-3.997,-3.9287,-3.9101,-3.9101,-3.9101,-3.9101,-3.9101,-3.9101,-3.9101,-3.9101,-3.9101,-3.9101,-3.9008,-3.8897,-3.8878,-3.8897,-3.899,-3.9027,-3.9064,-3.9082,-3.9101,-3.9205,-3.9446,-3.9679,-3.991,-4.0187,-4.0665,-4.1102,-4.1583,-4.2091,-4.3032,-4.382,-4.4427,-4.4858,-4.5405,-4.5559,-4.554,-4.555,-4.5559,-4.5559,-4.554,-4.5531,-4.555,-4.5504,-4.5457,-4.5351,-4.5301,-4.5311,-4.5331,-4.5371,-4.5495,-4.5504,-4.5568,-4.5559,-4.5457,-4.5419,-4.5342,-4.5322,-4.5332,-4.5352,-4.5429,-4.5504,-4.5603,-4.5654,-4.57,-4.5739,-4.5761,-4.5791,-4.5703,-4.5123,-4.4601,-4.3788,-4.2937,-4.226,-4.1564,-4.1255,-4.1023,-4.0893,-4.0797,-4.0797,-4.0797,-4.0797,-4.889,-4.889,-4.889,-4.889,-4.889,-4.889,-4.889,-4.889,-4.889,-4.889,-4.889,-4.889,-4.8872,-4.837,-4.7181,-4.5584,-4.4432,-4.4005,-4.4005,-4.4005,-4.4005,-4.4005,-4.4005,-4.4005,-4.4005,-4.4005,-4.4005,-4.4005,-4.3856,-4.3225,-4.2463,-4.1683,-4.0996,-4.0007,-3.938,-3.9305,-3.9101,-3.9101,-3.9101,-3.9101,-3.9101,-3.9101,-3.9101,-3.9101,-3.9101,-3.9101,-3.9101,-3.9101,-3.9101,-3.9101,-3.9101,-3.9101,-3.9101,-3.9101,-3.9178,-3.9357,-3.9592,-3.9911,-4.0269,-4.0883,-4.1567,-4.2095,-4.2909,-4.3818,-4.4327,-4.4787,-4.5141,-4.5352,-4.541,-4.539,-4.5381,-4.541,-4.5419,-4.54,-4.5371,-4.5371,-4.5362,-4.5211,-4.5124,-4.5065,-4.5011,-4.5071,-4.5137,-4.5312,-4.5448,-4.5513,-4.5541,-4.54,-4.5282,-4.518,-4.5137,-4.5156,-4.5251,-4.5312,-4.5457,-4.555,-4.5629,-4.5684,-4.5715,-4.5746,-4.5783,-4.5812,-4.58,-4.52,-4.4439,-4.3639,-4.2814,-4.2144,-4.1577,-4.1216,-4.1003,-4.0887,-4.0797,-4.0797,-4.079,-4.889,-4.889,-4.889,-4.889,-4.889,-4.889,-4.889,-4.889,-4.889,-4.889,-4.889,-4.889,-4.8444,-4.759,-4.6698,-4.5584,-4.4302,-4.4005,-4.4005,-4.4005,-4.4005,-4.4005,-4.4005,-4.4005,-4.4005,-4.4005,-4.4005,-4.4005,-4.3856,-4.3633,-4.3058,-4.2296,-4.185,-4.1122,-3.9937,-3.9825,-3.951,-3.925,-3.9101,-3.9101,-3.9101,-3.9101,-3.9101,-3.9101,-3.9101,-3.9101,-3.9101,-3.9101,-3.9101,-3.9101,-3.9101,-3.9101,-3.9101,-3.9115,-3.9156,-3.9269,-3.9914,-4.0332,-4.0594,-4.114,-4.1804,-4.2584,-4.3433,-4.3926,-4.4443,-4.4816,-4.5074,-4.5063,-4.5063,-4.5082,-4.5074,-4.5063,-4.5063,-4.5082,-4.5249,-4.52,-4.5159,-4.4962,-4.4862,-4.4783,-4.4739,-4.4789,-4.4898,-4.5079,-4.5241,-4.5342,-4.5341,-4.5229,-4.5109,-4.4984,-4.496,-4.4984,-4.509,-4.5231,-4.539,-4.5533,-4.5622,-4.5679,-4.568,-4.5731,-4.5776,-4.5798,-4.5798,-4.5798,-4.53,-4.4416,-4.3443,-4.2646,-4.2009,-4.1538,-4.11,-4.0978,-4.0855,-4.079,-4.079,-4.889,-4.889,-4.889,-4.889,-4.889,-4.889,-4.889,-4.889,-4.889,-4.889,-4.889,-4.8834,-4.8017,-4.6791,-4.642,-4.5584,-4.4061,-4.4005,-4.4005,-4.4005,-4.4005,-4.4005,-4.4005,-4.4005,-4.4005,-4.4005,-4.4005,-4.4005,-4.4005,-4.3875,-4.3503,-4.2835,-4.2593,-4.1924,-4.101,-4.0364,-3.9918,-3.9157,-3.9101,-3.9101,-3.9101,-3.9101,-3.9101,-3.9101,-3.9101,-3.9101,-3.9101,-3.9101,-3.9101,-3.9101,-3.9101,-3.9101,-3.9101,-3.9101,-3.9333,-3.9574,-4.02,-4.0836,-4.128,-4.1856,-4.2356,-4.308,-4.3768,-4.4195,-4.4612,-4.4777,-4.4789,-4.4814,-4.4814,-4.4801,-4.477,-4.4801,-4.5003,-4.5129,-4.523,-4.513,-4.5067,-4.506,-4.4844,-4.4557,-4.4508,-4.4481,-4.461,-4.4839,-4.5,-4.5159,-4.5145,-4.5042,-4.4888,-4.4713,-4.4732,-4.4751,-4.4941,-4.5113,-4.535,-4.5486,-4.5587,-4.5665,-4.5668,-4.57,-4.5739,-4.5754,-4.5734,-4.5754,-4.5731,-4.5306,-4.4391,-4.3407,-4.2447,-4.1911,-4.1415,-4.1061,-4.0894,-4.0842,-4.0933,-4.889,-4.889,-4.889,-4.889,-4.889,-4.889,-4.889,-4.889,-4.889,-4.889,-4.889,-4.8816,-4.8017,-4.6828,-4.6364,-4.5584,-4.4005,-4.4005,-4.4005,-4.4005,-4.4005,-4.4005,-4.4005,-4.4005,-4.4005,-4.4005,-4.4005,-4.4005,-4.4005,-4.4005,-4.3522,-4.2927,-4.302,-4.2333,-4.1497,-4.0773,-3.9955,-3.9268,-3.9101,-3.9101,-3.9101,-3.9101,-3.9101,-3.9101,-3.9101,-3.9101,-3.9101,-3.9101,-3.9101,-3.9101,-3.925,-3.9268,-3.9324,-3.9472,-3.9784,-4.0258,-4.0644,-4.1371,-4.2104,-4.2629,-4.3152,-4.3586,-4.4007,-4.4382,-4.457,-4.4667,-4.4693,-4.4616,-4.4589,-4.4621,-4.4667,-4.4768,-4.5079,-4.5348,-4.5476,-4.5546,-4.5481,-4.5402,-4.5125,-4.4543,-4.4294,-4.4283,-4.4283,-4.4513,-4.4764,-4.4922,-4.4825,-4.4726,-4.4562,-4.4416,-4.4463,-4.4527,-4.4752,-4.4981,-4.5288,-4.5448,-4.5587,-4.564,-4.5646,-4.566,-4.5684,-4.5673,-4.57,-4.5616,-4.5573,-4.5481,-4.532,-4.4374,-4.3396,-4.2379,-4.1699,-4.1338,-4.1176,-4.1195,-4.1369,-4.889,-4.889,-4.889,-4.889,-4.889,-4.889,-4.889,-4.889,-4.889,-4.889,-4.889,-4.8816,-4.7999,-4.6865,-4.6401,-4.5584,-4.4172,-4.4005,-4.4005,-4.4005,-4.4005,-4.4005,-4.4005,-4.4005,-4.4005,-4.4005,-4.4005,-4.4005,-4.4005,-4.4005,-4.3912,-4.3615,-4.3466,-4.302,-4.2259,-4.1107,-4.003,-3.9361,-3.912,-3.9101,-3.9101,-3.9101,-3.9101,-3.9101,-3.9101,-3.9101,-3.9101,-3.9101,-3.9101,-3.9231,-3.9621,-3.977,-3.9955,-4.0271,-4.068,-4.1126,-4.1441,-4.211,-4.2612,-4.305,-4.3216,-4.3754,-4.4071,-4.4273,-4.4335,-4.4292,-4.4277,-4.4258,-4.4325,-4.4462,-4.431,-4.4744,-4.5253,-4.5585,-4.5825,-4.5986,-4.5952,-4.5903,-4.5477,-4.4909,-4.4401,-4.4094,-4.4128,-4.4173,-4.4444,-4.4674,-4.4544,-4.4416,-4.4312,-4.4288,-4.4378,-4.4541,-4.4789,-4.5004,-4.5309,-4.5458,-4.5586,-4.5594,-4.5603,-4.5575,-4.5556,-4.5629,-4.562,-4.5522,-4.5391,-4.5284,-4.5158,-4.5044,-4.4336,-4.3248,-4.2313,-4.1574,-4.1517,-4.1629,-4.1841,-4.889,-4.889,-4.889,-4.889,-4.889,-4.889,-4.889,-4.889,-4.889,-4.889,-4.889,-4.8834,-4.7999,-4.6865,-4.6457,-4.5565,-4.4376,-4.4005,-4.4005,-4.4005,-4.4005,-4.4005,-4.4005,-4.4005,-4.4005,-4.4005,-4.4005,-4.4005,-4.4005,-4.4005,-4.3968,-4.3949,-4.3986,-4.3559,-4.2983,-4.1609,-4.0327,-3.9677,-3.9194,-3.9101,-3.9101,-3.9101,-3.9101,-3.9101,-3.9101,-3.9101,-3.9101,-3.912,-3.9305,-3.9621,-4.003,-4.049,-4.0843,-4.1237,-4.1664,-4.2054,-4.2426,-4.2853,-4.3076,-4.3225,-4.341,-4.3881,-4.3977,-4.4036,-4.4005,-4.4005,-4.4082,-4.407,-4.4203,-4.4376,-4.4432,-4.5183,-4.5962,-4.6438,-4.6701,-4.6829,-4.6627,-4.6499,-4.5887,-4.5279,-4.4987,-4.495,-4.5003,-4.5071,-4.4692,-4.473,-4.4298,-4.4269,-4.4335,-4.435,-4.4486,-4.4681,-4.4922,-4.5135,-4.5351,-4.5486,-4.5568,-4.5504,-4.5495,-4.5391,-4.5391,-4.5438,-4.5371,-4.515,-4.5052,-4.5038,-4.4958,-4.4871,-4.4543,-4.4067,-4.3111,-4.2163,-4.244,-4.2584,-4.2536,-4.889,-4.889,-4.889,-4.889,-4.889,-4.889,-4.889,-4.889,-4.889,-4.889,-4.889,-4.889,-4.8017,-4.6791,-4.6513,-4.5528,-4.4321,-4.4005,-4.4005,-4.4005,-4.4005,-4.4005,-4.4005,-4.4005,-4.4005,-4.4005,-4.4005,-4.4005,-4.4005,-4.4005,-4.4005,-4.4005,-4.4005,-4.3856,-4.3763,-4.2389,-4.12,-4.0397,-3.9602,-3.9435,-3.9417,-3.9472,-3.9491,-3.951,-3.9528,-3.9602,-3.9602,-3.9602,-3.9881,-4.0327,-4.0639,-4.1084,-4.1571,-4.1776,-4.2203,-4.2779,-4.2835,-4.3225,-4.3819,-4.3912,-4.3949,-4.3968,-4.4005,-4.4005,-4.4005,-4.4061,-4.4191,-4.4358,-4.4804,-4.5194,-4.5528,-4.5992,-4.6717,-4.7163,-4.7404,-4.7497,-4.7293,-4.707,-4.6494,-4.5881,-4.6141,-4.6401,-4.6364,-4.6194,-4.5395,-4.4885,-4.4243,-4.4191,-4.455,-4.465,-4.4879,-4.4985,-4.5209,-4.5186,-4.538,-4.5485,-4.5531,-4.5476,-4.5371,-4.5262,-4.5126,-4.506,-4.4957,-4.477,-4.4745,-4.4783,-4.4751,-4.47,-4.4471,-4.4238,-4.3601,-4.3002,-4.3318,-4.3489,-4.3392,-4.889,-4.889,-4.889,-4.889,-4.889,-4.889,-4.889,-4.889,-4.889,-4.889,-4.889,-4.889,-4.7999,-4.6921,-4.6364,-4.5602,-4.4246,-4.4005,-4.4005,-4.4005,-4.4005,-4.4005,-4.4005,-4.4005,-4.4005,-4.4005,-4.4005,-4.4005,-4.4005,-4.4005,-4.4005,-4.4005,-4.3968,-4.3689,-4.3243,-4.2463,-4.1999,-4.1326,-4.0903,-4.0773,-4.0736,-4.0698,-4.0661,-4.0643,-4.0624,-4.0587,-4.0568,-4.0531,-4.0773,-4.12,-4.1493,-4.2017,-4.2445,-4.2667,-4.3225,-4.354,-4.3578,-4.3689,-4.3968,-4.3986,-4.4005,-4.4005,-4.4005,-4.4005,-4.4005,-4.4599,-4.4766,-4.5026,-4.5621,-4.5992,-4.6215,-4.6847,-4.746,-4.7646,-4.785,-4.7924,-4.7813,-4.7627,-4.7218,-4.6587,-4.6494,-4.6661,-4.6717,-4.6995,-4.6438,-4.6178,-4.5732,-4.5549,-4.5786,-4.5542,-4.5517,-4.5521,-4.5586,-4.5418,-4.538,-4.5371,-4.5351,-4.526,-4.5175,-4.5106,-4.496,-4.477,-4.4668,-4.4562,-4.4554,-4.4532,-4.4546,-4.4573,-4.4612,-4.4366,-4.3916,-4.3623,-4.371,-4.3954,-4.4167,-4.889,-4.889,-4.889,-4.889,-4.889,-4.889,-4.889,-4.889,-4.889,-4.889,-4.889,-4.8872,-4.7999,-4.6884,-4.6382,-4.5584,-4.4116,-4.4005,-4.4005,-4.4005,-4.4005,-4.4005,-4.4005,-4.4005,-4.4005,-4.4005,-4.4005,-4.4005,-4.4005,-4.4005,-4.4005,-4.4005,-4.4005,-4.3782,-4.3318,-4.2946,-4.2537,-4.1962,-4.1683,-4.1404,-4.1441,-4.1479,-4.1497,-4.1493,-4.1479,-4.1516,-4.1568,-4.1642,-4.1739,-4.2092,-4.2482,-4.2965,-4.328,-4.3633,-4.4005,-4.4005,-4.4005,-4.3986,-4.4005,-4.4005,-4.4005,-4.4005,-4.4005,-4.4172,-4.4395,-4.4952,-4.5379,-4.5788,-4.6457,-4.6754,-4.7033,-4.7683,-4.8036,-4.824,-4.8277,-4.837,-4.8351,-4.8147,-4.8054,-4.7404,-4.72,-4.7218,-4.72,-4.7423,-4.7497,-4.7423,-4.733,-4.7111,-4.6741,-4.6281,-4.5904,-4.5873,-4.5613,-4.5236,-4.5113,-4.5115,-4.5082,-4.5023,-4.4948,-4.4852,-4.4655,-4.4448,-4.4402,-4.4368,-4.4321,-4.4321,-4.4397,-4.4463,-4.4544,-4.4643,-4.4606,-4.4352,-4.4163,-4.4326,-4.4592,-4.889,-4.889,-4.889,-4.889,-4.889,-4.889,-4.889,-4.889,-4.889,-4.889,-4.889,-4.8834,-4.7887,-4.6717,-4.6457,-4.5491,-4.4265,-4.4042,-4.4005,-4.4005,-4.4005,-4.4005,-4.4005,-4.4005,-4.4005,-4.4005,-4.4005,-4.4005,-4.4005,-4.4005,-4.4005,-4.4005,-4.4005,-4.3893,-4.3652,-4.3336,-4.2983,-4.2723,-4.2426,-4.2203,-4.2203,-4.1999,-4.2092,-4.211,-4.2092,-4.2092,-4.2073,-4.2054,-4.2333,-4.2612,-4.2909,-4.3355,-4.3708,-4.3986,-4.4005,-4.4005,-4.4005,-4.4005,-4.4042,-4.4042,-4.4228,-4.4321,-4.4339,-4.4636,-4.5045,-4.5491,-4.6085,-4.6624,-4.7256,-4.7516,-4.7831,-4.8277,-4.8704,-4.876,-4.876,-4.8797,-4.8797,-4.876,-4.8742,-4.8556,-4.85,-4.8481,-4.837,-4.8481,-4.8166,-4.8166,-4.7941,-4.7491,-4.7063,-4.6375,-4.6083,-4.6021,-4.5634,-4.4946,-4.4843,-4.4898,-4.4869,-4.4814,-4.4617,-4.4517,-4.4303,-4.4225,-4.4185,-4.4158,-4.4082,-4.4097,-4.427,-4.4416,-4.4505,-4.4627,-4.4706,-4.4764,-4.4461,-4.458,-4.48,-4.889,-4.889,-4.889,-4.889,-4.889,-4.889,-4.889,-4.889,-4.889,-4.889,-4.8872,-4.8277,-4.7404,-4.6494,-4.59,-4.4989,-4.4376,-4.4005,-4.4005,-4.4005,-4.4005,-4.4005,-4.4005,-4.4005,-4.4005,-4.4005,-4.4005,-4.4005,-4.4005,-4.4005,-4.4005,-4.4005,-4.4005,-4.4005,-4.3931,-4.3763,-4.3652,-4.3522,-4.3206,-4.3132,-4.3132,-4.3095,-4.3113,-4.3095,-4.3076,-4.3076,-4.3095,-4.3113,-4.3373,-4.3522,-4.3633,-4.3875,-4.3931,-4.4005,-4.4005,-4.4005,-4.4005,-4.4023,-4.4116,-4.4581,-4.4915,-4.5045,-4.5398,-4.5398,-4.5751,-4.6234,-4.6958,-4.7478,-4.7924,-4.8221,-4.8314,-4.8649,-4.889,-4.889,-4.889,-4.889,-4.889,-4.889,-4.889,-4.889,-4.889,-4.889,-4.889,-4.8834,-4.8574,-4.8649,-4.8443,-4.7919,-4.7262,-4.6523,-4.6068,-4.5979,-4.5425,-4.4678,-4.4668,-4.4726,-4.4667,-4.4587,-4.4412,-4.4279,-4.4214,-4.4128,-4.4036,-4.4005,-4.402,-4.4085,-4.4214,-4.4329,-4.4426,-4.451,-4.4605,-4.4719,-4.4833,-4.4846,-4.487,-4.889,-4.889,-4.889,-4.8742,-4.8463,-4.8426,-4.8277,-4.8054,-4.8277,-4.8426,-4.8333,-4.7571,-4.6773,-4.6011,-4.5491,-4.4859,-4.4079,-4.4005,-4.4005,-4.4005,-4.4005,-4.4005,-4.4005,-4.4005,-4.4005,-4.4005,-4.4005,-4.4005,-4.4005,-4.4005,-4.4005,-4.4005,-4.4005,-4.4005,-4.3986,-4.3949,-4.3968,-4.3949,-4.3949,-4.4005,-4.4005,-4.4005,-4.4005,-4.4005,-4.4005,-4.4005,-4.4005,-4.4005,-4.4005,-4.4005,-4.4005,-4.4005,-4.4005,-4.4005,-4.4005,-4.4005,-4.4005,-4.4265,-4.4562,-4.4952,-4.5379,-4.5862,-4.6494,-4.6624,-4.6735,-4.7088,-4.7664,-4.8184,-4.8556,-4.8853,-4.8872,-4.889,-4.889,-4.889,-4.889,-4.889,-4.889,-4.889,-4.889,-4.889,-4.889,-4.889,-4.889,-4.889,-4.8834,-4.8704,-4.8407,-4.7904,-4.7177,-4.6403,-4.5945,-4.5723,-4.5054,-4.436,-4.4449,-4.4491,-4.4407,-4.4335,-4.4225,-4.4124,-4.4119,-4.4089,-4.4023,-4.4039,-4.4055,-4.4119,-4.4135,-4.4244,-4.4329,-4.4416,-4.4487,-4.4578,-4.4667,-4.4745,-4.4783,-4.889,-4.889,-4.8816,-4.8351,-4.7757,-4.7664,-4.7237,-4.6587,-4.7216,-4.7551,-4.7423,-4.6754,-4.603,-4.5491,-4.5101,-4.4655,-4.4153,-4.4005,-4.4005,-4.4005,-4.4005,-4.4005,-4.4005,-4.4005,-4.4005,-4.4005,-4.4005,-4.4005,-4.4005,-4.4005,-4.4005,-4.4005,-4.4005,-4.4005,-4.4005,-4.4005,-4.4005,-4.4005,-4.4005,-4.4005,-4.4005,-4.4005,-4.4005,-4.4005,-4.4005,-4.4005,-4.4005,-4.4005,-4.4005,-4.4005,-4.4005,-4.4005,-4.4005,-4.4005,-4.4005,-4.4135,-4.4191,-4.4581,-4.5082,-4.5565,-4.6067,-4.6643,-4.7311,-4.7608,-4.7776,-4.7813,-4.8277,-4.8519,-4.8834,-4.889,-4.889,-4.889,-4.889,-4.889,-4.889,-4.889,-4.889,-4.889,-4.889,-4.889,-4.889,-4.889,-4.8816,-4.8779,-4.8426,-4.8463,-4.785,-4.7311,-4.6826,-4.6006,-4.5725,-4.5385,-4.478,-4.4207,-4.4158,-4.4188,-4.4113,-4.4051,-4.4033,-4.4033,-4.4055,-4.4039,-4.4005,-4.4039,-4.4039,-4.4039,-4.4055,-4.4165,-4.4259,-4.4318,-4.4373,-4.443,-4.4496,-4.4587,-4.4693,-4.889,-4.8834,-4.824,-4.785,-4.7627,-4.7033,-4.668,-4.6455,-4.6092,-4.628,-4.6566,-4.599,-4.5507,-4.5241,-4.4684,-4.4256,-4.4129,-4.4067,-4.4005,-4.402,-4.402,-4.4005,-4.4005,-4.4005,-4.4005,-4.4005,-4.4005,-4.4005,-4.4005,-4.4005,-4.4005,-4.4005,-4.4005,-4.4005,-4.4005,-4.4005,-4.4005,-4.4005,-4.4005,-4.4005,-4.4005,-4.4005,-4.4005,-4.4005,-4.4005,-4.4005,-4.4005,-4.4005,-4.4005,-4.4005,-4.4005,-4.4005,-4.4005,-4.4005,-4.4005,-4.4116,-4.4544,-4.5008,-4.5547,-4.6252,-4.6995,-4.7441,-4.8017,-4.8407,-4.863,-4.8612,-4.8667,-4.8816,-4.889,-4.889,-4.889,-4.889,-4.889,-4.889,-4.889,-4.889,-4.889,-4.889,-4.889,-4.889,-4.889,-4.8853,-4.8779,-4.8481,-4.8129,-4.7404,-4.6401,-4.5807,-4.5677,-4.5172,-4.5191,-4.4891,-4.4519,-4.4107,-4.4042,-4.4005,-4.4005,-4.4005,-4.402,-4.402,-4.4005,-4.4005,-4.4005,-4.4005,-4.4005,-4.4005,-4.4039,-4.4135,-4.4214,-4.4229,-4.424,-4.4281,-4.4325,-4.4426,-4.4546,-4.889,-4.8797,-4.8036,-4.7274,-4.6624,-4.616,-4.5769,-4.5358,-4.5022,-4.5155,-4.5487,-4.5136,-4.4916,-4.4965,-4.4423,-4.4218,-4.4203,-4.4207,-4.4192,-4.4162,-4.4082,-4.4036,-4.402,-4.4005,-4.4005,-4.4005,-4.4005,-4.4005,-4.4005,-4.4005,-4.4005,-4.4005,-4.4005,-4.4005,-4.4005,-4.4005,-4.4005,-4.4005,-4.4005,-4.4005,-4.4005,-4.4005,-4.4005,-4.4005,-4.4005,-4.4005,-4.4005,-4.4005,-4.4005,-4.4005,-4.4005,-4.4005,-4.4005,-4.4005,-4.4005,-4.4246,-4.4711,-4.5435,-4.6048,-4.6865,-4.785,-4.824,-4.85,-4.8779,-4.8797,-4.876,-4.876,-4.889,-4.889,-4.889,-4.889,-4.889,-4.889,-4.889,-4.889,-4.889,-4.889,-4.889,-4.889,-4.889,-4.889,-4.889,-4.8704,-4.824,-4.7887,-4.7497,-4.629,-4.5324,-4.5008,-4.4618,-4.4581,-4.4488,-4.4209,-4.4061,-4.4023,-4.4005,-4.4005,-4.4005,-4.4005,-4.4005,-4.4005,-4.4005,-4.4005,-4.4005,-4.4005,-4.4005,-4.4055,-4.4104,-4.4085,-4.4101,-4.4131,-4.4162,-4.4207,-4.4252,-4.4383,-4.8834,-4.863,-4.7755,-4.6638,-4.5446,-4.5204,-4.4826,-4.4262,-4.4304,-4.4426,-4.4607,-4.4599,-4.4524,-4.4524,-4.4537,-4.4537,-4.4505,-4.4444,-4.4407,-4.431,-4.4222,-4.4113,-4.4036,-4.4005,-4.4005,-4.4005,-4.4005,-4.4005,-4.4005,-4.4005,-4.4005,-4.4005,-4.4005,-4.4005,-4.4005,-4.4005,-4.4005,-4.4005,-4.4005,-4.4005,-4.4005,-4.4005,-4.4005,-4.4005,-4.4005,-4.4005,-4.4005,-4.4005,-4.4005,-4.4005,-4.4005,-4.4005,-4.4005,-4.4005,-4.4005,-4.4246,-4.5082,-4.5769,-4.6457,-4.7348,-4.8129,-4.8667,-4.8834,-4.889,-4.889,-4.889,-4.889,-4.8872,-4.8872,-4.889,-4.889,-4.889,-4.889,-4.889,-4.889,-4.889,-4.889,-4.889,-4.889,-4.889,-4.889,-4.889,-4.8612,-4.8147,-4.7571,-4.7218,-4.655,-4.5714,-4.4971,-4.4544,-4.4283,-4.4246,-4.4116,-4.4023,-4.4005,-4.4005,-4.4005,-4.4005,-4.4005,-4.4005,-4.4005,-4.4005,-4.4005,-4.4005,-4.4005,-4.4005,-4.4005,-4.4039,-4.402,-4.402,-4.4036,-4.4067,-4.4082,-4.4162,-4.4226,-4.8519,-4.7813,-4.6445,-4.5671,-4.5375,-4.4838,-4.4485,-4.4444,-4.4546,-4.4693,-4.4802,-4.49,-4.49,-4.4764,-4.4733,-4.4752,-4.4739,-4.4688,-4.453,-4.4393,-4.436,-4.4199,-4.4064,-4.4067,-4.402,-4.4005,-4.4005,-4.4005,-4.4005,-4.4005,-4.4005,-4.4005,-4.4005,-4.4005,-4.4005,-4.4005,-4.4005,-4.4005,-4.4005,-4.4005,-4.4005,-4.4005,-4.4005,-4.4005,-4.4005,-4.4005,-4.4005,-4.4005,-4.4005,-4.4005,-4.4005,-4.4005,-4.4005,-4.4005,-4.4005,-4.4376,-4.5249,-4.6048,-4.6791,-4.7813,-4.8593,-4.8797,-4.8872,-4.8834,-4.8853,-4.8872,-4.8834,-4.8779,-4.8797,-4.8872,-4.889,-4.889,-4.889,-4.889,-4.889,-4.889,-4.889,-4.889,-4.889,-4.889,-4.889,-4.8872,-4.8797,-4.8054,-4.7014,-4.6494,-4.5639,-4.4915,-4.4934,-4.4488,-4.4098,-4.4098,-4.4135,-4.4005,-4.4005,-4.4005,-4.4005,-4.4005,-4.4005,-4.4005,-4.4005,-4.4005,-4.4005,-4.4005,-4.4005,-4.4005,-4.4005,-4.4005,-4.4005,-4.4005,-4.4005,-4.402,-4.402,-4.4051,-4.415]},{"header":{"parameterUnit":"m.s-1","parameterCategory":1,"la1":31.0,"la2":29.5877,"lo1":-88.7671,"lo2":-86.6584,"dy":0.0162,"dx":0.0185,"nx":115,"ny":88,"refTime":"2026-04-22T12:00:00:Z","depth":0,"parameterNumber":3,"parameterNumberName":"V-component_of_WINDS"},"data":[0.0,0.0,0.0,0.0,0.0,0.0,0.0,0.0,0.0,0.0,0.0,0.0,0.0,0.0,0.0,0.0,0.0,0.0,0.0,0.0,0.0,0.0,0.0,0.0,0.0,0.0,0.0,0.0,0.0,0.0,0.0,0.0,0.0,0.0,0.0,0.0,0.0,0.0,0.0,0.0,0.0,0.0,0.0,0.0,0.0,0.0,0.0,0.0,0.0,0.0,0.0,0.0,0.0,0.0,0.0,0.0,0.0,0.0,0.0,0.0,0.0,0.0,0.0,0.0,0.0,0.0,0.0,0.0,0.0,0.0,0.0,0.0,0.0,0.0,0.0,0.0,0.0,0.0,0.0,0.0,0.0,0.0,0.0,0.0,0.0,0.0,0.0,0.0,0.0,0.0,0.0,0.0,0.0,0.0,0.0,0.0,0.0,0.0,0.0,0.0,0.0,0.0,0.0,0.0,0.0,0.0,0.0,0.0,0.0,0.0,0.0,0.0,0.0,0.0,0.0,0.0,0.0,0.0,0.0,0.0,0.0,0.0,0.0,0.0,0.0,0.0,0.0,0.0,0.0,0.0,0.0,0.0,0.0,0.0,0.0,0.0,0.0,0.0,0.0,0.0,0.0,0.0,0.0,0.0,0.0,0.0,0.0,0.0,0.0,0.0,0.0,0.0,0.0,0.0,0.0,0.0,0.0,0.0,0.0,0.0,0.0,0.0,0.0,0.0,0.0,0.0,0.0,0.0,0.0,0.0,0.0,0.0,0.0,0.0,0.0,0.0,0.0,0.0,0.0,0.0,0.0,0.0,0.0,0.0,0.0,0.0,0.0,0.0,0.0,0.0,0.0,0.0,0.0,0.0,0.0,0.0,0.0,0.0,0.0,0.0,0.0,0.0,0.0,0.0,0.0,0.0,0.0,0.0,0.0,0.0,0.0,0.0,0.0,0.0,0.0,0.0,0.0,0.0,0.0,0.0,0.0,0.0,0.0,0.0,0.0,0.0,0.0,0.0,0.0,0.0,0.0,0.0,0.0,0.0,0.0,0.0,0.0,0.0,0.0,0.0,0.0,0.0,0.0,0.0,0.0,0.0,0.0,0.0,0.0,0.0,0.0,0.0,0.0,0.0,0.0,0.0,0.0,0.0,0.0,0.0,0.0,0.0,0.0,0.0,0.0,0.0,0.0,0.0,0.0,0.0,0.0,0.0,0.0,0.0,0.0,0.0,0.0,0.0,0.0,0.0,0.0,0.0,0.0,0.0,0.0,0.0,0.0,0.0,0.0,0.0,0.0,0.0,0.0,0.0,0.0,0.0,0.0,0.0,0.0,0.0,0.0,0.0,0.0,0.0,0.0,0.0,0.0,0.0,0.0,0.0,0.0,0.0,0.0,0.0,0.0,0.0,0.0,0.0,0.0,0.0,0.0,0.0,0.0,0.0,0.0,0.0,0.0,0.0,0.0,0.0,0.0,0.0,0.0,0.0,0.0,0.0,0.0,0.0,0.0,0.0,0.0,0.0,0.0,0.0,0.0,0.0,0.0,0.0,0.0,0.0,0.0,0.0,0.0,0.0,0.0,0.0,0.0,0.0,0.0,0.0,0.0,0.0,0.0,0.0,0.0,0.0,0.0,0.0,0.0,0.0,0.0,0.0,0.0,0.0,0.0,0.0,0.0,0.0,0.0,0.0,0.0,0.0,0.0,0.0,0.0,0.0,0.0,0.0,0.0,0.0,0.0,0.0,0.0,0.0,0.0,0.0,0.0,0.0,0.0,0.0,0.0,0.0,0.0,0.0,0.0,0.0,0.0,0.0,0.0,0.0,0.0,0.0,0.0,0.0,0.0,0.0,0.0,0.0,0.0,0.0,0.0,0.0,0.0,0.0,0.0,0.0,0.0,0.0,0.0,0.0,0.0,0.0,0.0,0.0,0.0,0.0,0.0,0.0,0.0,0.0,0.0,0.0,0.0,0.0,0.0,0.0,0.0,0.0,0.0,0.0,0.0,0.0,0.0,0.0,0.0,0.0,0.0,0.0,0.0,0.0,0.0,0.0,0.0,0.0,0.0,0.0,0.0,0.0,0.0,0.0,0.0,0.0,0.0,0.0,0.0,0.0,0.0,0.0,0.0,0.0,0.0,0.0,0.0,0.0,0.0,0.0,0.0,0.0,0.0,0.0,0.0,0.0,0.0,0.0,0.0,0.0,0.0,0.0,0.0,0.0,0.0,0.0,0.0,0.0,0.0,0.0,0.0,0.0,0.0,0.0,0.0,0.0,0.0,0.0,0.0,0.0,0.0,0.0,0.0,0.0,0.0,0.0,0.0,0.0,0.0,0.0,0.0,0.0,0.0,0.0,0.0,0.0,0.0,0.0,0.0,0.0,0.0,0.0,0.0,0.0,0.0,0.0,0.0,0.0,0.0,0.0,0.0,0.0,0.0,0.0,0.0,0.0,0.0,0.0,0.0,0.0,0.0,0.0,0.0,0.0,0.0,0.0,0.0,0.0,0.0,0.0,0.0,0.0,0.0,0.0,0.0,0.0,0.0,0.0,0.0,0.0,0.0,0.0,0.0,0.0,0.0,0.0,0.0,0.0,0.0,0.0,0.0,0.0,0.0,0.0,0.0,0.0,0.0,0.0,0.0,0.0,0.0,0.0,0.0,0.0,0.0,0.0,0.0,0.0,0.0,0.0,0.0,0.0,0.0,0.0,0.0,0.0,0.0,0.0,0.0,0.0,0.0,0.0,0.0,0.0,0.0,0.0,0.0,0.0,0.0,0.0,0.0,0.0,0.0,0.0,0.0,0.0,0.0,0.0,0.0,0.0,0.0,0.0,0.0,0.0,0.0,0.0,0.0,0.0,0.0,0.0,0.0,0.0,0.0,0.0,0.0,0.0,0.0,0.0,0.0,0.0,0.0,0.0,0.0,0.0,0.0,0.0,0.0,0.0,0.0,0.0,0.0,0.0,0.0,0.0,0.0,0.0,0.0,0.0,0.0,0.0,0.0,0.0,0.0,0.0,0.0,0.0,0.0,0.0,0.0,0.0,0.0,0.0,0.0,0.0,0.0,0.0,0.0,0.0,0.0,0.0,0.0,0.0,0.0,0.0,0.0,0.0,0.0,0.0,0.0,0.0,0.0,0.0,0.0,0.0,0.0,0.0,0.0,0.0,0.0,0.0,0.0,0.0,0.0,0.0,0.0,0.0,0.0,0.0,0.0,0.0,0.0,0.0,0.0,0.0,0.0,0.0,0.0,0.0,0.0,0.0,0.0,0.0,0.0,0.0,0.0,0.0,0.0,0.0,0.0,0.0,0.0,0.0,0.0,0.0,0.0,0.0,0.0,0.0,0.0,0.0,0.0,0.0,0.0,0.0,0.0,0.0,0.0,0.0,0.0,0.0,0.0,0.0,0.0,0.0,0.0,0.0,0.0,0.0,0.0,0.0,0.0,0.0,0.0,0.0,0.0,0.0,0.0,0.0,0.0,0.0,0.0,0.0,0.0,0.0,0.0,0.0,0.0,0.0,0.0,0.0,0.0,0.0,0.0,0.0,0.0,0.0,0.0,0.0,0.0,0.0,0.0,0.0,0.0,0.0,0.0,0.0,0.0,0.0,0.0,0.0,0.0,0.0,0.0,0.0,0.0,0.0,0.0,0.0,0.0,0.0,0.0,0.0,0.0,0.0,0.0,0.0,0.0,0.0,0.0,0.0,0.0,0.0,0.0,0.0,0.0,0.0,0.0,0.0,0.0,0.0,0.0,0.0,0.0,0.0,0.0,0.0,0.0,0.0,0.0,0.0,0.0,0.0,0.0,0.0,0.0,0.0,0.0,0.0,0.0,0.0,0.0,0.0,0.0,0.0,0.0,0.0,0.0,0.0,0.0,0.0,0.0,0.0,0.0,0.0,0.0,0.0,0.0,0.0,0.0,0.0,0.0,0.0,0.0,0.0,0.0,0.0,0.0,0.0,0.0,0.0,0.0,0.0,0.0,0.0,0.0,0.0,0.0,0.0,0.0,0.0,0.0,0.0,0.0,0.0,0.0,0.0,0.0,0.0,0.0,0.0,0.0,0.0,0.0,0.0,0.0,0.0,0.0,0.0,0.0,0.0,0.0,0.0,0.0,0.0,0.0,0.0,0.0,0.0,0.0,0.0,0.0,0.0,0.0,0.0,0.0,0.0,0.0,0.0,0.0,0.0,0.0,0.0,0.0,0.0,0.0,0.0,0.0,0.0,0.0,0.0,0.0,0.0,0.0,0.0,0.0,0.0,0.0,0.0,0.0,0.0,-0.886,0.0,0.0,0.0,0.0,0.0,0.0,0.0,0.0,0.0,0.0,0.0,0.0,0.0,0.0,0.0,0.0,0.0,0.0,0.0,0.0,0.0,0.0,0.0,0.0,0.0,0.0,0.0,0.0,0.0,0.0,0.0,0.0,0.0,0.0,0.0,0.0,0.0,0.0,0.0,0.0,0.0,0.0,0.0,0.0,0.0,0.0,0.0,0.0,0.0,0.0,0.0,0.0,0.0,0.0,0.0,0.0,0.0,0.0,0.0,0.0,0.0,0.0,0.0,0.0,0.0,0.0,0.0,0.0,0.0,0.0,0.0,0.0,0.0,0.0,0.0,0.0,0.0,0.0,0.0,0.0,0.0,0.0,0.0,0.0,0.0,0.0,0.0,0.0,0.0,0.0,0.0,0.0,0.0,0.0,0.0,0.0,0.0,0.0,0.0,0.0,0.0,0.0,0.0,0.0,0.0,0.0,0.0,0.0,0.0,0.0,-0.7928,-0.9227,-0.9193,-0.9076,-0.8882,0.0,0.0,0.0,0.0,0.0,0.0,0.0,0.0,0.0,0.0,0.0,0.0,0.0,0.0,0.0,0.0,0.0,0.0,0.0,0.0,0.0,0.0,0.0,0.0,0.0,0.0,0.0,0.0,0.0,0.0,0.0,0.0,0.0,0.0,0.0,0.0,0.0,0.0,0.0,0.0,0.0,0.0,0.0,0.0,0.0,0.0,0.0,0.0,0.0,0.0,0.0,0.0,0.0,0.0,0.0,0.0,0.0,0.0,0.0,0.0,0.0,0.0,0.0,0.0,0.0,0.0,0.0,0.0,0.0,0.0,0.0,0.0,0.0,0.0,0.0,0.0,0.0,0.0,0.0,0.0,0.0,0.0,0.0,0.0,0.0,0.0,0.0,0.0,0.0,0.0,0.0,0.0,0.0,0.0,0.0,0.0,0.0,0.0,0.0,0.0,0.0,0.0,0.0,0.0,0.0,0.0,0.0,0.0,0.0,0.0,0.0,0.0,-0.9234,-0.9076,-0.8801,0.0,0.0,0.0,0.0,0.0,0.0,0.0,0.0,0.0,0.0,0.0,0.0,0.0,0.0,0.0,0.0,0.0,0.0,0.0,0.0,0.0,0.0,0.0,0.0,0.0,0.0,0.0,0.0,0.0,0.0,0.0,0.0,0.0,0.0,0.0,0.0,0.0,0.0,0.0,0.0,0.0,0.0,0.0,0.0,0.0,0.0,0.0,0.0,0.0,0.0,0.0,0.0,0.0,0.0,0.0,0.0,0.0,0.0,0.0,0.0,0.0,0.0,0.0,0.0,0.0,0.0,0.0,0.0,0.0,0.0,0.0,0.0,0.0,0.0,0.0,0.0,0.0,0.0,0.0,0.0,0.0,0.0,0.0,0.0,0.0,0.0,0.0,0.0,0.0,0.0,0.0,0.0,0.0,0.0,0.0,0.0,0.0,0.0,0.0,0.0,0.0,0.0,0.0,0.0,0.0,0.0,0.0,0.0,0.0,0.0,-0.7829,-0.9391,-0.9351,0.0,-0.8641,0.0,0.0,0.0,0.0,0.0,0.0,0.0,0.0,0.0,0.0,0.0,0.0,0.0,0.0,0.0,0.0,0.0,0.0,0.0,0.0,0.0,0.0,0.0,0.0,0.0,0.0,0.0,0.0,0.0,0.0,0.0,0.0,0.0,0.0,0.0,0.0,0.0,0.0,0.0,0.0,0.0,0.0,0.0,0.0,0.0,0.0,0.0,0.0,0.0,0.0,0.0,0.0,0.0,0.0,0.0,0.0,0.0,0.0,0.0,0.0,0.0,0.0,0.0,0.0,0.0,0.0,0.0,0.0,0.0,0.0,0.0,0.0,0.0,0.0,0.0,0.0,0.0,0.0,0.0,0.0,0.0,0.0,0.0,0.0,0.0,0.0,0.0,0.0,0.0,0.0,0.0,0.0,0.0,0.0,0.0,0.0,0.0,0.0,0.0,0.0,0.0,0.0,0.0,0.0,0.0,0.0,0.0,0.0,0.0,0.0,-0.792,-0.9593,-0.934,-0.8978,0.0,0.0,0.0,0.0,0.0,0.0,0.0,0.0,0.0,0.0,0.0,0.0,0.0,0.0,0.0,0.0,0.0,0.0,0.0,0.0,0.0,0.0,0.0,0.0,0.0,0.0,0.0,0.0,0.0,0.0,0.0,0.0,0.0,0.0,0.0,0.0,0.0,0.0,0.0,0.0,0.0,0.0,0.0,0.0,0.0,0.0,0.0,0.0,0.0,0.0,0.0,0.0,0.0,0.0,0.0,0.0,0.0,0.0,0.0,0.0,0.0,0.0,0.0,0.0,0.0,0.0,0.0,0.0,0.0,0.0,0.0,0.0,0.0,0.0,0.0,0.0,0.0,0.0,0.0,0.0,0.0,0.0,0.0,0.0,0.0,0.0,0.0,0.0,0.0,0.0,0.0,0.0,0.0,0.0,0.0,0.0,0.0,0.0,0.0,0.0,0.0,0.0,0.0,0.0,0.0,0.0,0.0,0.0,0.0,0.0,-0.6272,-0.7913,-0.9429,-0.9207,-0.8826,-0.838,0.0,0.0,0.0,0.0,0.0,0.0,0.0,0.0,0.0,0.0,0.0,0.0,0.0,0.0,0.0,0.0,0.0,0.0,0.0,0.0,0.0,0.0,0.0,0.0,0.0,0.0,0.0,0.0,0.0,0.0,0.0,0.0,0.0,0.0,0.0,0.0,0.0,0.0,0.0,0.0,0.0,0.0,0.0,0.0,0.0,0.0,0.0,0.0,0.0,0.0,0.0,0.0,0.0,0.0,0.0,0.0,0.0,0.0,0.0,0.0,0.0,0.0,0.0,0.0,0.0,0.0,0.0,0.0,0.0,0.0,0.0,0.0,0.0,0.0,0.0,0.0,0.0,0.0,0.0,0.0,0.0,0.0,0.0,0.0,0.0,0.0,0.0,0.0,0.0,0.0,0.0,0.0,0.0,0.0,0.0,0.0,0.0,0.0,0.0,0.0,0.0,0.0,0.0,0.0,0.0,0.0,0.0,0.0,0.0,-0.6221,-0.7679,-0.9097,-0.8918,-0.8614,0.0,0.0,0.0,0.0,0.0,0.0,0.0,0.0,0.0,0.0,0.0,0.0,0.0,0.0,0.0,0.0,0.0,0.0,0.0,0.0,0.0,0.0,0.0,0.0,0.0,0.0,0.0,0.0,0.0,0.0,0.0,0.0,0.0,0.0,0.0,0.0,0.0,0.0,0.0,0.0,0.0,0.0,0.0,0.0,0.0,0.0,0.0,0.0,0.0,0.0,0.0,0.0,0.0,0.0,0.0,0.0,0.0,0.0,0.0,0.0,0.0,0.0,0.0,0.0,0.0,0.0,0.0,0.0,0.0,0.0,0.0,0.0,0.0,0.0,0.0,0.0,0.0,0.0,0.0,0.0,0.0,0.0,0.0,0.0,0.0,0.0,0.0,0.0,0.0,0.0,0.0,0.0,0.0,0.0,0.0,0.0,0.0,0.0,0.0,0.0,0.0,0.0,0.0,0.0,0.0,0.0,0.0,0.0,0.0,-0.4596,-0.7159,-0.8675,-0.9062,-0.8899,-0.8565,0.0,0.0,0.0,0.0,0.0,0.0,0.0,0.0,0.0,0.0,0.0,0.0,0.0,0.0,0.0,0.0,0.0,0.0,0.0,0.0,0.0,0.0,0.0,0.0,0.0,0.0,0.0,0.0,0.0,0.0,0.0,0.0,0.0,0.0,0.0,0.0,0.0,0.0,0.0,0.0,0.0,0.0,0.0,0.0,0.0,0.0,0.0,0.0,0.0,0.0,0.0,0.0,0.0,0.0,0.0,0.0,0.0,0.0,0.0,0.0,0.0,0.0,0.0,0.0,0.0,0.0,0.0,0.0,0.0,0.0,0.0,0.0,0.0,0.0,0.0,0.0,0.0,0.0,0.0,0.0,0.0,0.0,0.0,0.0,0.0,0.0,0.0,0.0,0.0,0.0,0.0,0.0,0.0,0.0,0.0,0.0,0.0,0.0,0.0,0.0,0.0,0.0,0.0,0.0,0.0,0.0,0.0,0.0,0.0,-0.4896,0.0,-0.887,0.0,-0.8771,-0.8549,0.0,0.0,0.0,0.0,0.0,0.0,0.0,0.0,0.0,0.0,0.0,0.0,0.0,0.0,0.0,0.0,0.0,0.0,0.0,0.0,0.0,0.0,0.0,0.0,0.0,0.0,0.0,0.0,0.0,0.0,0.0,0.0,0.0,0.0,0.0,0.0,0.0,0.0,0.0,0.0,0.0,0.0,0.0,0.0,0.0,0.0,0.0,0.0,0.0,0.0,0.0,0.0,0.0,0.0,0.0,0.0,0.0,0.0,0.0,0.0,0.0,0.0,0.0,0.0,0.0,0.0,0.0,0.0,0.0,0.0,0.0,0.0,0.0,0.0,0.0,0.0,0.0,0.0,0.0,0.0,0.0,0.0,0.0,0.0,0.0,0.0,0.0,0.0,0.0,0.0,0.0,0.0,0.0,0.0,0.0,0.0,0.0,0.0,0.0,0.0,0.0,0.0,0.0,0.0,0.0,0.0,0.0,0.0,-0.298,-0.5667,-0.7268,-0.8193,-0.8408,-0.8517,-0.8364,0.0,0.0,0.0,0.0,0.0,0.0,0.0,0.0,0.0,0.0,0.0,0.0,0.0,0.0,0.0,0.0,0.0,0.0,0.0,0.0,0.0,0.0,0.0,0.0,0.0,0.0,0.0,0.0,0.0,0.0,0.0,0.0,0.0,0.0,0.0,0.0,0.0,0.0,0.0,0.0,0.0,0.0,0.0,0.0,0.0,0.0,0.0,0.0,0.0,0.0,0.0,0.0,0.0,0.0,0.0,0.0,0.0,0.0,0.0,0.0,0.0,0.0,0.0,0.0,0.0,0.0,0.0,0.0,0.0,0.0,0.0,0.0,0.0,0.0,0.0,0.0,0.0,0.0,0.0,0.0,0.0,0.0,0.0,0.0,0.0,0.0,0.0,0.0,0.0,0.0,0.0,0.0,0.0,0.0,0.0,0.0,0.0,0.0,0.0,0.0,0.0,0.0,0.0,0.0,0.0,0.0,0.0,0.0,0.0,-0.4813,-0.6444,-0.75,-0.8011,-0.8345,-0.832,0.0,0.0,0.0,0.0,0.0,0.0,0.0,0.0,0.0,0.0,0.0,0.0,0.0,0.0,0.0,0.0,0.0,0.0,0.0,0.0,0.0,0.0,0.0,0.0,0.0,0.0,0.0,0.0,0.0,0.0,0.0,0.0,0.0,0.0,0.0,0.0,0.0,0.0,0.0,0.0,0.0,0.0,0.0,0.0,0.0,0.0,0.0,0.0,0.0,0.0,0.0,0.0,0.0,0.0,0.0,0.0,0.0,0.0,0.0,0.0,0.0,0.0,0.0,0.0,0.0,0.0,0.0,0.0,0.0,0.0,0.0,0.0,0.0,0.0,0.0,0.0,0.0,0.0,0.0,0.0,0.0,0.0,0.0,0.0,0.0,0.0,0.0,0.0,0.0,0.0,0.0,0.0,0.0,0.0,0.0,0.0,0.0,0.0,0.0,0.0,0.0,0.0,0.0,0.0,0.0,0.0,0.0,0.0,0.0,-0.3307,-0.5108,-0.647,-0.7265,-0.7785,-0.8042,-0.7874,0.0,0.0,0.0,0.0,0.0,0.0,0.0,0.0,0.0,0.0,0.0,0.0,0.0,0.0,0.0,0.0,0.0,0.0,0.0,0.0,0.0,0.0,0.0,0.0,0.0,0.0,0.0,0.0,0.0,0.0,0.0,0.0,0.0,0.0,0.0,0.0,0.0,0.0,0.0,0.0,0.0,0.0,0.0,0.0,0.0,0.0,0.0,0.0,0.0,0.0,0.0,0.0,0.0,0.0,0.0,0.0,0.0,0.0,0.0,0.0,0.0,0.0,0.0,0.0,0.0,0.0,0.0,0.0,0.0,0.0,0.0,0.0,0.0,0.0,0.0,0.0,0.0,0.0,0.0,0.0,0.0,0.0,0.0,0.0,0.0,0.0,0.0,0.0,0.0,0.0,0.0,0.0,0.0,0.0,0.0,0.0,0.0,0.0,0.0,0.0,0.0,0.0,0.0,0.0,0.0,0.0,0.0,0.0,-0.1234,-0.3476,-0.5089,-0.6213,-0.7027,-0.7528,0.0,0.0,0.0,0.0,0.0,0.0,0.0,0.0,0.0,0.0,0.0,0.0,0.0,0.0,0.0,0.0,0.0,0.0,0.0,0.0,0.0,0.0,0.0,0.0,0.0,0.0,0.0,0.0,0.0,0.0,0.0,0.0,0.0,0.0,0.0,0.0,0.0,0.0,0.0,0.0,0.0,0.0,0.0,0.0,0.0,0.0,0.0,0.0,0.0,0.0,0.0,0.0,0.0,0.0,0.0,0.0,0.0,0.0,0.0,0.0,0.0,0.0,0.0,0.0,0.0,0.0,0.0,0.0,0.0,0.0,0.0,0.0,0.0,0.0,0.0,0.0,0.0,0.0,0.0,0.0,0.0,0.0,0.0,0.0,0.0,0.0,0.0,0.0,0.0,0.0,0.0,0.0,0.0,0.0,0.0,0.0,0.0,0.0,0.0,0.0,0.0,0.0,0.0,0.0,0.0,0.0,0.0,0.0,0.0,-0.0771,-0.1755,-0.318,-0.509,-0.6121,-0.6872,0.0,0.0,0.0,0.0,0.0,0.0,0.0,0.0,0.0,0.0,0.0,0.0,0.0,0.0,0.0,0.0,0.0,0.0,0.0,0.0,0.0,0.0,0.0,0.0,0.0,0.0,0.0,0.0,0.0,0.0,0.0,0.0,0.0,0.0,0.0,0.0,0.0,0.0,0.0,0.0,0.0,0.0,0.0,0.0,0.0,0.0,0.0,0.0,0.0,0.0,0.0,0.0,0.0,0.0,0.0,0.0,0.0,0.0,0.0,0.0,0.0,0.0,0.0,0.0,0.0,0.0,0.0,0.0,0.0,0.0,0.0,0.0,0.0,0.0,0.0,0.0,0.0,0.0,0.0,0.0,0.0,0.0,0.0,0.0,0.0,0.0,0.0,0.0,0.0,0.0,0.0,0.0,0.0,0.0,0.0,0.0,0.0,0.0,0.0,0.0,0.0,0.0,0.0,0.0,0.0,0.0,0.0,0.0,-0.0076,-0.0308,-0.0646,-0.1703,-0.3651,-0.5164,-0.6308,0.0,0.0,0.0,0.0,0.0,0.0,0.0,0.0,0.0,0.0,0.0,0.0,0.0,0.0,0.0,0.0,0.0,0.0,0.0,0.0,0.0,0.0,0.0,0.0,0.0,0.0,0.0,0.0,0.0,0.0,0.0,0.0,0.0,0.0,0.0,0.0,0.0,0.0,0.0,0.0,0.0,0.0,0.0,0.0,0.0,0.0,0.0,0.0,0.0,0.0,0.0,0.0,0.0,0.0,0.0,0.0,0.0,0.0,0.0,0.0,0.0,0.0,0.0,0.0,0.0,0.0,0.0,0.0,0.0,0.0,0.0,0.0,0.0,0.0,0.0,0.0,0.0,0.0,0.0,0.0,0.0,0.0,0.0,0.0,0.0,0.0,0.0,0.0,0.0,0.0,0.0,0.0,0.0,0.0,0.0,0.0,0.0,0.0,0.0,0.0,0.0,0.0,0.0,0.0,0.0,0.0,0.0,0.0,0.0,0.0,0.0,-0.0732,-0.2274,-0.4308,-0.5805,0.0,0.0,0.0,0.0,0.0,0.0,0.0,0.0,0.0,0.0,0.0,0.0,0.0,0.0,0.0,0.0,0.0,0.0,0.0,0.0,0.0,0.0,0.0,0.0,0.0,0.0,0.0,0.0,0.0,0.0,0.0,0.0,0.0,0.0,0.0,0.0,0.0,0.0,0.0,0.0,0.0,0.0,0.0,0.0,0.0,0.0,0.0,0.0,0.0,0.0,0.0,0.0,0.0,0.0,0.0,0.0,0.0,0.0,0.0,0.0,0.0,0.0,0.0,0.0,0.0,0.0,0.0,0.0,0.0,0.0,0.0,0.0,0.0,0.0,0.0,0.0,0.0,0.0,0.0,0.0,0.0,0.0,0.0,0.0,0.0,0.0,0.0,0.0,0.0,0.0,0.0,0.0,0.0,0.0,0.0,0.0,0.0,0.0,0.0,0.0,0.0,0.0,0.0,0.0,0.0,0.0,0.0,0.0,0.0,0.0,0.0,-0.0562,-0.1782,-0.3613,-0.5152,0.0,0.0,0.0,0.0,0.0,0.0,0.0,0.0,0.0,0.0,0.0,0.0,0.0,0.0,0.0,0.0,0.0,0.0,0.0,0.0,0.0,0.0,0.0,0.0,0.0,0.0,0.0,0.0,0.0,0.0,0.0,0.0,0.0,0.0,0.0,0.0,0.0,0.0,0.0,0.0,0.0,0.0,0.0,0.0,0.0,0.0,0.0,0.0,-0.1506,0.0,0.0,0.0,0.0,0.0,0.0,0.0,0.0,0.0,0.0,0.0,0.0,0.0,0.0,0.0,0.0,0.0,0.0,0.0,0.0,0.0,0.0,0.0,0.0,0.0,0.0,0.0,0.0,0.0,0.0,0.0,0.0,0.0,0.0,0.0,0.0,0.0,0.0,0.0,0.0,0.0,0.0,0.0,0.0,0.0,0.0,0.0,0.0,0.0,0.0,0.0,0.0,0.0,0.0,0.0,0.0,0.0,0.0,0.0,0.0302,0.0306,0.0238,-0.0159,-0.1158,-0.2572,-0.4166,0.0,0.0,0.0,0.0,0.0,0.0,0.0,0.0,0.0,0.0,0.0,0.0,0.0,0.0,0.0,0.0,0.0,0.0,0.0,0.0,0.0,0.0,0.0,0.0,0.0,0.0,0.0,0.0,0.0,0.0,0.0,0.0,0.0,0.0,0.0,0.0,0.0,0.0,0.0,0.0,0.0,0.0,0.0,0.0,0.0,0.0,0.0,0.0,0.0,0.0,0.0,0.0,0.0,0.0,0.0,0.0,0.0,0.0,0.0,0.0,0.0,0.0,0.0,0.0,0.0,0.0,0.0,0.0,0.0,0.0,0.0,0.0,0.0,0.0,0.0,0.0,0.0,0.0,0.0,0.0,0.0,0.0,0.0,0.0,0.0,0.0,0.0,0.0,0.0,0.0,0.0,0.0,0.0,0.0,0.0,0.0,0.0,0.0,0.0,0.0,0.0,0.0,0.0,0.0,0.0,0.0,0.0,0.0435,0.0602,0.068,0.0624,0.0235,-0.0459,-0.1586,-0.2986,-0.478,0.0,0.0,0.0,0.0,0.0,0.0,0.0,0.0,0.0,0.0,0.0,0.0,0.0,0.0,0.0,0.0,0.0,0.0,0.0,0.0,0.0,0.0,0.0,0.0,0.0,0.0,0.0,0.0,0.0,0.0,0.0,0.0,0.0,0.0,0.0,0.0,0.0,0.0,0.0,0.0,0.0,0.0,0.0,0.0,0.0,0.0,0.0,0.0,-0.1337,0.0,0.0,0.0,0.0,0.0,0.0,0.0,0.0,0.0,0.0,0.0,0.0,0.0,0.0,0.0,0.0,0.0,0.0,0.0,0.0,0.0,0.0,0.0,0.0,0.0,0.0,0.0,0.0,0.0,0.0,0.0,0.0,0.0,0.0,0.0,0.0,0.0,0.0,0.0,0.0,0.0,0.0,0.0,0.0,0.0,0.0,0.0,0.0,0.0,0.0,0.0,0.0,0.0,0.0,0.0,0.0,0.0479,0.0568,0.073,0.1118,0.0758,0.0378,-0.0074,-0.0945,-0.19,-0.3056,0.0,0.0,0.0,0.0,0.0,0.0,0.0,0.0,0.0,0.0,0.0,0.0,0.0,0.0,0.0,0.0,0.0,0.0,0.0,0.0,0.0,0.0,0.0,0.0,0.0,0.0,0.0,0.0,0.0,0.0,0.0,0.0,0.0,0.0,0.0,0.0,0.0,0.0,0.0,0.0,0.0,0.0,0.0,0.0,0.0,0.0,0.0,0.0,0.0,-0.1396,0.0,0.0,0.0,0.0,0.0,0.0,0.0,0.0,0.0,0.0,0.0,0.0,0.0,0.0,0.0,0.0,0.0,0.0,0.0,0.0,0.0,0.0,0.0,0.0,0.0,0.0,0.0,0.0,0.0,0.0,0.0,0.0,0.0,0.0,0.0,0.0,0.0,0.0,0.0,0.0,0.0,0.0,0.0,0.0,0.0,0.0,0.0,0.0,0.0,0.0,0.0,0.0,0.0,0.0,0.0,0.0806,0.1058,0.1308,0.1472,0.1349,0.1119,0.0868,0.0142,-0.0683,0.0,0.0,0.0,0.0,0.0,0.0,0.0,0.0,0.0,0.0,0.0,0.0,0.0,0.0,0.0,0.0,0.0,0.0,0.0,0.0,0.0,0.0,0.0,0.0,0.0,0.0,0.0,0.0,0.0,0.0,0.0,0.0,0.0,0.0,0.0,0.0,0.0,0.0,0.0,0.0,0.0,0.0,0.0,0.0,0.0,0.0,0.0,0.0,0.0,-0.069,-0.0974,0.0,0.0,0.0,0.0,0.0,0.0,0.0,0.0,0.0,0.0,0.0,0.0,0.0,0.0,0.0,0.0,0.0,0.0,0.0,0.0,0.0,0.0,0.0,0.0,0.0,0.0,0.0,0.0,0.0,0.0,0.0,0.0,0.0,0.0,0.0,0.0,0.0,0.0,0.0,0.0,0.0,0.0,0.0,0.0,0.0,0.0,0.0,0.0,0.0,0.0,0.0,0.0,0.0,0.0,0.0,0.1115,0.1537,0.1803,0.1882,0.1772,0.1761,0.1628,0.0964,0.0264,0.0,0.0,0.0,0.0,0.0,0.0,0.0,0.0,0.0,0.0,0.0,0.0,0.0,0.0,0.0,0.0,0.0,0.0,0.0,0.0,0.0,0.0,0.0,0.0,0.0,0.0,0.0,0.0,0.0,0.0,0.0,0.0,0.0,0.0,0.0,0.0,0.0,0.0,0.0,0.0,0.0,0.0,0.0,0.0,0.0,0.0,0.0,0.0,-0.0289,-0.04,0.0,0.0,0.0,0.0,0.0,0.0,0.0,0.0,0.0,0.0,0.0,0.0,0.0,0.0,0.0,0.0,0.0,0.0,0.0,0.0,0.0,0.0,0.0,0.0,0.0,0.0,0.0,0.0,0.0,0.0,0.0,0.0,0.0,0.0,0.0,0.0,0.0,0.0,0.0,0.0,0.0,0.0,0.0,0.0,0.0,0.0,0.0,0.0,0.0,0.0,0.0,0.0,0.0,0.0,0.0,0.0,0.1486,0.1624,0.188,0.2113,0.1838,0.1676,0.1628,0.0924,0.0316,0.0,0.0,0.0,0.0,0.0,0.0,0.0,0.0,0.0,0.0,0.0,0.0,0.0,0.0,0.0,0.0,0.0,0.0,0.0,0.0,0.0,0.0,0.0,0.0,0.0,0.0,0.0,0.0,0.0,0.0,0.0,0.0,0.0,0.0,0.0,0.0,0.0,0.0,0.0,0.0,0.0,0.0,0.0,0.0,0.0,0.0,0.0,0.0,-0.0059,-0.0235,0.0,0.0,0.0,0.0,0.0,0.0,0.0,0.0,0.0,0.0,0.0,0.0,0.0,0.0,0.0,0.0,0.0,0.0,0.0,0.0,0.0,0.0,0.0,0.0,0.0,0.0,0.0,0.0,0.0,0.0,0.0,0.0,0.0,0.0,0.0,0.0,0.0,0.0,0.0,0.0,0.0,0.0,0.0,0.0,0.0,0.0,0.0,0.0,0.0,0.0,0.0,0.0,0.0,0.0,0.0,0.1539,0.1824,0.1921,0.2053,0.2219,0.2026,0.1932,0.1865,0.1359,0.1049,0.0,0.0,0.0,0.0,0.0,0.0,0.0,0.0,0.0,0.0,0.0,0.0,0.0,0.0,0.0,0.0,0.0,0.0,0.0,0.0,0.0,0.0,0.0,0.0,0.0,0.0,0.0,0.0,0.0,0.0,0.0,0.0,0.0,0.0,0.0,0.0,0.0,0.0,0.0,0.0,0.0,0.0,0.0,0.0,0.0,0.0,0.0,0.0,0.0,0.0,0.0,0.0,0.0,0.0,0.0,0.0,0.0,0.0,0.0,0.0,0.0,0.0,0.0,0.0,0.0,0.0,0.0,0.0,0.0,0.0,0.0,0.0,0.0,0.0,0.0,0.0,0.0,0.0,0.0,0.0,0.0,0.0,0.0,0.0,0.0,0.0,0.0,0.0,0.0,0.0,0.0,0.0,0.0,0.0,0.0,0.0,0.0,0.0,0.0,0.0,0.0,0.0,0.0,0.0,0.0,0.0,0.1954,0.2136,0.2143,0.2165,0.2189,0.2163,0.2089,0.1717,0.0,0.0,0.0,0.0,0.0,0.0,0.0,0.0,0.0,0.0,0.0,0.0,0.0,0.0,0.0,0.0,0.0,0.0,0.0,0.0,0.0,0.0,0.0,0.0,0.0,0.0,0.0,0.0,0.0,0.0,0.0,0.0,0.0,0.0,0.0,0.0,0.0,0.0,0.0,0.0,0.0,0.0,0.0,0.0,0.0,0.0,0.0,0.0,0.0,0.0,0.0,-0.0061,0.0,0.0,0.0,0.0,0.0,0.0,0.0,0.0,0.0,0.0,0.0,0.0,0.0,0.0,0.0,0.0,0.0,0.0,0.0,0.0,0.0,0.0,0.0,0.0,0.0,0.0,0.0,0.0,0.0,0.0,0.0,0.0,0.0,0.0,0.0,0.0,0.0,0.0,0.0,0.0,0.0,0.0,0.0,0.0,0.0,0.0,0.0,0.0,0.0,0.0,0.0,0.0,0.0,0.0,0.0,0.1894,0.2072,0.2136,0.2138,0.2075,0.2059,0.2025,0.1683,0.1501,0.0,0.0,0.0,0.0,0.0,0.0,0.0,0.0,0.0,0.0,0.0,0.0,0.0,0.0,0.0,0.0,0.0,0.0,0.0,0.0,0.0,0.0,0.0,0.0,0.0,0.0,0.0,0.0,0.0,0.0,0.0,0.0,0.0,0.0,0.0,0.0,0.0,0.0,0.0,0.0,0.0,0.0,0.0,0.0,0.0,0.0,0.0,0.0,0.0,0.0,0.0,0.0,0.0,0.0,0.0,0.0,0.0,0.0,0.0,0.0,0.0,0.0,0.0,0.0,0.0,0.0,0.0,0.0,0.0,0.0,0.0,0.0,0.0,0.0,0.0,0.0,0.0,0.0,0.0,0.0,0.0,0.0,0.0,0.0,0.0,0.0,0.0,0.0,0.0,0.0,0.0,0.0,0.0,0.0,0.0,0.0,0.0,0.0,0.0,0.0,0.0,0.0,0.0,0.0,0.0,0.177,0.1885,0.1968,0.2027,0.2127,0.2129,0.205,0.202,0.1867,0.174,0.0,0.0,0.0,0.0,0.0,0.0,0.0,0.0,0.0,0.0,0.0,0.0,0.0,0.0,0.0,0.0,0.0,0.0,0.0,0.0,0.0,0.0,0.0,0.0,0.0,0.0,0.0,0.0,0.0,0.0,0.0,0.0,0.0,0.0,0.0,0.0,0.0,0.0,0.0,0.0,0.0,0.0,0.0,0.0,0.0,0.0,0.0,0.0,0.0,0.0,0.0,0.0,-0.0109,0.0,0.0,0.0,0.0,0.0,0.0,0.0,0.0,0.0,0.0,0.0,0.0,0.0,0.0,0.0,0.0,0.0,0.0,0.0,0.0,0.0,0.0,0.0,0.0,0.0,0.0,0.0,0.0,0.0,0.0,0.0,0.0,0.0,0.0,0.0,0.0,0.0,0.0,0.0,0.0,0.0,0.0,0.0,0.0,0.0,0.0,0.0,0.0,0.0,0.0,0.0,0.0,0.2044,0.2246,0.2391,0.246,0.2449,0.2387,0.225,0.2102,0.2021,0.1896,0.0,0.0,0.0,0.0,0.0,0.0,0.0,0.0,0.0,0.0,0.0,0.0,0.0,0.0,0.0,0.0,0.0,0.0,0.0,0.0,0.0,0.0,0.0,0.0,0.0,0.0,0.0,0.0,0.0,0.0,0.0,0.0,0.0,0.0,0.0,0.0,0.0,0.0,0.0,0.0,0.0,0.0306,0.0313,0.0325,0.0331,0.0324,0.0323,0.032,0.0313,0.0304,0.0294,0.0283,0.0,0.0,0.0,0.0,0.0,0.0,0.0,0.0,0.0,0.0,0.0,0.0,0.0,0.0,0.0,0.0,0.0,0.0,0.0,0.0,0.0,0.0,0.0,0.0,0.0,0.0,0.0,0.1791,0.0,0.0,0.1755,0.0,0.0,0.0,0.0,0.0,0.0,0.0,0.0,0.0,0.0,0.0,0.0,0.0,0.0,0.0,0.0,0.0,0.0,0.0,0.0,0.0,0.0,0.2693,0.2955,0.3454,0.3481,0.319,0.295,0.2658,0.2304,0.2006,0.1844,0.1806,0.0,0.0,0.0,0.0,0.0,0.0,0.0,0.0,0.0,0.0,0.0,0.0,0.0,0.0,0.0,0.0,0.0,0.0,0.0,0.0,0.0,0.0,0.0,0.0,0.0,0.0,0.0,0.0,0.0,0.0,0.0,0.0,0.0,0.0,0.0,0.0,0.0,0.0,0.0,0.094,0.0987,0.0989,0.1051,0.1147,0.1102,0.1031,0.1016,0.1034,0.094,0.0906,0.0,0.0,0.0,0.0,0.0,0.0,0.0,0.0,0.0,0.0,0.0,0.0,0.0,0.0,0.0,0.0,0.0,0.0,0.0,0.0,0.0,0.0,0.0,0.0,0.0,0.0,0.0,0.3723,0.3133,0.0,0.0,0.0,0.0,0.0,0.0,0.0,0.0,0.0,0.0,0.0,0.6979,0.687,0.0,0.0,0.0,0.0,0.0,0.0,0.0,0.0,0.0,0.0,0.0,0.0,0.3386,0.3873,0.448,0.4591,0.4112,0.3644,0.3176,0.2649,0.2099,0.1794,0.1665,0.0,0.0,0.0,0.0,0.0,0.0,0.0,0.0,0.0,0.0,0.0,0.0,0.0,0.0,0.0,0.0,0.0,0.0,0.0,0.0,0.0,0.0,0.0,0.0,0.0,0.0473,0.0,0.0,0.0,0.0,0.0,0.0,0.0,0.0,0.0,0.0,0.0,0.2763,0.2899,0.2903,0.2932,0.293,0.2962,0.2926,0.0,0.0,0.0,0.0,0.0,0.0,0.0,0.0,0.0,0.0,0.0,0.0,0.0,0.0,-0.1001,-0.1572,-0.1636,-0.1602,-0.1602,0.0,0.0,0.0,0.0,0.0,0.0,0.0,0.0,0.0,0.0,0.0,0.0,0.0,0.0,0.5261,0.0,0.4567,0.0,0.0,0.0,0.0,0.0,0.0,0.0,0.0,0.8135,0.8388,0.834,0.8276,0.8124,0.0,0.7905,0.7103,0.0,0.0,0.0,0.0,0.0,0.0,0.0,0.0,0.4203,0.4861,0.5554,0.5675,0.5192,0.4622,0.3989,0.3412,0.2719,0.2286,0.2196,0.2137,0.2033,0.0,0.0,0.0,0.0,0.0,0.0,0.0,0.0,0.0,0.0,0.0,0.0,0.0,0.0,0.0,0.0,0.0,0.0,0.0,0.0,0.0,0.0,0.0,0.1464,0.0,0.0,0.0,0.0,0.0,0.0,0.0,0.0,0.0,0.3013,0.3564,0.3982,0.4191,0.4245,0.4282,0.4266,0.0,0.0,0.0,0.0,0.0,0.0,0.0,0.3797,0.3906,0.3849,0.3757,0.3757,0.3181,0.2424,0.1525,0.0,0.0,-0.1467,-0.1697,-0.166,-0.1649,-0.1615,-0.1585,-0.1576,-0.1581,-0.1588,0.0,0.0,0.0,0.0,0.0,0.0,0.0,0.0,0.7495,0.6805,0.0,0.605,0.0,0.0,0.0,0.0,0.0,0.7394,0.0,0.0,0.9526,0.9899,0.9751,0.9606,0.9605,0.9591,0.9429,0.892,0.8017,0.6056,0.0,0.0,0.0,0.0,0.0,0.0,0.5236,0.6047,0.6641,0.6751,0.6362,0.5753,0.514,0.4468,0.3844,0.3429,0.3417,0.3299,0.3199,0.3061,0.2728,0.0,0.0,0.0,0.0,0.0,0.0,0.0,0.0,0.0,0.0,0.0,0.0,0.0,0.0,0.0,0.0,0.0,0.0,0.0,0.0,0.2661,0.0,0.0,0.0,0.0,0.0,0.0,0.0,0.0,0.0,0.0,0.4198,0.4447,0.4708,0.4924,0.0,0.0,0.0,0.0,0.5075,0.5134,0.5013,0.4916,0.4977,0.4786,0.4641,0.4706,0.0,0.0,0.4526,0.3997,0.3334,0.2458,0.1828,0.0729,-0.1233,-0.16,-0.1683,-0.1657,-0.1593,-0.164,-0.1671,-0.1621,-0.1638,1.1029,0.0,0.0,0.0,0.0,0.9977,0.9552,0.9121,0.854,0.8092,0.7728,0.7557,0.0,0.0,0.0,0.0,0.0,0.0,0.8629,0.9153,0.9602,0.9802,0.9815,0.9676,0.9554,0.9442,0.9289,0.8951,0.8364,0.7425,0.6363,0.525,0.0,0.0,0.0,0.0,0.6425,0.7082,0.7734,0.7771,0.7226,0.6628,0.5819,0.4797,0.4588,0.4471,0.4446,0.4392,0.4294,0.4212,0.3709,0.0,0.0,0.0,0.0,0.0,0.0,0.0,0.0,0.0,0.0,0.0,0.0,0.0,0.0,0.0,0.0,0.0,0.0,0.0,0.3096,0.3413,0.3518,0.0,0.0,0.0,0.0,0.0,0.0,0.0,0.0,0.0,0.5977,0.6291,0.6654,0.0,0.0,0.6941,0.7042,0.6962,0.6935,0.6935,0.6818,0.0,0.6892,0.6543,0.6318,0.6466,0.6368,0.6305,0.6379,0.592,0.522,0.4273,0.3625,0.2855,0.162,0.0166,-0.071,-0.0814,-0.0914,-0.1066,-0.106,-0.1211,-0.1308,1.1287,1.1111,1.0958,1.0894,1.0887,1.0598,1.0329,1.0009,0.9726,0.9462,0.9263,0.9088,0.8749,0.8467,0.8235,0.0,0.0,0.0,0.9179,0.9518,0.964,0.9737,0.973,0.9588,0.9442,0.9289,0.9255,0.8989,0.8568,0.823,0.7636,0.6766,0.0,0.0,0.602,0.6571,0.7095,0.7642,0.8143,0.8219,0.775,0.7214,0.6474,0.5679,0.5584,0.5581,0.5581,0.5475,0.5389,0.5336,0.4721,0.415,0.0,0.0,0.0,0.0,0.0,0.0,0.0,0.0,0.0,0.0,0.0,0.1616,0.1865,0.0,0.0,0.0,0.359,0.416,0.4486,0.4884,0.0,0.0,0.0,0.0,0.0,0.0,0.0,0.5574,0.5933,0.6345,0.6908,0.718,0.7434,0.7698,0.7671,0.7655,0.772,0.0,0.763,0.763,0.7524,0.7489,0.7603,0.7307,0.7158,0.7239,0.7152,0.7133,0.7193,0.6763,0.6137,0.5382,0.4764,0.42,0.3401,0.2066,0.0919,0.0541,0.0216,0.0,-0.0106,-0.0421,-0.0682,1.1402,1.1375,1.124,1.1165,1.1145,1.1214,1.1063,1.0867,1.086,1.0782,1.07,1.0412,1.0103,0.9781,0.9374,0.0,0.9612,0.9622,0.9686,0.9798,0.9669,0.9605,0.9581,0.9435,0.9289,0.921,0.9187,0.9033,0.872,0.8686,0.854,0.8269,0.7032,0.6563,0.6809,0.7052,0.7421,0.7878,0.8146,0.8162,0.7971,0.7503,0.7136,0.6818,0.6717,0.6705,0.6705,0.6597,0.6484,0.6417,0.5811,0.5182,0.4667,0.0,0.0,0.0,0.0,0.0,0.0,0.0,0.0,0.0,0.0,0.0,0.0,0.0,0.0,0.0,0.5225,0.0,0.5974,0.6644,0.0,0.0,0.0,0.6414,0.6194,0.6304,0.6446,0.6619,0.0,0.0,0.729,0.732,0.7364,0.7475,0.7497,0.7508,0.7519,0.7516,0.7508,0.7521,0.7418,0.7325,0.75,0.7312,0.7191,0.7119,0.7182,0.7163,0.7166,0.6893,0.6416,0.5839,0.5495,0.5148,0.4424,0.3887,0.319,0.2175,0.1613,0.124,0.0892,0.0578,0.0212,1.1497,1.1389,1.1352,1.1206,1.0999,1.0999,1.0914,1.0778,1.0775,1.0755,1.07,1.0409,1.0049,0.9656,0.9551,0.954,0.9615,0.9724,0.973,0.9659,0.9629,0.9547,0.9432,0.9337,0.9245,0.9197,0.8923,0.8781,0.8703,0.8482,0.834,0.8265,0.7829,0.7635,0.7687,0.7737,0.7819,0.7992,0.8042,0.8059,0.7992,0.7891,0.7794,0.7689,0.7661,0.7688,0.7688,0.7656,0.7621,0.7582,0.6888,0.6264,0.5719,0.487,0.0,0.0,0.0,0.0,0.0,0.0,0.0,0.0,0.0,0.3062,0.3641,0.0,0.466,0.0,0.5917,0.6446,0.6658,0.6939,0.0,0.0,0.6602,0.6498,0.6548,0.6448,0.647,0.6733,0.6893,0.7037,0.7182,0.7254,0.7209,0.7239,0.7323,0.7413,0.75,0.7437,0.7355,0.7483,0.7347,0.7323,0.7462,0.7315,0.7147,0.6915,0.6888,0.6888,0.6885,0.6834,0.6714,0.6531,0.647,0.6351,0.6109,0.5739,0.5075,0.4292,0.2961,0.1764,0.143,0.1208,0.0835,1.1609,1.1385,1.1318,1.1155,1.0884,1.1016,1.0962,1.0756,1.0822,1.0785,1.0704,1.0409,1.0066,0.971,0.9707,0.9703,0.9703,0.972,0.9683,0.9602,0.9469,0.9361,0.9273,0.9127,0.9022,0.895,0.8788,0.8642,0.8509,0.8347,0.8235,0.8167,0.8032,0.7988,0.7988,0.7988,0.7988,0.7988,0.7988,0.7988,0.7988,0.7988,0.7988,0.7988,0.7924,0.7891,0.7891,0.783,0.7823,0.7877,0.7279,0.6793,0.6484,0.5629,0.4948,0.0,0.0,0.0,0.0,0.0,0.0,0.0,0.0,0.0,0.0,0.0,0.5773,0.6448,0.6855,0.7165,0.7308,0.7434,0.7394,0.7224,0.707,0.6997,0.6923,0.6845,0.6828,0.6865,0.6987,0.711,0.7117,0.7133,0.7155,0.7202,0.7168,0.7222,0.7326,0.7296,0.7282,0.7339,0.7255,0.7179,0.7203,0.7086,0.6956,0.6836,0.6804,0.6804,0.6804,0.6804,0.6787,0.6736,0.6719,0.67,0.66,0.6176,0.5637,0.509,0.4025,0.2961,0.2392,0.2115,0.1742,1.1808,1.1324,1.1192,1.1053,1.0863,1.1053,1.1033,1.0853,1.085,1.0819,1.0646,1.0371,1.009,0.9822,0.9819,0.9808,0.9785,0.9666,0.9588,0.9537,0.9333,0.92,0.912,0.8977,0.8838,0.871,0.8672,0.852,0.8327,0.8248,0.817,0.7992,0.7988,0.7988,0.7988,0.7971,0.8007,0.7961,0.7961,0.7948,0.7934,0.7934,0.7934,0.7928,0.7855,0.7784,0.778,0.7665,0.7655,0.7767,0.729,0.702,0.6939,0.6246,0.5705,0.0,0.5292,0.0,0.0,0.0,0.0,0.0,0.0,0.0,0.0,0.6283,0.6892,0.7553,0.774,0.7818,0.7838,0.7914,0.7892,0.7696,0.7646,0.749,0.7291,0.731,0.7292,0.7038,0.7145,0.7157,0.6996,0.6961,0.7056,0.7125,0.7021,0.7008,0.7141,0.7161,0.7161,0.7163,0.7027,0.6942,0.6839,0.6793,0.6777,0.6757,0.6736,0.6755,0.6741,0.6744,0.6714,0.6624,0.6594,0.6511,0.6403,0.5992,0.5593,0.5297,0.4738,0.4083,0.3387,0.2976,0.2716,1.199,1.0964,1.1002,1.09,1.0768,1.0792,1.0789,1.0761,1.0761,1.0616,1.0354,1.0171,0.993,0.9825,0.9819,0.9758,0.9649,0.9622,0.9476,0.9292,0.9234,0.9089,0.8974,0.8825,0.874,0.8696,0.8469,0.8326,0.832,0.8143,0.8019,0.7988,0.7988,0.7988,0.7982,0.0,0.0,0.0,0.7851,0.7797,0.7689,0.7685,0.7682,0.7682,0.7655,0.0,0.7638,0.7614,0.7611,0.7631,0.7422,0.0,0.0,0.0,0.0,0.0,0.0,0.0,0.0,0.0,0.0,0.0,0.6434,0.6397,0.6239,0.6818,0.7359,0.774,0.7797,0.7862,0.7934,0.7971,0.7988,0.7939,0.7746,0.7593,0.7497,0.7465,0.7289,0.7041,0.7145,0.712,0.6881,0.6836,0.6847,0.6874,0.685,0.6844,0.6866,0.6877,0.6874,0.6864,0.685,0.6793,0.6673,0.6654,0.6567,0.6487,0.6454,0.6462,0.647,0.6465,0.651,0.6425,0.6422,0.6414,0.6387,0.6137,0.5827,0.5536,0.5027,0.4409,0.3671,0.344,0.3158,1.2521,0.0,1.1404,1.1192,0.0,1.1181,1.1073,1.0809,1.0753,1.0555,1.027,1.0117,0.9964,0.9819,0.9747,0.968,0.9602,0.9452,0.9303,0.9204,0.9001,0.8896,0.8821,0.8669,0.856,0.8489,0.834,0.8231,0.8153,0.8029,0.7988,0.7988,0.7914,0.7926,0.7874,0.7784,0.7706,0.7706,0.7706,0.7672,0.7604,0.7597,0.7597,0.7597,0.7526,0.0,0.0,0.0,0.0,0.0,0.0,0.0,0.0,0.0,0.0,0.6817,0.6668,0.6556,0.6528,0.6614,0.6732,0.6768,0.691,0.6967,0.6934,0.7305,0.7607,0.7843,0.7874,0.7904,0.7978,0.7988,0.7988,0.7988,0.7892,0.7793,0.7802,0.7755,0.7544,0.7196,0.7148,0.7053,0.6755,0.6711,0.6738,0.6787,0.6747,0.6711,0.6717,0.6766,0.6785,0.6725,0.6711,0.6668,0.6559,0.6478,0.6465,0.64,0.6387,0.6387,0.6387,0.6387,0.6387,0.6381,0.6393,0.6352,0.63,0.6113,0.5781,0.5628,0.5202,0.4602,0.4016,0.365,0.3289,1.3507,1.2507,1.2301,1.1894,1.1468,1.1735,1.1577,1.1102,0.0,0.0,0.0,1.0076,0.9879,0.9812,0.9673,0.9595,0.9551,0.9279,0.9197,0.9159,0.8835,0.8713,0.8703,0.8526,0.8384,0.8323,0.8245,0.8163,0.7992,0.7988,0.7975,0.7941,0.7823,0.7787,0.7729,0.7617,0.7546,0.7519,0.7543,0.7546,0.7522,0.7519,0.7519,0.7519,0.7397,0.7329,0.7329,0.7162,0.7197,0.7319,0.721,0.7197,0.7312,0.7102,0.6923,0.6916,0.6848,0.678,0.678,0.6852,0.6923,0.6923,0.7031,0.7213,0.7539,0.7584,0.7709,0.7928,0.7975,0.7988,0.7988,0.7988,0.7988,0.7988,0.7988,0.7988,0.7988,0.7988,0.7796,0.7335,0.7197,0.7024,0.6621,0.6586,0.6619,0.6695,0.6643,0.6589,0.6597,0.6662,0.6684,0.6554,0.6586,0.65,0.6419,0.6395,0.6387,0.6389,0.6387,0.6381,0.6412,0.6357,0.6352,0.6358,0.6293,0.6246,0.623,0.6024,0.5763,0.576,0.5313,0.4825,0.4354,0.3826,0.3397,1.5476,1.4426,1.3888,1.3122,1.239,1.2075,1.1793,1.1568,1.0822,1.0492,1.0443,1.0043,0.9839,0.9815,0.9673,0.9537,0.9401,0.9289,0.9086,0.8964,0.8788,0.8713,0.8696,0.8431,0.8289,0.8262,0.8133,0.8012,0.7992,0.7988,0.7924,0.7855,0.7821,0.7682,0.7451,0.7456,0.7339,0.7169,0.7339,0.7339,0.7162,0.7159,0.7159,0.7159,0.7142,0.7125,0.7125,0.7109,0.7105,0.7125,0.7109,0.7105,0.7122,0.7088,0.7065,0.7065,0.7045,0.7034,0.7034,0.7058,0.7068,0.7068,0.7085,0.7214,0.7387,0.7522,0.7668,0.7831,0.796,0.7988,0.7988,0.7988,0.7988,0.7988,0.7988,0.7988,0.7988,0.7988,0.7789,0.7285,0.7185,0.6992,0.6517,0.6419,0.648,0.6438,0.6499,0.6419,0.6427,0.6425,0.643,0.6414,0.6411,0.6403,0.6392,0.6387,0.6387,0.6387,0.6431,0.6346,0.6317,0.6295,0.6263,0.6162,0.613,0.6113,0.6111,0.61,0.602,0.5959,0.5526,0.5011,0.4547,0.3946,0.3419,1.6267,1.5438,1.4917,1.4081,1.311,1.2657,1.2653,1.2809,1.2016,1.1325,1.0711,1.007,0.9781,0.9696,0.9551,0.9401,0.9306,0.9103,0.9001,0.8868,0.8693,0.8587,0.856,0.8286,0.8147,0.814,0.8025,0.7988,0.7982,0.7911,0.7879,0.7801,0.7651,0.7465,0.7261,0.7244,0.721,0.7098,0.721,0.721,0.7098,0.7095,0.7095,0.7095,0.7095,0.7095,0.7095,0.7095,0.7095,0.7095,0.7095,0.7095,0.7095,0.7095,0.7095,0.7095,0.7095,0.7095,0.7095,0.7095,0.7095,0.7095,0.7095,0.7125,0.7241,0.7387,0.757,0.7784,0.783,0.7904,0.7978,0.7988,0.7988,0.7988,0.7988,0.7988,0.7988,0.7988,0.7789,0.7288,0.7185,0.6986,0.6437,0.6387,0.6387,0.6387,0.6387,0.6387,0.6387,0.6387,0.6387,0.6387,0.6387,0.6387,0.6387,0.6387,0.6387,0.6387,0.6382,0.6331,0.6317,0.6273,0.6199,0.6094,0.6037,0.5994,0.5986,0.5931,0.5904,0.5842,0.5491,0.4996,0.4626,0.3967,0.3332,1.7157,1.6588,1.6077,1.5144,1.3983,1.3631,1.3784,1.4079,1.3565,1.2656,1.1512,1.0365,0.983,0.9717,0.9473,0.9323,0.92,0.9001,0.892,0.8914,0.8714,0.8626,0.8616,0.8261,0.8088,0.8088,0.8038,0.7988,0.7971,0.7885,0.7773,0.7692,0.7448,0.7258,0.7098,0.7095,0.7095,0.7095,0.7095,0.7095,0.7095,0.7095,0.7095,0.7095,0.7095,0.7095,0.7095,0.7095,0.7095,0.7095,0.7095,0.7095,0.7095,0.7095,0.7095,0.7095,0.7095,0.7095,0.7095,0.7095,0.7095,0.7095,0.7095,0.7095,0.7105,0.7248,0.7424,0.7668,0.7773,0.7865,0.7914,0.7971,0.7988,0.7988,0.7988,0.7988,0.7988,0.7988,0.7842,0.7388,0.7235,0.6986,0.6637,0.6437,0.6387,0.6387,0.6387,0.6387,0.6387,0.6387,0.6387,0.6387,0.6387,0.642,0.6407,0.6393,0.638,0.6319,0.6285,0.6217,0.6221,0.6094,0.6032,0.5994,0.5926,0.5874,0.5858,0.5758,0.5712,0.5712,0.5389,0.502,0.4623,0.3946,0.3272,1.8673,1.835,1.7633,1.6539,1.5263,1.5306,1.5142,1.5028,1.5229,1.4518,1.2976,1.0992,1.0091,0.9985,0.9479,0.9224,0.9193,0.9005,0.8975,0.905,0.8938,0.8938,0.8999,0.8614,0.8382,0.8333,0.8137,0.7988,0.7982,0.7833,0.7675,0.7424,0.7241,0.7115,0.7095,0.7095,0.7095,0.7095,0.7095,0.7095,0.7095,0.7095,0.7095,0.7095,0.7095,0.7095,0.7095,0.7095,0.7095,0.7095,0.7095,0.7095,0.7095,0.7095,0.7095,0.7095,0.7095,0.7095,0.7095,0.7095,0.7095,0.7095,0.7095,0.7095,0.7095,0.7112,0.7231,0.7417,0.7655,0.7804,0.7838,0.7907,0.7988,0.7988,0.7988,0.7988,0.7988,0.7988,0.7889,0.7593,0.7338,0.7089,0.6842,0.6589,0.6437,0.6437,0.6437,0.6387,0.6387,0.6387,0.6387,0.6387,0.6387,0.6396,0.6331,0.6287,0.6265,0.617,0.6116,0.607,0.5999,0.5947,0.5896,0.5844,0.5787,0.5768,0.5763,0.5691,0.5694,0.5688,0.5463,0.5149,0.4525,0.3944,0.3542,1.8692,1.8456,1.7948,1.7178,1.6343,1.604,1.5941,1.5935,1.5728,1.5088,1.4043,1.2015,1.0712,1.0018,0.9429,0.9106,0.9022,0.8908,0.8965,0.913,0.9444,0.9542,0.9325,0.9203,0.8973,0.8627,0.8187,0.7988,0.7948,0.7801,0.7533,0.7261,0.7125,0.7095,0.7095,0.7095,0.7095,0.7095,0.7095,0.7095,0.7095,0.7095,0.7095,0.7095,0.7095,0.7095,0.7095,0.7095,0.7095,0.7095,0.7095,0.7095,0.7095,0.7095,0.7095,0.7095,0.7095,0.7095,0.7095,0.7095,0.7095,0.7095,0.7095,0.7095,0.7095,0.7095,0.7125,0.7258,0.7506,0.7716,0.7807,0.7901,0.7988,0.7988,0.7988,0.7988,0.7988,0.7988,0.7892,0.7643,0.749,0.7344,0.7092,0.6789,0.6639,0.6592,0.6539,0.6437,0.6387,0.6387,0.6387,0.6387,0.6387,0.6371,0.6366,0.6306,0.6249,0.6184,0.6067,0.5947,0.5915,0.5836,0.5784,0.5694,0.5691,0.5688,0.5694,0.5688,0.5688,0.5644,0.5508,0.5193,0.4659,0.4257,0.3942,1.842,1.8185,1.7851,1.7461,1.7022,1.6596,1.6493,1.6581,1.6166,1.5628,1.4838,1.326,1.1973,1.0875,0.9876,0.9255,0.9168,0.9103,0.9105,0.9343,0.9886,1.0026,0.9764,0.978,0.9562,0.9122,0.8531,0.8192,0.8105,0.7903,0.7579,0.7276,0.7275,0.7275,0.7231,0.7275,0.7319,0.7319,0.7319,0.7275,0.7231,0.7187,0.717,0.7045,0.7038,0.7021,0.6977,0.6977,0.6974,0.7017,0.6977,0.6977,0.6977,0.7014,0.7055,0.7092,0.7095,0.7095,0.7095,0.7095,0.7095,0.7095,0.7095,0.7095,0.7095,0.7095,0.7115,0.7227,0.7444,0.7651,0.7743,0.7874,0.7982,0.7988,0.7988,0.7988,0.7988,0.7988,0.7942,0.7743,0.7646,0.749,0.7238,0.7039,0.6892,0.6792,0.6642,0.6439,0.6437,0.6387,0.6387,0.6387,0.6387,0.6368,0.6393,0.6323,0.6311,0.6146,0.5996,0.5907,0.5871,0.5731,0.5694,0.5691,0.5691,0.5688,0.5688,0.5688,0.5688,0.5644,0.5552,0.5371,0.5015,0.4701,0.4389,1.8143,1.7871,1.763,1.7474,1.742,1.7116,1.7053,1.7002,1.672,1.6189,1.5326,1.469,1.3946,1.2945,1.0877,0.9824,0.9761,0.9533,0.9479,0.968,1.0204,1.037,1.039,1.0364,1.0265,0.9965,0.927,0.8721,0.8396,0.8305,0.7989,0.7569,0.772,0.7724,0.7591,0.7764,0.7896,0.7937,0.7937,0.7764,0.7507,0.7459,0.7304,0.6966,0.69,0.6842,0.6763,0.6725,0.6729,0.6725,0.6739,0.6732,0.6739,0.6865,0.696,0.7068,0.7095,0.7095,0.7095,0.7095,0.7095,0.7095,0.7095,0.7095,0.7098,0.7112,0.7214,0.7388,0.7509,0.7628,0.7662,0.784,0.7985,0.7988,0.7988,0.7988,0.7988,0.7988,0.7988,0.7942,0.7796,0.7593,0.7285,0.7185,0.7092,0.6895,0.6795,0.6692,0.6489,0.6437,0.6387,0.6387,0.6379,0.6399,0.6355,0.6328,0.6221,0.6053,0.598,0.5871,0.5748,0.5688,0.5688,0.5688,0.5688,0.5688,0.5688,0.5688,0.5688,0.5688,0.5688,0.551,0.5238,0.5102,0.4835,1.7871,1.7624,1.7527,1.7485,1.7455,1.7201,1.7092,1.705,1.6622,1.6166,1.567,1.4909,1.4353,1.3781,1.2585,1.166,1.0941,1.0353,1.0071,1.0108,1.0703,1.1006,1.0976,1.1526,1.1663,1.1228,1.0636,1.0145,0.9762,0.949,0.8897,0.8251,0.8113,0.8113,0.8153,0.8412,0.8719,0.9109,0.889,0.8544,0.8113,0.7852,0.7428,0.6939,0.6886,0.6859,0.6848,0.6756,0.6702,0.6702,0.6698,0.6702,0.6715,0.6848,0.6906,0.6964,0.7048,0.7095,0.7095,0.7095,0.7095,0.7095,0.7095,0.7095,0.7112,0.7227,0.7312,0.7446,0.7604,0.7726,0.777,0.7923,0.7988,0.7988,0.7988,0.7988,0.7988,0.7988,0.7988,0.7988,0.7895,0.7842,0.769,0.754,0.7444,0.7297,0.6995,0.6792,0.6642,0.6539,0.6387,0.6387,0.6387,0.6423,0.6391,0.6309,0.6211,0.6075,0.5966,0.5866,0.5734,0.5696,0.5688,0.5688,0.5688,0.5688,0.5688,0.5688,0.5688,0.5688,0.5688,0.5644,0.5419,0.5327,0.5057,1.7642,1.7543,1.7394,1.7352,1.7316,1.6984,1.6833,1.6779,1.635,1.6054,1.5802,1.5271,1.4922,1.4685,1.4239,1.3505,1.2465,1.1322,1.0746,1.0772,1.1291,1.1582,1.1707,1.2446,1.264,1.2209,1.1717,1.1279,1.0912,1.0496,0.9785,0.8911,0.88,0.8723,0.8807,0.9152,0.9632,0.9975,0.9758,0.9283,0.8759,0.8332,0.7804,0.7217,0.6994,0.6869,0.678,0.6637,0.6596,0.6559,0.6559,0.658,0.663,0.6725,0.6785,0.6883,0.6974,0.7051,0.7088,0.7095,0.7095,0.7095,0.7095,0.7095,0.7109,0.7282,0.738,0.7528,0.7655,0.7821,0.7843,0.7934,0.7988,0.7988,0.7988,0.7988,0.7988,0.7988,0.7988,0.7988,0.7988,0.7988,0.7988,0.7842,0.7696,0.7593,0.7194,0.6942,0.6792,0.6589,0.6387,0.6387,0.6387,0.6387,0.642,0.6369,0.6252,0.6113,0.6029,0.5912,0.5745,0.571,0.5688,0.5688,0.5688,0.5688,0.5688,0.5688,0.5688,0.5688,0.5688,0.5644,0.5552,0.5508,0.5193,1.7485,1.7424,1.7201,1.7105,1.7026,1.6567,1.6314,1.6296,1.6042,1.5928,1.588,1.5838,1.5725,1.5731,1.5387,1.5048,1.4104,1.2341,1.1535,1.177,1.1815,1.2068,1.237,1.2937,1.3082,1.2856,1.2322,1.1994,1.18,1.1331,1.0613,0.9845,0.9883,0.9752,0.9279,0.998,1.0424,1.0636,1.0506,1.0024,0.9323,0.903,0.8464,0.7632,0.73,0.6956,0.6552,0.6405,0.634,0.633,0.6327,0.6375,0.6494,0.6542,0.662,0.6861,0.6886,0.696,0.7075,0.7095,0.7095,0.7095,0.7095,0.7095,0.7115,0.7295,0.7491,0.7567,0.7729,0.7875,0.7944,0.7982,0.7988,0.7988,0.7988,0.7988,0.7988,0.7988,0.7988,0.7988,0.7988,0.7988,0.7988,0.7988,0.7892,0.7646,0.7341,0.7089,0.6892,0.6589,0.6437,0.6387,0.6387,0.6387,0.6387,0.6371,0.6285,0.6159,0.6097,0.6002,0.5841,0.5765,0.5694,0.5688,0.5688,0.5688,0.5688,0.5688,0.5688,0.5688,0.5688,0.5688,0.5644,0.5552,0.5371,1.7382,1.7213,1.7129,1.6984,1.6791,1.6429,1.6284,1.6254,1.6006,1.5891,1.5885,1.5885,1.5885,1.5831,1.562,1.5291,1.4839,1.3491,1.2669,1.2475,1.2415,1.2574,1.2948,1.3613,1.3908,1.3811,1.3673,1.3444,1.3133,1.2692,1.1994,1.1239,1.0987,1.087,1.0636,1.1068,1.1499,1.1929,1.1671,1.1192,1.0626,0.9946,0.9117,0.8261,0.7722,0.7199,0.6672,0.6393,0.6306,0.63,0.63,0.632,0.6371,0.646,0.6603,0.6753,0.6878,0.695,0.7068,0.7095,0.7095,0.7095,0.7095,0.7095,0.7125,0.738,0.7536,0.7624,0.7769,0.7948,0.7978,0.7988,0.7988,0.7988,0.7988,0.7988,0.7988,0.7988,0.7988,0.7988,0.7988,0.7988,0.7988,0.7988,0.7939,0.7842,0.749,0.7188,0.7039,0.6689,0.6437,0.6387,0.6387,0.6387,0.6387,0.6379,0.6352,0.6241,0.6168,0.6053,0.5896,0.5793,0.5765,0.5688,0.5688,0.5688,0.5688,0.5688,0.5688,0.5688,0.5688,0.5688,0.5688,0.5599,0.5419,1.7243,1.7074,1.6875,1.67,1.6519,1.6247,1.6133,1.6109,1.5964,1.5885,1.5885,1.5885,1.5885,1.5813,1.5517,1.5251,1.498,1.419,1.3615,1.3248,1.2916,1.3028,1.3426,1.4004,1.4298,1.4298,1.4298,1.4214,1.4057,1.3561,1.2894,1.2091,1.1865,1.1652,1.1521,1.1806,1.2235,1.2577,1.2314,1.1935,1.1408,1.0679,0.9859,0.9,0.8373,0.7777,0.715,0.686,0.6624,0.6349,0.63,0.63,0.6306,0.6388,0.6485,0.6675,0.6793,0.6883,0.7061,0.7095,0.7095,0.7095,0.7095,0.7129,0.7251,0.7468,0.7604,0.7702,0.7892,0.7988,0.7988,0.7988,0.7988,0.7988,0.7988,0.7988,0.7988,0.7988,0.7988,0.7988,0.7988,0.7988,0.7988,0.7988,0.7988,0.7942,0.764,0.7288,0.7135,0.6836,0.6637,0.6439,0.6387,0.6387,0.6387,0.6373,0.6357,0.6325,0.6244,0.6092,0.5928,0.586,0.5817,0.5754,0.5688,0.5688,0.5688,0.5688,0.5688,0.5688,0.5688,0.5688,0.5688,0.5688,0.5552,1.7086,1.7002,1.6507,1.6296,1.6235,1.6012,1.5922,1.5903,1.5891,1.5885,1.5885,1.5885,1.5885,1.5777,1.5415,1.5164,1.5002,1.4647,1.4291,1.4062,1.3665,1.3519,1.3883,1.4154,1.4298,1.4298,1.4298,1.4292,1.4244,1.3868,1.3269,1.2626,1.2501,1.2245,1.1942,1.2229,1.2491,1.2619,1.2491,1.2192,1.18,1.1284,1.0679,0.9811,0.9343,0.8724,0.8016,0.7677,0.7199,0.6472,0.6374,0.6338,0.6342,0.6303,0.647,0.6681,0.6709,0.6881,0.7028,0.7095,0.7095,0.7095,0.7102,0.7204,0.7346,0.7495,0.7651,0.7777,0.7943,0.7988,0.7988,0.7988,0.7988,0.7988,0.7988,0.7988,0.7988,0.7988,0.7988,0.7988,0.7988,0.7988,0.7988,0.7988,0.7988,0.7939,0.7743,0.749,0.7288,0.6989,0.6742,0.6589,0.6489,0.6387,0.6387,0.6384,0.6368,0.6391,0.6309,0.617,0.598,0.5896,0.5825,0.5768,0.5688,0.5688,0.5688,0.5688,0.5688,0.5688,0.5688,0.5688,0.5688,0.5688,0.5644,1.6978,1.6773,1.6423,1.6169,1.6,1.591,1.5885,1.5885,1.5885,1.5885,1.5885,1.5885,1.5885,1.5849,1.5553,1.5396,1.5294,1.5034,1.4769,1.4575,1.441,1.423,1.4196,1.425,1.4298,1.4298,1.4298,1.4298,1.4298,1.4166,1.3761,1.3253,1.3158,1.2936,1.2568,1.2534,1.2619,1.2699,1.2662,1.2571,1.2363,1.1972,1.1542,1.1149,1.0527,0.9827,0.9155,0.8654,0.7842,0.6837,0.6602,0.6528,0.6542,0.6474,0.6538,0.6681,0.681,0.6939,0.7048,0.7095,0.7095,0.7095,0.7095,0.721,0.7405,0.7512,0.7658,0.7801,0.7946,0.7988,0.7988,0.7988,0.7988,0.7988,0.7988,0.7988,0.7988,0.7988,0.7988,0.7988,0.7988,0.7988,0.7988,0.7988,0.7988,0.7942,0.7793,0.7593,0.7391,0.7141,0.6845,0.6692,0.6589,0.6489,0.6387,0.6387,0.6384,0.6431,0.6369,0.6282,0.6072,0.589,0.5812,0.5694,0.5691,0.5688,0.5688,0.5688,0.5688,0.5688,0.5688,0.5688,0.5688,0.5688,0.5644,1.6658,1.6501,1.6229,1.603,1.5891,1.5885,1.5885,1.5885,1.5885,1.5885,1.5885,1.5885,1.5885,1.5861,1.562,1.5499,1.5463,1.5228,1.4962,1.4721,1.4527,1.4437,1.4322,1.4298,1.4298,1.4298,1.4298,1.4298,1.4298,1.4298,1.4002,1.3558,1.3468,1.323,1.2692,1.2705,1.2705,1.2705,1.2705,1.2705,1.2662,1.2357,1.2057,1.1778,1.1193,1.0575,0.9842,0.9256,0.847,0.7591,0.7138,0.6937,0.6777,0.6579,0.6613,0.6773,0.6842,0.6947,0.7061,0.7095,0.7095,0.7095,0.7095,0.7258,0.7424,0.756,0.7668,0.7892,0.7941,0.7978,0.7988,0.7988,0.7988,0.7988,0.7988,0.7988,0.7988,0.7988,0.7988,0.7988,0.7988,0.7988,0.7988,0.7988,0.7988,0.7988,0.7892,0.7743,0.7543,0.7294,0.7045,0.6892,0.6742,0.6589,0.6487,0.6487,0.6437,0.6434,0.6369,0.6298,0.614,0.5918,0.5756,0.5696,0.5691,0.5688,0.5688,0.5688,0.5688,0.5688,0.5688,0.5688,0.5688,0.5688,0.5644,1.6284,1.626,1.5994,1.5885,1.5885,1.5885,1.5885,1.5885,1.5885,1.5885,1.5885,1.5885,1.5885,1.5873,1.562,1.5517,1.5541,1.5312,1.5034,1.4769,1.4515,1.431,1.431,1.4298,1.4298,1.4298,1.4298,1.4298,1.4298,1.4298,1.4014,1.3634,1.3468,1.3218,1.2807,1.2705,1.2705,1.2705,1.2705,1.2747,1.2747,1.2571,1.2334,1.2149,1.1638,1.0993,1.0297,0.9745,0.9198,0.846,0.7893,0.7481,0.7215,0.6842,0.6764,0.6946,0.7035,0.7071,0.7112,0.7143,0.7095,0.7095,0.7095,0.7275,0.7506,0.7597,0.7712,0.7938,0.7985,0.7988,0.7988,0.7988,0.7988,0.7988,0.7988,0.7988,0.7988,0.7988,0.7988,0.7988,0.7988,0.7988,0.7988,0.7988,0.7988,0.7988,0.7939,0.7889,0.7743,0.7547,0.7294,0.7042,0.6892,0.6739,0.6637,0.6537,0.6487,0.6431,0.6342,0.626,0.6162,0.598,0.578,0.5699,0.5694,0.5688,0.5688,0.5688,0.5688,0.5688,0.5688,0.5688,0.5688,0.5688,0.5644,1.6302,1.6284,1.6,1.5885,1.5885,1.5885,1.5885,1.5885,1.5885,1.5885,1.5885,1.5885,1.5885,1.5873,1.5638,1.5608,1.571,1.5475,1.5276,1.498,1.4503,1.4322,1.4298,1.4298,1.4298,1.4298,1.4298,1.4298,1.4298,1.4244,1.4032,1.3586,1.3459,1.3242,1.2783,1.2705,1.2705,1.2705,1.2705,1.279,1.2918,1.2741,1.2614,1.2623,1.2091,1.1591,1.1206,1.0878,1.0572,1.0049,0.9071,0.826,0.7977,0.7641,0.7467,0.7478,0.7433,0.742,0.736,0.7231,0.7095,0.7095,0.7109,0.7272,0.7556,0.7597,0.774,0.7917,0.7988,0.7988,0.7988,0.7988,0.7988,0.7988,0.7988,0.7988,0.7988,0.7988,0.7988,0.7988,0.7988,0.7988,0.7988,0.7988,0.7988,0.7988,0.7988,0.7988,0.7842,0.7746,0.7547,0.7294,0.7191,0.7042,0.6889,0.6736,0.6589,0.6487,0.6407,0.6271,0.617,0.6067,0.5923,0.5769,0.5691,0.5688,0.5688,0.5688,0.5688,0.5688,0.5688,0.5688,0.5688,0.5688,0.5688,1.6109,1.6097,1.5946,1.5885,1.5885,1.5885,1.5885,1.5885,1.5885,1.5885,1.5885,1.5885,1.5885,1.5867,1.5632,1.559,1.5578,1.53,1.5059,1.4841,1.4485,1.431,1.4298,1.4298,1.4298,1.4298,1.4298,1.4298,1.428,1.4153,1.3906,1.3532,1.3405,1.3109,1.2765,1.2705,1.2705,1.2705,1.2705,1.279,1.2881,1.2784,1.262,1.2645,1.2283,1.1979,1.1676,1.1555,1.1387,1.1016,1.0284,0.9538,0.915,0.8794,0.8551,0.8367,0.8087,0.7848,0.7676,0.7319,0.7095,0.7095,0.7095,0.7319,0.7509,0.7597,0.7743,0.7904,0.7988,0.7988,0.7988,0.7988,0.7988,0.7988,0.7988,0.7988,0.7988,0.7988,0.7988,0.7988,0.7988,0.7988,0.7988,0.7988,0.7988,0.7988,0.7988,0.7988,0.7988,0.7842,0.7746,0.7547,0.7441,0.7341,0.7138,0.6939,0.6742,0.6637,0.6506,0.6377,0.6292,0.614,0.6032,0.5909,0.5782,0.5694,0.5688,0.5688,0.5688,0.5688,0.5688,0.5688,0.5688,0.5688,0.5688,1.5885,1.5885,1.5885,1.5885,1.5885,1.5885,1.5885,1.5885,1.5885,1.5885,1.5885,1.5885,1.5885,1.5819,1.5547,1.5433,1.5264,1.501,1.4775,1.4714,1.4449,1.4316,1.4298,1.4298,1.4298,1.4298,1.4298,1.4298,1.4232,1.4032,1.3803,1.3513,1.3209,1.3006,1.2771,1.2705,1.2705,1.2705,1.2705,1.2747,1.279,1.2741,1.2614,1.239,1.2233,1.2065,1.1874,1.1826,1.1834,1.171,1.1535,1.118,1.0721,1.0105,0.9696,0.9309,0.8798,0.8324,0.7848,0.7452,0.7095,0.7095,0.7173,0.7309,0.7526,0.7645,0.7787,0.788,0.7988,0.7988,0.7988,0.7988,0.7988,0.7988,0.7988,0.7988,0.7988,0.8038,0.8088,0.7988,0.7988,0.7988,0.7988,0.7988,0.7988,0.7988,0.7988,0.7988,0.7988,0.7988,0.7892,0.7796,0.769,0.7543,0.7391,0.7241,0.7045,0.6739,0.6575,0.6481,0.6361,0.6227,0.6113,0.5945,0.5836,0.579,0.5702,0.5688,0.5688,0.5688,0.5688,0.5688,0.5688,0.5688,0.5688,1.5885,1.5885,1.5885,1.5885,1.5885,1.5885,1.5885,1.5885,1.5885,1.5885,1.5885,1.5885,1.5885,1.5771,1.5366,1.5077,1.489,1.4708,1.4678,1.4642,1.4425,1.4304,1.4298,1.4298,1.4298,1.4298,1.4298,1.4298,1.4238,1.4032,1.3767,1.3513,1.3209,1.2982,1.2777,1.2705,1.2705,1.2705,1.2705,1.279,1.2875,1.2778,1.2602,1.2361,1.2216,1.2036,1.1952,1.1956,1.1976,1.214,1.2164,1.2176,1.192,1.107,1.037,0.9836,0.924,0.8715,0.8153,0.7492,0.7183,0.7125,0.7248,0.7394,0.7577,0.7706,0.7838,0.7914,0.7988,0.7988,0.7988,0.7988,0.7988,0.7988,0.7988,0.7988,0.8038,0.8137,0.8283,0.8233,0.8137,0.8038,0.8088,0.8088,0.8038,0.8088,0.8088,0.8088,0.8088,0.8088,0.8038,0.7988,0.7939,0.7793,0.7593,0.7497,0.7347,0.6942,0.6736,0.6587,0.647,0.6358,0.6189,0.6043,0.5915,0.5839,0.5798,0.5712,0.5688,0.5688,0.5688,0.5688,0.5688,0.5688,0.5688,1.5885,1.5885,1.5885,1.5885,1.5885,1.5885,1.5885,1.5885,1.5885,1.5885,1.5885,1.5885,1.5885,1.5753,1.5342,1.4896,1.4588,1.4503,1.4503,1.4449,1.4364,1.4298,1.4298,1.4298,1.4298,1.4298,1.4298,1.4298,1.4274,1.4032,1.3773,1.3513,1.3254,1.2982,1.2765,1.2705,1.2705,1.2705,1.2705,1.2747,1.2875,1.2747,1.2614,1.2512,1.2403,1.2337,1.2324,1.233,1.2385,1.2493,1.2482,1.259,1.2444,1.21,1.1365,1.0631,0.9845,0.9109,0.8416,0.7628,0.7173,0.7261,0.7385,0.7482,0.7648,0.778,0.7885,0.7994,0.7988,0.7988,0.7988,0.8038,0.7988,0.7988,0.7988,0.8038,0.8088,0.8287,0.8531,0.8676,0.8676,0.8531,0.8237,0.8187,0.8137,0.8137,0.8137,0.8187,0.8237,0.8382,0.8478,0.8482,0.8432,0.8184,0.7939,0.7743,0.7494,0.7141,0.6842,0.6692,0.6528,0.6415,0.6285,0.6168,0.6048,0.5923,0.5841,0.5798,0.5723,0.5691,0.5688,0.5688,0.5688,0.5688,0.5688,1.5885,1.5885,1.5885,1.5885,1.5885,1.5885,1.5885,1.5885,1.5885,1.5885,1.5885,1.5885,1.5885,1.5753,1.5342,1.4829,1.4328,1.431,1.4322,1.4322,1.431,1.4298,1.4298,1.4298,1.4298,1.4298,1.4298,1.4298,1.4244,1.4032,1.3773,1.3513,1.3254,1.2939,1.2765,1.2705,1.2705,1.2705,1.2705,1.2705,1.2705,1.2705,1.2705,1.2705,1.2705,1.2674,1.2638,1.2632,1.2638,1.2668,1.2681,1.2693,1.2699,1.2705,1.2314,1.1451,1.0539,0.9628,0.8771,0.7904,0.7479,0.7566,0.7611,0.7782,0.7924,0.8084,0.8112,0.8159,0.8187,0.8184,0.8237,0.8187,0.8187,0.8184,0.8233,0.8237,0.8382,0.863,0.9175,0.932,0.927,0.9171,0.8973,0.8432,0.8382,0.8137,0.8187,0.863,0.8726,0.9019,0.9118,0.9069,0.897,0.8676,0.8382,0.7939,0.764,0.7238,0.6989,0.6839,0.6639,0.6423,0.6342,0.6268,0.6154,0.6034,0.5939,0.5841,0.5798,0.5765,0.5702,0.5688,0.5688,0.5688,0.5688,1.5885,1.5885,1.5885,1.5885,1.5885,1.5885,1.5885,1.5885,1.5885,1.5885,1.5885,1.5885,1.5879,1.5716,1.533,1.4811,1.4437,1.4298,1.4298,1.4298,1.4298,1.4298,1.4298,1.4298,1.4298,1.4298,1.4298,1.4298,1.425,1.4045,1.3797,1.3544,1.332,1.2951,1.2795,1.2771,1.2705,1.2705,1.2705,1.2705,1.2705,1.2705,1.2705,1.2705,1.2705,1.2705,1.2705,1.2705,1.2705,1.2705,1.2705,1.2705,1.2705,1.2705,1.24,1.1752,1.0933,0.9951,0.9297,0.8597,0.8174,0.8325,0.8438,0.8468,0.8717,0.8807,0.8826,0.8662,0.8775,0.8874,0.8924,0.8775,0.8726,0.8825,0.8973,0.8871,0.892,0.9558,1.0055,1.0404,1.0547,1.0199,0.9903,0.9167,0.8577,0.8333,0.8287,0.8825,0.9316,0.9706,0.9903,0.9908,0.9464,0.9167,0.863,0.8237,0.7789,0.7338,0.7138,0.6939,0.6689,0.6489,0.6437,0.6352,0.6295,0.623,0.6208,0.6064,0.589,0.5793,0.5763,0.5746,0.5688,0.5688,0.5733,1.5885,1.5885,1.5885,1.5885,1.5885,1.5885,1.5885,1.5885,1.5885,1.5885,1.5885,1.5885,1.5741,1.5463,1.5173,1.4811,1.4395,1.4298,1.4298,1.4298,1.4298,1.4298,1.4298,1.4298,1.4298,1.4298,1.4298,1.4298,1.425,1.4177,1.399,1.3743,1.3598,1.3312,1.2976,1.294,1.2837,1.2753,1.2705,1.2705,1.2705,1.2705,1.2705,1.2705,1.2705,1.2705,1.2705,1.2705,1.2705,1.2705,1.2705,1.2705,1.2705,1.2662,1.2534,1.224,1.1728,1.1043,1.0357,0.9687,0.9507,0.9685,0.9828,1.004,1.0056,1.0089,1.0096,1.0145,1.0145,1.0149,1.0096,1.0145,1.0145,1.0149,1.0031,1.0072,1.0167,1.0587,1.1082,1.1477,1.1727,1.1375,1.0935,1.0252,0.9513,0.9019,0.9122,0.9665,1.0207,1.0748,1.0846,1.0748,1.0203,0.9562,0.8977,0.8439,0.7942,0.749,0.7235,0.7039,0.6739,0.6589,0.6589,0.6589,0.6619,0.6589,0.6493,0.6278,0.6044,0.5884,0.5776,0.5805,0.5833,0.5733,0.5733,1.5885,1.5885,1.5885,1.5885,1.5885,1.5885,1.5885,1.5885,1.5885,1.5885,1.5885,1.5867,1.5602,1.5203,1.5083,1.4811,1.4316,1.4298,1.4298,1.4298,1.4298,1.4298,1.4298,1.4298,1.4298,1.4298,1.4298,1.4298,1.4298,1.4256,1.4135,1.3918,1.3839,1.3622,1.3276,1.3115,1.297,1.2723,1.2705,1.2705,1.2705,1.2705,1.2705,1.2705,1.2705,1.2705,1.2705,1.2705,1.2705,1.2705,1.2705,1.2705,1.2705,1.2705,1.2685,1.2573,1.2338,1.2193,1.1642,1.1166,1.0954,1.1041,1.1268,1.1173,1.1278,1.1424,1.1375,1.1277,1.1277,1.1326,1.137,1.1326,1.1325,1.1304,1.1382,1.1461,1.155,1.1811,1.2016,1.2252,1.25,1.2597,1.2058,1.1336,1.0596,0.9805,0.9957,1.0502,1.114,1.1824,1.1829,1.1678,1.0841,1.0105,0.9278,0.8687,0.8141,0.7693,0.7437,0.7238,0.6989,0.6889,0.6886,0.6889,0.7039,0.7226,0.7379,0.6729,0.6154,0.617,0.619,0.6045,0.5975,0.5922,0.5981,1.5885,1.5885,1.5885,1.5885,1.5885,1.5885,1.5885,1.5885,1.5885,1.5885,1.5885,1.5861,1.5602,1.5215,1.5065,1.4811,1.4298,1.4298,1.4298,1.4298,1.4298,1.4298,1.4298,1.4298,1.4298,1.4298,1.4298,1.4298,1.4298,1.4298,1.4141,1.3948,1.3978,1.3755,1.3483,1.3248,1.2982,1.2759,1.2705,1.2705,1.2705,1.2705,1.2705,1.2705,1.2705,1.2705,1.2705,1.2705,1.2705,1.2705,1.2753,1.2759,1.2777,1.2825,1.2879,1.2935,1.301,1.3044,1.2923,1.2324,1.1764,1.173,1.1895,1.2152,1.2204,1.2073,1.1975,1.2111,1.2209,1.2165,1.2073,1.1996,1.2343,1.247,1.2665,1.2631,1.272,1.2858,1.3046,1.3088,1.3173,1.3275,1.3275,1.2554,1.1629,1.0837,1.1072,1.1619,1.2306,1.2894,1.2802,1.2506,1.1521,1.0592,0.9575,0.8886,0.8141,0.7842,0.769,0.7487,0.7338,0.7285,0.7238,0.7633,0.7882,0.8071,0.8195,0.7824,0.7408,0.6854,0.6651,0.6686,0.6706,0.6709,0.6737,1.5885,1.5885,1.5885,1.5885,1.5885,1.5885,1.5885,1.5885,1.5885,1.5885,1.5885,1.5861,1.5596,1.5228,1.5077,1.4811,1.4352,1.4298,1.4298,1.4298,1.4298,1.4298,1.4298,1.4298,1.4298,1.4298,1.4298,1.4298,1.4298,1.4298,1.4268,1.4171,1.4123,1.3978,1.3731,1.3357,1.3006,1.2789,1.2711,1.2705,1.2705,1.2705,1.2705,1.2705,1.2705,1.2705,1.2705,1.2705,1.2705,1.2747,1.2874,1.2922,1.2982,1.3085,1.3218,1.3363,1.3465,1.3682,1.3845,1.3368,1.3161,1.3273,1.3369,1.3377,1.3238,1.3383,1.3431,1.3426,1.334,1.3223,1.3389,1.3573,1.3781,1.3828,1.3846,1.3785,1.383,1.3925,1.3849,1.3837,1.3893,1.3956,1.3913,1.3769,1.2797,1.197,1.2301,1.2684,1.3178,1.3329,1.3093,1.2457,1.1375,1.0493,0.9476,0.8733,0.8038,0.7988,0.7939,0.7985,0.7982,0.7789,0.7839,0.8283,0.8772,0.911,0.9239,0.9113,0.8668,0.8015,0.7699,0.7612,0.7601,0.7528,0.7566,1.5885,1.5885,1.5885,1.5885,1.5885,1.5885,1.5885,1.5885,1.5885,1.5885,1.5885,1.5867,1.5596,1.5228,1.5095,1.4805,1.4419,1.4298,1.4298,1.4298,1.4298,1.4298,1.4298,1.4298,1.4298,1.4298,1.4298,1.4298,1.4298,1.4298,1.4286,1.428,1.4292,1.4153,1.3966,1.3519,1.3103,1.2892,1.2735,1.2705,1.2705,1.2705,1.2705,1.2705,1.2705,1.2705,1.2705,1.2711,1.2771,1.2874,1.3006,1.3107,1.3221,1.3399,1.3538,1.3664,1.3785,1.3924,1.3996,1.4045,1.4105,1.4046,1.413,1.4202,1.4298,1.4298,1.4058,1.416,1.4256,1.4419,1.4437,1.4463,1.4657,1.4642,1.4781,1.4765,1.4757,1.4773,1.4633,1.4548,1.4563,1.4551,1.4514,1.4427,1.3877,1.3144,1.3227,1.3323,1.3238,1.319,1.2651,1.1868,1.0837,1.0006,0.9175,0.8584,0.8137,0.8382,0.8432,0.8772,0.8772,0.8627,0.8973,0.9752,1.0194,1.0346,1.0431,1.0462,0.9875,0.9116,0.882,0.8482,0.849,0.847,0.8509,1.5885,1.5885,1.5885,1.5885,1.5885,1.5885,1.5885,1.5885,1.5885,1.5885,1.5885,1.5885,1.5602,1.5203,1.5113,1.4793,1.4401,1.4298,1.4298,1.4298,1.4298,1.4298,1.4298,1.4298,1.4298,1.4298,1.4298,1.4298,1.4298,1.4298,1.4298,1.4298,1.4298,1.425,1.422,1.3773,1.3387,1.3077,1.2868,1.2813,1.2807,1.2825,1.2831,1.2837,1.2843,1.2868,1.2868,1.2868,1.2958,1.3103,1.3155,1.33,1.3507,1.3574,1.3713,1.39,1.3918,1.4045,1.4238,1.4268,1.428,1.4286,1.4298,1.4298,1.4298,1.4316,1.4358,1.4413,1.4558,1.4684,1.4793,1.4944,1.5179,1.5324,1.5403,1.5433,1.5366,1.5294,1.5107,1.4908,1.4992,1.5077,1.5065,1.4954,1.4695,1.4368,1.4322,1.4039,1.3674,1.3067,1.2552,1.1634,1.0645,0.9862,0.913,0.8482,0.8233,0.8531,0.8973,0.9414,0.9953,1.0248,1.069,1.137,1.1468,1.1477,1.1678,1.1873,1.1036,1.0162,0.9616,0.9337,0.9356,0.9393,0.9471,1.5885,1.5885,1.5885,1.5885,1.5885,1.5885,1.5885,1.5885,1.5885,1.5885,1.5885,1.5885,1.5596,1.5246,1.5065,1.4817,1.4377,1.4298,1.4298,1.4298,1.4298,1.4298,1.4298,1.4298,1.4298,1.4298,1.4298,1.4298,1.4298,1.4298,1.4298,1.4298,1.4286,1.4195,1.4051,1.3797,1.3646,1.3378,1.329,1.3248,1.3236,1.3224,1.3212,1.3206,1.32,1.3188,1.3181,1.3169,1.3248,1.3387,1.3432,1.3652,1.3791,1.3863,1.4045,1.4147,1.4159,1.4195,1.4286,1.4292,1.4298,1.4298,1.4298,1.4298,1.4298,1.4491,1.4545,1.463,1.4823,1.4944,1.5016,1.5221,1.5421,1.5481,1.5547,1.5572,1.5535,1.5475,1.5342,1.5137,1.5107,1.5161,1.5179,1.527,1.5089,1.5004,1.4859,1.4471,1.4107,1.322,1.2516,1.1508,1.0577,0.9809,0.913,0.8973,0.9072,0.9517,0.9912,1.031,1.0846,1.1526,1.1917,1.2306,1.2408,1.2559,1.2511,1.2414,1.1901,1.1216,1.0594,1.0222,1.0192,1.035,1.0553,1.5885,1.5885,1.5885,1.5885,1.5885,1.5885,1.5885,1.5885,1.5885,1.5885,1.5885,1.5879,1.5596,1.5234,1.5071,1.4811,1.4334,1.4298,1.4298,1.4298,1.4298,1.4298,1.4298,1.4298,1.4298,1.4298,1.4298,1.4298,1.4298,1.4298,1.4298,1.4298,1.4298,1.4226,1.4075,1.3954,1.3821,1.3634,1.3544,1.3453,1.3465,1.3477,1.3483,1.3432,1.3477,1.3489,1.3456,1.348,1.3562,1.3676,1.3803,1.396,1.4063,1.4177,1.4298,1.4298,1.4298,1.4292,1.4298,1.4298,1.4298,1.4298,1.4298,1.4352,1.4425,1.4606,1.4745,1.4877,1.5095,1.5191,1.5282,1.5493,1.5608,1.5674,1.5686,1.5716,1.571,1.5644,1.5614,1.5403,1.5336,1.5342,1.5336,1.5409,1.5433,1.5409,1.5378,1.491,1.4458,1.3545,1.273,1.1864,1.1056,1.0444,1.0105,1.0002,1.0149,1.0498,1.0895,1.1287,1.1965,1.264,1.2942,1.3195,1.3286,1.3286,1.3098,1.2802,1.2301,1.1858,1.138,1.111,1.1062,1.1052,1.1118,1.5885,1.5885,1.5885,1.5885,1.5885,1.5885,1.5885,1.5885,1.5885,1.5885,1.5885,1.5867,1.5559,1.5179,1.5095,1.4781,1.4383,1.431,1.4298,1.4298,1.4298,1.4298,1.4298,1.4298,1.4298,1.4298,1.4298,1.4298,1.4298,1.4298,1.4298,1.4298,1.4298,1.4262,1.4183,1.4081,1.3966,1.3882,1.3785,1.3713,1.3713,1.3646,1.3676,1.3682,1.3676,1.3676,1.367,1.3664,1.3755,1.3845,1.3942,1.4087,1.4201,1.4292,1.4298,1.4298,1.4298,1.4298,1.431,1.431,1.437,1.4401,1.4407,1.4503,1.4636,1.4781,1.4974,1.5149,1.5354,1.5439,1.5541,1.5686,1.5825,1.5843,1.5843,1.5855,1.5855,1.5843,1.5837,1.5777,1.5759,1.5753,1.5716,1.5753,1.565,1.565,1.5519,1.5259,1.467,1.3847,1.3105,1.2601,1.1855,1.1311,1.1077,1.0935,1.1135,1.1433,1.1955,1.2398,1.3071,1.3468,1.3667,1.3817,1.4058,1.401,1.3588,1.3104,1.2657,1.2219,1.1927,1.1473,1.124,1.1167,1.117,1.5885,1.5885,1.5885,1.5885,1.5885,1.5885,1.5885,1.5885,1.5885,1.5885,1.5879,1.5686,1.5403,1.5107,1.4914,1.4618,1.4419,1.4298,1.4298,1.4298,1.4298,1.4298,1.4298,1.4298,1.4298,1.4298,1.4298,1.4298,1.4298,1.4298,1.4298,1.4298,1.4298,1.4298,1.4274,1.422,1.4183,1.4141,1.4039,1.4014,1.4014,1.4002,1.4008,1.4002,1.3996,1.3996,1.4002,1.4008,1.4093,1.4141,1.4177,1.4256,1.4274,1.4298,1.4298,1.4298,1.4298,1.4304,1.4334,1.4485,1.4594,1.4636,1.4751,1.4751,1.4865,1.5022,1.5258,1.5427,1.5572,1.5668,1.5698,1.5807,1.5885,1.5885,1.5885,1.5885,1.5885,1.5885,1.5885,1.5885,1.5885,1.5885,1.5885,1.5867,1.5783,1.5807,1.5682,1.5397,1.5015,1.4168,1.3646,1.3184,1.2704,1.2181,1.1917,1.1775,1.2073,1.2365,1.284,1.3221,1.357,1.3913,1.4202,1.4298,1.425,1.4112,1.3835,1.3394,1.3001,1.271,1.237,1.1878,1.1438,1.1389,1.1292,1.5885,1.5885,1.5885,1.5837,1.5747,1.5734,1.5686,1.5614,1.5686,1.5734,1.5704,1.5457,1.5197,1.495,1.4781,1.4576,1.4322,1.4298,1.4298,1.4298,1.4298,1.4298,1.4298,1.4298,1.4298,1.4298,1.4298,1.4298,1.4298,1.4298,1.4298,1.4298,1.4298,1.4298,1.4292,1.428,1.4286,1.428,1.428,1.4298,1.4298,1.4298,1.4298,1.4298,1.4298,1.4298,1.4298,1.4298,1.4298,1.4298,1.4298,1.4298,1.4298,1.4298,1.4298,1.4298,1.4298,1.4383,1.4479,1.4606,1.4745,1.4902,1.5107,1.5149,1.5185,1.53,1.5487,1.5656,1.5777,1.5873,1.5879,1.5885,1.5885,1.5885,1.5885,1.5885,1.5885,1.5885,1.5885,1.5885,1.5885,1.5885,1.5885,1.5885,1.5867,1.5825,1.5728,1.5507,1.5215,1.4687,1.4321,1.3979,1.356,1.3087,1.2851,1.2705,1.2996,1.3238,1.3468,1.3859,1.407,1.4166,1.4304,1.4256,1.4208,1.407,1.4022,1.3738,1.3394,1.3104,1.2861,1.2467,1.2073,1.178,1.1634,1.5885,1.5885,1.5861,1.571,1.5517,1.5487,1.5348,1.5137,1.5285,1.5393,1.5409,1.5191,1.4956,1.4781,1.4654,1.4509,1.4346,1.4298,1.4298,1.4298,1.4298,1.4298,1.4298,1.4298,1.4298,1.4298,1.4298,1.4298,1.4298,1.4298,1.4298,1.4298,1.4298,1.4298,1.4298,1.4298,1.4298,1.4298,1.4298,1.4298,1.4298,1.4298,1.4298,1.4298,1.4298,1.4298,1.4298,1.4298,1.4298,1.4298,1.4298,1.4298,1.4298,1.4298,1.4298,1.434,1.4358,1.4485,1.4648,1.4805,1.4968,1.5155,1.5372,1.5469,1.5523,1.5535,1.5686,1.5765,1.5867,1.5885,1.5885,1.5885,1.5885,1.5885,1.5885,1.5885,1.5885,1.5885,1.5885,1.5885,1.5885,1.5885,1.5861,1.5849,1.5734,1.5747,1.5547,1.5372,1.5158,1.4837,1.4692,1.4473,1.4119,1.3727,1.3817,1.3721,1.3962,1.4154,1.4148,1.4148,1.4208,1.4256,1.4298,1.4256,1.4256,1.4256,1.4208,1.3925,1.369,1.3497,1.3249,1.3055,1.2759,1.2365,1.1975,1.5885,1.5867,1.5674,1.5547,1.5475,1.5282,1.5167,1.5038,1.4699,1.4814,1.5074,1.4888,1.4731,1.4536,1.4357,1.422,1.4232,1.4106,1.4298,1.425,1.425,1.4298,1.4298,1.4298,1.4298,1.4298,1.4298,1.4298,1.4298,1.4298,1.4298,1.4298,1.4298,1.4298,1.4298,1.4298,1.4298,1.4298,1.4298,1.4298,1.4298,1.4298,1.4298,1.4298,1.4298,1.4298,1.4298,1.4298,1.4298,1.4298,1.4298,1.4298,1.4298,1.4298,1.4298,1.4334,1.4473,1.4624,1.4799,1.5028,1.527,1.5415,1.5602,1.5728,1.5801,1.5795,1.5813,1.5861,1.5885,1.5885,1.5885,1.5885,1.5885,1.5885,1.5885,1.5885,1.5885,1.5885,1.5885,1.5885,1.5885,1.5873,1.5849,1.5753,1.5638,1.5403,1.5077,1.4883,1.4841,1.4623,1.4629,1.4478,1.4358,1.4172,1.431,1.4298,1.4298,1.4298,1.425,1.425,1.4298,1.4298,1.4298,1.4298,1.4298,1.4298,1.4256,1.4022,1.3835,1.3786,1.3684,1.3485,1.334,1.3001,1.2511,1.5885,1.5855,1.5608,1.536,1.5149,1.4998,1.4871,1.4683,1.4195,1.3967,1.4015,1.3961,1.3947,1.3854,1.3688,1.3624,1.3673,1.3727,1.3775,1.3871,1.4058,1.4202,1.425,1.4298,1.4298,1.4298,1.4298,1.4298,1.4298,1.4298,1.4298,1.4298,1.4298,1.4298,1.4298,1.4298,1.4298,1.4298,1.4298,1.4298,1.4298,1.4298,1.4298,1.4298,1.4298,1.4298,1.4298,1.4298,1.4298,1.4298,1.4298,1.4298,1.4298,1.4298,1.4298,1.4377,1.4527,1.4763,1.4962,1.5228,1.5547,1.5674,1.5759,1.5849,1.5855,1.5843,1.5843,1.5885,1.5885,1.5885,1.5885,1.5885,1.5885,1.5885,1.5885,1.5885,1.5885,1.5885,1.5885,1.5885,1.5885,1.5885,1.5825,1.5674,1.5559,1.5433,1.504,1.4727,1.4624,1.4497,1.4485,1.4455,1.4364,1.4316,1.4304,1.4298,1.4298,1.4298,1.4298,1.4298,1.4298,1.4298,1.4298,1.4298,1.4298,1.4298,1.4208,1.4118,1.4112,1.4064,1.3968,1.3871,1.3727,1.3582,1.3147,1.5867,1.5801,1.5459,1.5041,1.4602,1.4524,1.4295,1.4009,1.3545,1.3001,1.2581,1.2683,1.2662,1.2662,1.2613,1.2613,1.2657,1.2797,1.2996,1.3389,1.3678,1.3962,1.4202,1.4298,1.4298,1.4298,1.4298,1.4298,1.4298,1.4298,1.4298,1.4298,1.4298,1.4298,1.4298,1.4298,1.4298,1.4298,1.4298,1.4298,1.4298,1.4298,1.4298,1.4298,1.4298,1.4298,1.4298,1.4298,1.4298,1.4298,1.4298,1.4298,1.4298,1.4298,1.4298,1.4377,1.4648,1.4871,1.5095,1.5384,1.5638,1.5813,1.5867,1.5885,1.5885,1.5885,1.5885,1.5879,1.5879,1.5885,1.5885,1.5885,1.5885,1.5885,1.5885,1.5885,1.5885,1.5885,1.5885,1.5885,1.5885,1.5885,1.5795,1.5644,1.5457,1.5342,1.5125,1.4853,1.4612,1.4473,1.4389,1.4377,1.4334,1.4304,1.4298,1.4298,1.4298,1.4298,1.4298,1.4298,1.4298,1.4298,1.4298,1.4298,1.4298,1.4298,1.4298,1.4256,1.425,1.425,1.4202,1.4106,1.4058,1.3871,1.3732,1.5765,1.5535,1.4811,1.4345,1.3981,1.3601,1.3283,1.3007,1.2511,1.1975,1.1482,1.1091,1.1091,1.1473,1.1517,1.1521,1.157,1.1765,1.2349,1.2834,1.3087,1.3619,1.4052,1.4106,1.425,1.4298,1.4298,1.4298,1.4298,1.4298,1.4298,1.4298,1.4298,1.4298,1.4298,1.4298,1.4298,1.4298,1.4298,1.4298,1.4298,1.4298,1.4298,1.4298,1.4298,1.4298,1.4298,1.4298,1.4298,1.4298,1.4298,1.4298,1.4298,1.4298,1.4298,1.4419,1.4702,1.4962,1.5203,1.5535,1.5789,1.5855,1.5879,1.5867,1.5873,1.5879,1.5867,1.5849,1.5855,1.5879,1.5885,1.5885,1.5885,1.5885,1.5885,1.5885,1.5885,1.5885,1.5885,1.5885,1.5885,1.5879,1.5855,1.5614,1.5276,1.5107,1.4829,1.4594,1.46,1.4455,1.4328,1.4328,1.434,1.4298,1.4298,1.4298,1.4298,1.4298,1.4298,1.4298,1.4298,1.4298,1.4298,1.4298,1.4298,1.4298,1.4298,1.4298,1.4298,1.4298,1.4298,1.425,1.425,1.4154,1.3973]}]]